Time,TemperatureF,DewpointF,PressureIn,WindDirection,WindDirectionDegrees,WindSpeedMPH,WindSpeedGustMPH,Humidity,HourlyPrecipIn,Conditions,Clouds,dailyrainin,SoftwareType,DateUTC
2013-06-03 00:00:00,64.8,60.2,29.94,WNW,291,1.5,1.5,85,0.00,,,0.00,VWS V14.01,2013-06-03 04:00:00,
2013-06-03 00:01:00,64.7,60.1,29.93,WNW,291,1.5,1.5,85,0.00,,,0.00,VWS V14.01,2013-06-03 04:01:00,
2013-06-03 00:02:00,64.7,60.1,29.93,WNW,291,1.5,1.5,85,0.00,,,0.00,VWS V14.01,2013-06-03 04:02:00,
2013-06-03 00:03:00,64.6,60.0,29.93,WNW,291,1.5,1.5,85,0.00,,,0.00,VWS V14.01,2013-06-03 04:03:00,
2013-06-03 00:04:00,64.6,60.3,29.94,WNW,293,1.5,3.0,86,0.00,,,0.00,VWS V14.01,2013-06-03 04:04:00,
2013-06-03 00:05:00,64.6,60.3,29.94,WNW,293,1.5,1.5,86,0.00,,,0.00,VWS V14.01,2013-06-03 04:05:00,
2013-06-03 00:06:00,64.5,60.2,29.94,WNW,293,1.5,1.5,86,0.00,,,0.00,VWS V14.01,2013-06-03 04:06:00,
2013-06-03 00:07:00,64.5,60.2,29.94,WNW,293,1.5,1.5,86,0.00,,,0.00,VWS V14.01,2013-06-03 04:07:00,
2013-06-03 00:08:00,64.5,60.2,29.94,WNW,293,1.5,1.5,86,0.00,,,0.00,VWS V14.01,2013-06-03 04:08:00,
2013-06-03 00:09:00,64.5,60.2,29.94,WNW,293,1.5,1.5,86,0.00,,,0.00,VWS V14.01,2013-06-03 04:09:00,
2013-06-03 00:10:00,64.5,60.2,29.94,WNW,293,1.5,1.5,86,0.00,,,0.00,VWS V14.01,2013-06-03 04:10:00,
2013-06-03 00:11:00,64.5,60.2,29.94,WNW,293,1.5,1.5,86,0.00,,,0.00,VWS V14.01,2013-06-03 04:11:00,
2013-06-03 00:12:00,64.5,60.2,29.94,WNW,293,1.5,1.5,86,0.00,,,0.00,VWS V14.01,2013-06-03 04:12:00,
2013-06-03 00:13:00,64.5,60.2,29.94,WNW,293,1.5,1.5,86,0.00,,,0.00,VWS V14.01,2013-06-03 04:13:00,
2013-06-03 00:14:00,64.5,60.2,29.94,WNW,293,3.0,3.0,86,0.00,,,0.00,VWS V14.01,2013-06-03 04:14:00,
2013-06-03 00:15:00,64.5,60.2,29.94,WNW,293,1.5,3.0,86,0.00,,,0.00,VWS V14.01,2013-06-03 04:15:00,
2013-06-03 00:16:00,64.5,60.2,29.94,WNW,293,1.5,3.0,86,0.00,,,0.00,VWS V14.01,2013-06-03 04:16:00,
2013-06-03 00:17:00,64.5,60.2,29.94,WNW,293,1.5,1.5,86,0.00,,,0.00,VWS V14.01,2013-06-03 04:17:00,
2013-06-03 00:18:00,64.5,60.2,29.94,WNW,293,1.5,1.5,86,0.00,,,0.00,VWS V14.01,2013-06-03 04:18:00,
2013-06-03 00:19:00,64.5,60.2,29.94,WNW,293,1.5,1.5,86,0.00,,,0.00,VWS V14.01,2013-06-03 04:19:00,
2013-06-03 00:20:00,64.5,60.2,29.94,WNW,293,1.5,1.5,86,0.00,,,0.00,VWS V14.01,2013-06-03 04:20:00,
2013-06-03 00:21:00,64.5,60.2,29.94,WNW,289,1.5,3.0,86,0.00,,,0.00,VWS V14.01,2013-06-03 04:21:00,
2013-06-03 00:22:00,64.5,60.2,29.94,WNW,289,1.5,3.0,86,0.00,,,0.00,VWS V14.01,2013-06-03 04:22:00,
2013-06-03 00:23:00,64.5,60.2,29.94,WNW,289,1.5,3.0,86,0.00,,,0.00,VWS V14.01,2013-06-03 04:23:00,
2013-06-03 00:24:00,64.5,60.2,29.94,WNW,289,1.5,3.0,86,0.00,,,0.00,VWS V14.01,2013-06-03 04:24:00,
2013-06-03 00:25:00,64.5,60.2,29.94,WNW,288,1.5,1.5,86,0.00,,,0.00,VWS V14.01,2013-06-03 04:25:00,
2013-06-03 00:26:00,64.5,60.2,29.94,WNW,288,1.5,3.0,86,0.00,,,0.00,VWS V14.01,2013-06-03 04:26:00,
2013-06-03 00:27:00,64.5,60.2,29.94,WNW,288,1.5,1.5,86,0.00,,,0.00,VWS V14.01,2013-06-03 04:27:00,
2013-06-03 00:28:00,64.5,60.2,29.94,WNW,288,1.5,1.5,86,0.00,,,0.00,VWS V14.01,2013-06-03 04:28:00,
2013-06-03 00:29:00,64.5,60.2,29.94,WNW,289,1.5,1.5,86,0.00,,,0.00,VWS V14.01,2013-06-03 04:29:00,
2013-06-03 00:30:00,64.4,60.1,29.94,WNW,289,1.5,1.5,86,0.00,,,0.00,VWS V14.01,2013-06-03 04:30:00,
2013-06-03 00:31:00,64.4,60.1,29.94,WNW,288,1.5,1.5,86,0.00,,,0.00,VWS V14.01,2013-06-03 04:31:00,
2013-06-03 00:32:00,64.4,60.1,29.94,WNW,289,1.5,1.5,86,0.00,,,0.00,VWS V14.01,2013-06-03 04:32:00,
2013-06-03 00:33:00,64.4,60.1,29.94,WNW,288,1.5,1.5,86,0.00,,,0.00,VWS V14.01,2013-06-03 04:33:00,
2013-06-03 00:34:00,64.3,60.0,29.94,WNW,289,1.5,1.5,86,0.00,,,0.00,VWS V14.01,2013-06-03 04:34:00,
2013-06-03 00:35:00,64.3,60.0,29.94,WNW,289,1.5,1.5,86,0.00,,,0.00,VWS V14.01,2013-06-03 04:35:00,
2013-06-03 00:36:00,64.3,60.3,29.94,WNW,289,1.5,1.5,87,0.00,,,0.00,VWS V14.01,2013-06-03 04:36:00,
2013-06-03 00:37:00,64.3,60.3,29.94,WNW,289,1.5,1.5,87,0.00,,,0.00,VWS V14.01,2013-06-03 04:37:00,
2013-06-03 00:38:00,64.3,60.3,29.94,WNW,288,1.5,1.5,87,0.00,,,0.00,VWS V14.01,2013-06-03 04:38:00,
2013-06-03 00:39:00,64.2,60.3,29.94,WNW,288,1.5,1.5,87,0.00,,,0.00,VWS V14.01,2013-06-03 04:39:00,
2013-06-03 00:40:00,64.2,60.3,29.94,WNW,289,1.5,1.5,87,0.00,,,0.00,VWS V14.01,2013-06-03 04:40:00,
2013-06-03 00:41:00,64.1,60.2,29.94,WNW,289,1.5,1.5,87,0.00,,,0.00,VWS V14.01,2013-06-03 04:41:00,
2013-06-03 00:42:00,64.1,60.2,29.94,WNW,289,1.5,1.5,87,0.00,,,0.00,VWS V14.01,2013-06-03 04:42:00,
2013-06-03 00:43:00,64.1,60.2,29.94,WNW,288,1.5,1.5,87,0.00,,,0.00,VWS V14.01,2013-06-03 04:43:00,
2013-06-03 00:44:00,64.0,60.1,29.94,WNW,289,1.5,1.5,87,0.00,,,0.00,VWS V14.01,2013-06-03 04:44:00,
2013-06-03 00:45:00,64.0,60.1,29.94,WNW,289,1.5,1.5,87,0.00,,,0.00,VWS V14.01,2013-06-03 04:45:00,
2013-06-03 00:46:00,64.0,60.1,29.94,WNW,288,1.5,1.5,87,0.00,,,0.00,VWS V14.01,2013-06-03 04:46:00,
2013-06-03 00:47:00,63.9,60.0,29.94,WNW,289,1.5,1.5,87,0.00,,,0.00,VWS V14.01,2013-06-03 04:47:00,
2013-06-03 00:48:00,63.9,60.0,29.94,WNW,288,1.5,1.5,87,0.00,,,0.00,VWS V14.01,2013-06-03 04:48:00,
2013-06-03 00:49:00,63.9,60.0,29.94,NW,310,4.5,4.5,87,0.00,,,0.00,VWS V14.01,2013-06-03 04:49:00,
2013-06-03 00:50:00,64.0,60.1,29.94,NW,306,1.5,4.5,87,0.00,,,0.00,VWS V14.01,2013-06-03 04:50:00,
2013-06-03 00:51:00,64.0,60.1,29.94,NW,306,1.5,1.5,87,0.00,,,0.00,VWS V14.01,2013-06-03 04:51:00,
2013-06-03 00:52:00,64.0,60.1,29.94,NW,306,1.5,1.5,87,0.00,,,0.00,VWS V14.01,2013-06-03 04:52:00,
2013-06-03 00:53:00,63.9,60.0,29.94,NW,306,1.5,1.5,87,0.00,,,0.00,VWS V14.01,2013-06-03 04:53:00,
2013-06-03 00:54:00,63.9,60.0,29.94,NW,306,1.5,1.5,87,0.00,,,0.00,VWS V14.01,2013-06-03 04:54:00,
2013-06-03 00:55:00,63.9,60.0,29.94,NW,306,3.0,3.0,87,0.00,,,0.00,VWS V14.01,2013-06-03 04:55:00,
2013-06-03 00:56:00,63.9,60.0,29.94,NW,306,1.5,3.0,87,0.00,,,0.00,VWS V14.01,2013-06-03 04:56:00,
2013-06-03 00:57:00,63.9,60.0,29.94,NW,306,1.5,6.0,87,0.00,,,0.00,VWS V14.01,2013-06-03 04:57:00,
2013-06-03 00:58:00,63.9,60.0,29.94,WNW,296,4.5,4.5,87,0.00,,,0.00,VWS V14.01,2013-06-03 04:58:00,
2013-06-03 00:59:00,63.9,60.0,29.94,NW,307,1.5,4.5,87,0.00,,,0.00,VWS V14.01,2013-06-03 04:59:00,
2013-06-03 01:00:00,63.9,60.0,29.94,NW,307,1.5,1.5,87,0.00,,,0.00,VWS V14.01,2013-06-03 05:00:00,
2013-06-03 01:01:00,63.9,60.3,29.94,WNW,296,1.5,3.0,88,0.00,,,0.00,VWS V14.01,2013-06-03 05:01:00,
2013-06-03 01:02:00,63.9,60.3,29.94,WNW,296,1.5,3.0,88,0.00,,,0.00,VWS V14.01,2013-06-03 05:02:00,
2013-06-03 01:03:00,63.9,60.0,29.94,WNW,298,1.5,3.0,87,0.00,,,0.00,VWS V14.01,2013-06-03 05:03:00,
2013-06-03 01:04:00,63.9,60.0,29.94,WNW,296,1.5,3.0,87,0.00,,,0.00,VWS V14.01,2013-06-03 05:04:00,
2013-06-03 01:05:00,64.0,60.1,29.94,WNW,303,3.0,4.5,87,0.00,,,0.00,VWS V14.01,2013-06-03 05:05:00,
2013-06-03 01:06:00,64.0,60.1,29.94,WNW,303,1.5,3.0,87,0.00,,,0.00,VWS V14.01,2013-06-03 05:06:00,
2013-06-03 01:07:00,64.0,60.1,29.94,WNW,303,1.5,3.0,87,0.00,,,0.00,VWS V14.01,2013-06-03 05:07:00,
2013-06-03 01:08:00,64.0,60.1,29.94,North,355,4.5,4.5,87,0.00,,,0.00,VWS V14.01,2013-06-03 05:08:00,
2013-06-03 01:09:00,63.9,60.0,29.94,NNW,333,1.5,4.5,87,0.00,,,0.00,VWS V14.01,2013-06-03 05:09:00,
2013-06-03 01:10:00,63.9,60.0,29.94,NNW,333,3.0,3.0,87,0.00,,,0.00,VWS V14.01,2013-06-03 05:10:00,
2013-06-03 01:11:00,63.8,59.9,29.94,North,11,1.5,3.0,87,0.00,,,0.00,VWS V14.01,2013-06-03 05:11:00,
2013-06-03 01:12:00,63.8,59.9,29.94,North,11,1.5,3.0,87,0.00,,,0.00,VWS V14.01,2013-06-03 05:12:00,
2013-06-03 01:13:00,63.8,59.9,29.94,North,11,1.5,1.5,87,0.00,,,0.00,VWS V14.01,2013-06-03 05:13:00,
2013-06-03 01:14:00,63.7,60.1,29.94,NNW,336,3.0,3.0,88,0.00,,,0.00,VWS V14.01,2013-06-03 05:14:00,
2013-06-03 01:15:00,63.7,60.1,29.94,NNW,338,1.5,3.0,88,0.00,,,0.00,VWS V14.01,2013-06-03 05:15:00,
2013-06-03 01:16:00,63.6,60.0,29.94,North,355,1.5,6.0,88,0.00,,,0.00,VWS V14.01,2013-06-03 05:16:00,
2013-06-03 01:17:00,63.6,60.0,29.94,North,355,1.5,6.0,88,0.00,,,0.00,VWS V14.01,2013-06-03 05:17:00,
2013-06-03 01:18:00,63.6,60.0,29.94,North,352,1.5,1.5,88,0.00,,,0.00,VWS V14.01,2013-06-03 05:18:00,
2013-06-03 01:19:00,63.5,59.9,29.94,NNW,339,3.0,3.0,88,0.00,,,0.00,VWS V14.01,2013-06-03 05:19:00,
2013-06-03 01:20:00,63.5,59.9,29.94,NNW,343,3.0,4.5,88,0.00,,,0.00,VWS V14.01,2013-06-03 05:20:00,
2013-06-03 01:21:00,63.4,59.8,29.94,NNE,32,4.5,4.5,88,0.00,,,0.00,VWS V14.01,2013-06-03 05:21:00,
2013-06-03 01:22:00,63.4,59.8,29.94,NNE,32,4.5,4.5,88,0.00,,,0.00,VWS V14.01,2013-06-03 05:22:00,
2013-06-03 01:23:00,63.4,59.8,29.94,NNE,32,1.5,4.5,88,0.00,,,0.00,VWS V14.01,2013-06-03 05:23:00,
2013-06-03 01:24:00,63.3,59.7,29.94,NNE,18,3.0,3.0,88,0.00,,,0.00,VWS V14.01,2013-06-03 05:24:00,
2013-06-03 01:25:00,63.3,59.7,29.94,North,4,1.5,3.0,88,0.00,,,0.00,VWS V14.01,2013-06-03 05:25:00,
2013-06-03 01:26:00,63.2,59.6,29.94,North,4,1.5,3.0,88,0.00,,,0.00,VWS V14.01,2013-06-03 05:26:00,
2013-06-03 01:27:00,63.2,59.6,29.94,North,4,1.5,3.0,88,0.00,,,0.00,VWS V14.01,2013-06-03 05:27:00,
2013-06-03 01:28:00,63.1,59.5,29.94,North,4,1.5,1.5,88,0.00,,,0.00,VWS V14.01,2013-06-03 05:28:00,
2013-06-03 01:29:00,63.1,59.5,29.94,North,5,1.5,1.5,88,0.00,,,0.00,VWS V14.01,2013-06-03 05:29:00,
2013-06-03 01:30:00,63.0,59.4,29.94,North,4,3.0,3.0,88,0.00,,,0.00,VWS V14.01,2013-06-03 05:30:00,
2013-06-03 01:31:00,62.9,59.6,29.94,North,4,1.5,3.0,89,0.00,,,0.00,VWS V14.01,2013-06-03 05:31:00,
2013-06-03 01:32:00,62.9,59.6,29.94,North,4,1.5,3.0,89,0.00,,,0.00,VWS V14.01,2013-06-03 05:32:00,
2013-06-03 01:33:00,62.9,59.6,29.94,North,10,4.5,4.5,89,0.00,,,0.00,VWS V14.01,2013-06-03 05:33:00,
2013-06-03 01:34:00,62.9,59.6,29.94,NNE,24,3.0,7.5,89,0.00,,,0.00,VWS V14.01,2013-06-03 05:34:00,
2013-06-03 01:35:00,62.9,59.6,29.94,North,359,3.0,7.5,89,0.00,,,0.00,VWS V14.01,2013-06-03 05:35:00,
2013-06-03 01:36:00,62.9,59.6,29.94,North,359,3.0,3.0,89,0.00,,,0.00,VWS V14.01,2013-06-03 05:36:00,
2013-06-03 01:37:00,62.9,59.6,29.94,North,359,1.5,3.0,89,0.00,,,0.00,VWS V14.01,2013-06-03 05:37:00,
2013-06-03 01:38:00,62.9,59.6,29.94,NNW,337,3.0,4.5,89,0.00,,,0.00,VWS V14.01,2013-06-03 05:38:00,
2013-06-03 01:39:00,62.9,59.6,29.94,NNE,19,4.5,7.5,89,0.00,,,0.00,VWS V14.01,2013-06-03 05:39:00,
2013-06-03 01:40:00,63.0,59.7,29.94,NNE,15,1.5,6.0,89,0.00,,,0.00,VWS V14.01,2013-06-03 05:40:00,
2013-06-03 01:41:00,62.9,59.6,29.94,North,10,3.0,3.0,89,0.00,,,0.00,VWS V14.01,2013-06-03 05:41:00,
2013-06-03 01:42:00,62.9,59.6,29.94,North,10,1.5,3.0,89,0.00,,,0.00,VWS V14.01,2013-06-03 05:42:00,
2013-06-03 01:43:00,62.9,59.6,29.94,North,10,1.5,3.0,89,0.00,,,0.00,VWS V14.01,2013-06-03 05:43:00,
2013-06-03 01:44:00,62.9,59.6,29.94,NNE,18,4.5,4.5,89,0.00,,,0.00,VWS V14.01,2013-06-03 05:44:00,
2013-06-03 01:45:00,62.9,59.6,29.94,NNW,346,1.5,4.5,89,0.00,,,0.00,VWS V14.01,2013-06-03 05:45:00,
2013-06-03 01:46:00,62.9,59.6,29.94,NNE,24,1.5,3.0,89,0.00,,,0.00,VWS V14.01,2013-06-03 05:46:00,
2013-06-03 01:47:00,62.9,59.6,29.94,NNE,24,1.5,3.0,89,0.00,,,0.00,VWS V14.01,2013-06-03 05:47:00,
2013-06-03 01:48:00,62.9,59.6,29.94,NNE,24,1.5,1.5,89,0.00,,,0.00,VWS V14.01,2013-06-03 05:48:00,
2013-06-03 01:49:00,62.8,59.5,29.94,NW,319,1.5,1.5,89,0.00,,,0.00,VWS V14.01,2013-06-03 05:49:00,
2013-06-03 01:50:00,62.8,59.5,29.94,NW,319,1.5,1.5,89,0.00,,,0.00,VWS V14.01,2013-06-03 05:50:00,
2013-06-03 01:51:00,62.8,59.8,29.94,NNE,21,3.0,4.5,90,0.00,,,0.00,VWS V14.01,2013-06-03 05:51:00,
2013-06-03 01:52:00,62.8,59.8,29.94,NNE,21,1.5,4.5,90,0.00,,,0.00,VWS V14.01,2013-06-03 05:52:00,
2013-06-03 01:53:00,62.8,59.8,29.94,NNE,21,1.5,1.5,90,0.00,,,0.00,VWS V14.01,2013-06-03 05:53:00,
2013-06-03 01:54:00,62.8,59.8,29.94,NNE,21,3.0,3.0,90,0.00,,,0.00,VWS V14.01,2013-06-03 05:54:00,
2013-06-03 01:55:00,62.7,59.7,29.94,NW,315,4.5,4.5,90,0.00,,,0.00,VWS V14.01,2013-06-03 05:55:00,
2013-06-03 01:56:00,62.7,59.7,29.94,NNE,33,3.0,4.5,90,0.00,,,0.00,VWS V14.01,2013-06-03 05:56:00,
2013-06-03 01:57:00,62.7,59.7,29.94,NNE,33,1.5,4.5,90,0.00,,,0.00,VWS V14.01,2013-06-03 05:57:00,
2013-06-03 01:58:00,62.7,59.7,29.94,NNE,27,1.5,1.5,90,0.00,,,0.00,VWS V14.01,2013-06-03 05:58:00,
2013-06-03 01:59:00,62.7,59.7,29.94,NNE,26,3.0,3.0,90,0.00,,,0.00,VWS V14.01,2013-06-03 05:59:00,
2013-06-03 02:00:00,62.7,59.7,29.94,North,4,3.0,4.5,90,0.00,,,0.00,VWS V14.01,2013-06-03 06:00:00,
2013-06-03 02:01:00,62.7,59.7,29.94,NNE,12,1.5,3.0,90,0.00,,,0.00,VWS V14.01,2013-06-03 06:01:00,
2013-06-03 02:02:00,62.7,59.7,29.94,NNE,12,1.5,3.0,90,0.00,,,0.00,VWS V14.01,2013-06-03 06:02:00,
2013-06-03 02:03:00,62.7,59.7,29.94,NE,40,1.5,3.0,90,0.00,,,0.00,VWS V14.01,2013-06-03 06:03:00,
2013-06-03 02:04:00,62.7,59.7,29.94,NW,319,3.0,3.0,90,0.00,,,0.00,VWS V14.01,2013-06-03 06:04:00,
2013-06-03 02:05:00,62.7,59.7,29.94,North,10,1.5,9.0,90,0.00,,,0.00,VWS V14.01,2013-06-03 06:05:00,
2013-06-03 02:06:00,62.7,59.7,29.94,North,7,1.5,3.0,90,0.00,,,0.00,VWS V14.01,2013-06-03 06:06:00,
2013-06-03 02:07:00,62.7,59.7,29.94,North,357,1.5,3.0,90,0.00,,,0.00,VWS V14.01,2013-06-03 06:07:00,
2013-06-03 02:08:00,62.7,59.7,29.95,North,357,1.5,4.5,90,0.00,,,0.00,VWS V14.01,2013-06-03 06:08:00,
2013-06-03 02:09:00,62.7,59.7,29.94,NNW,339,6.0,6.0,90,0.00,,,0.00,VWS V14.01,2013-06-03 06:09:00,
2013-06-03 02:10:00,62.7,59.7,29.94,NNW,346,1.5,6.0,90,0.00,,,0.00,VWS V14.01,2013-06-03 06:10:00,
2013-06-03 02:11:00,62.8,59.8,29.94,NNW,340,3.0,3.0,90,0.00,,,0.00,VWS V14.01,2013-06-03 06:11:00,
2013-06-03 02:12:00,62.8,59.8,29.94,NNW,339,1.5,3.0,90,0.00,,,0.00,VWS V14.01,2013-06-03 06:12:00,
2013-06-03 02:13:00,62.8,59.8,29.94,North,1,3.0,3.0,90,0.00,,,0.00,VWS V14.01,2013-06-03 06:13:00,
2013-06-03 02:14:00,62.8,59.8,29.94,North,351,3.0,4.5,90,0.00,,,0.00,VWS V14.01,2013-06-03 06:14:00,
2013-06-03 02:15:00,62.8,59.8,29.94,NNW,347,1.5,4.5,90,0.00,,,0.00,VWS V14.01,2013-06-03 06:15:00,
2013-06-03 02:16:00,62.8,59.8,29.95,NNE,31,3.0,6.0,90,0.00,,,0.00,VWS V14.01,2013-06-03 06:16:00,
2013-06-03 02:17:00,62.8,59.8,29.95,NNE,31,3.0,6.0,90,0.00,,,0.00,VWS V14.01,2013-06-03 06:17:00,
2013-06-03 02:18:00,62.8,59.8,29.95,North,10,1.5,3.0,90,0.00,,,0.00,VWS V14.01,2013-06-03 06:18:00,
2013-06-03 02:19:00,62.9,59.9,29.95,NW,306,3.0,6.0,90,0.00,,,0.00,VWS V14.01,2013-06-03 06:19:00,
2013-06-03 02:20:00,62.9,59.9,29.95,North,7,6.0,7.5,90,0.00,,,0.00,VWS V14.01,2013-06-03 06:20:00,
2013-06-03 02:21:00,62.9,59.9,29.95,East,83,4.5,6.0,90,0.00,,,0.00,VWS V14.01,2013-06-03 06:21:00,
2013-06-03 02:22:00,62.9,59.9,29.95,NNE,12,1.5,4.5,90,0.00,,,0.00,VWS V14.01,2013-06-03 06:22:00,
2013-06-03 02:23:00,62.9,59.9,29.95,NNE,14,3.0,4.5,90,0.00,,,0.00,VWS V14.01,2013-06-03 06:23:00,
2013-06-03 02:24:00,63.0,60.0,29.95,North,357,3.0,4.5,90,0.00,,,0.00,VWS V14.01,2013-06-03 06:24:00,
2013-06-03 02:25:00,63.0,60.0,29.95,NNW,343,4.5,4.5,90,0.00,,,0.00,VWS V14.01,2013-06-03 06:25:00,
2013-06-03 02:26:00,63.0,60.0,29.95,North,4,7.5,9.0,90,0.00,,,0.00,VWS V14.01,2013-06-03 06:26:00,
2013-06-03 02:27:00,63.0,60.0,29.95,NNE,21,1.5,7.5,90,0.00,,,0.00,VWS V14.01,2013-06-03 06:27:00,
2013-06-03 02:28:00,63.0,60.0,29.95,ENE,59,6.0,6.0,90,0.00,,,0.00,VWS V14.01,2013-06-03 06:28:00,
2013-06-03 02:29:00,63.0,60.0,29.95,NNW,344,1.5,10.5,90,0.00,,,0.00,VWS V14.01,2013-06-03 06:29:00,
2013-06-03 02:30:00,63.0,60.0,29.95,NE,42,10.5,10.5,90,0.00,,,0.00,VWS V14.01,2013-06-03 06:30:00,
2013-06-03 02:31:00,63.1,60.1,29.95,ENE,60,3.0,10.5,90,0.00,,,0.00,VWS V14.01,2013-06-03 06:31:00,
2013-06-03 02:32:00,63.1,60.1,29.95,NNE,31,4.5,6.0,90,0.00,,,0.00,VWS V14.01,2013-06-03 06:32:00,
2013-06-03 02:33:00,63.1,60.1,29.95,North,10,3.0,4.5,90,0.00,,,0.00,VWS V14.01,2013-06-03 06:33:00,
2013-06-03 02:34:00,63.1,60.1,29.95,NE,49,1.5,6.0,90,0.00,,,0.00,VWS V14.01,2013-06-03 06:34:00,
2013-06-03 02:35:00,63.2,60.2,29.95,ENE,68,3.0,3.0,90,0.00,,,0.00,VWS V14.01,2013-06-03 06:35:00,
2013-06-03 02:36:00,63.1,60.1,29.95,NNE,32,3.0,6.0,90,0.00,,,0.00,VWS V14.01,2013-06-03 06:36:00,
2013-06-03 02:37:00,63.1,60.1,29.95,NNW,345,3.0,7.5,90,0.00,,,0.00,VWS V14.01,2013-06-03 06:37:00,
2013-06-03 02:38:00,63.2,60.2,29.95,NNE,24,3.0,3.0,90,0.00,,,0.00,VWS V14.01,2013-06-03 06:38:00,
2013-06-03 02:39:00,63.2,60.2,29.95,NNW,346,4.5,6.0,90,0.00,,,0.00,VWS V14.01,2013-06-03 06:39:00,
2013-06-03 02:40:00,63.2,60.2,29.95,NNE,22,3.0,4.5,90,0.00,,,0.00,VWS V14.01,2013-06-03 06:40:00,
2013-06-03 02:41:00,63.2,60.2,29.95,NW,316,1.5,1.5,90,0.00,,,0.00,VWS V14.01,2013-06-03 06:41:00,
2013-06-03 02:42:00,63.2,60.2,29.95,NW,316,1.5,1.5,90,0.00,,,0.00,VWS V14.01,2013-06-03 06:42:00,
2013-06-03 02:43:00,63.2,60.2,29.95,North,11,1.5,6.0,90,0.00,,,0.00,VWS V14.01,2013-06-03 06:43:00,
2013-06-03 02:44:00,63.2,60.2,29.95,North,349,4.5,9.0,90,0.00,,,0.00,VWS V14.01,2013-06-03 06:44:00,
2013-06-03 02:45:00,63.2,60.2,29.95,NNW,333,6.0,6.0,90,0.00,,,0.00,VWS V14.01,2013-06-03 06:45:00,
2013-06-03 02:46:00,63.2,60.2,29.95,North,2,3.0,7.5,90,0.00,,,0.00,VWS V14.01,2013-06-03 06:46:00,
2013-06-03 02:47:00,63.2,60.2,29.95,North,1,1.5,3.0,90,0.00,,,0.00,VWS V14.01,2013-06-03 06:47:00,
2013-06-03 02:48:00,63.2,60.2,29.95,NNW,346,3.0,4.5,90,0.00,,,0.00,VWS V14.01,2013-06-03 06:48:00,
2013-06-03 02:49:00,63.2,60.2,29.95,NNW,339,3.0,4.5,90,0.00,,,0.00,VWS V14.01,2013-06-03 06:49:00,
2013-06-03 02:50:00,63.2,60.2,29.95,North,10,1.5,6.0,90,0.00,,,0.00,VWS V14.01,2013-06-03 06:50:00,
2013-06-03 02:51:00,63.1,60.1,29.95,NNW,345,1.5,4.5,90,0.00,,,0.00,VWS V14.01,2013-06-03 06:51:00,
2013-06-03 02:52:00,63.1,60.1,29.95,NNW,345,1.5,4.5,90,0.00,,,0.00,VWS V14.01,2013-06-03 06:52:00,
2013-06-03 02:53:00,63.1,60.1,29.95,NNW,345,1.5,3.0,90,0.00,,,0.00,VWS V14.01,2013-06-03 06:53:00,
2013-06-03 02:54:00,63.1,60.1,29.95,North,359,6.0,7.5,90,0.00,,,0.00,VWS V14.01,2013-06-03 06:54:00,
2013-06-03 02:55:00,63.1,60.1,29.95,NNW,333,3.0,6.0,90,0.00,,,0.00,VWS V14.01,2013-06-03 06:55:00,
2013-06-03 02:56:00,63.0,60.0,29.95,NNE,14,4.5,6.0,90,0.00,,,0.00,VWS V14.01,2013-06-03 06:56:00,
2013-06-03 02:57:00,63.0,60.0,29.95,NNE,14,4.5,6.0,90,0.00,,,0.00,VWS V14.01,2013-06-03 06:57:00,
2013-06-03 02:58:00,63.0,60.0,29.95,NNE,14,1.5,4.5,90,0.00,,,0.00,VWS V14.01,2013-06-03 06:58:00,
2013-06-03 02:59:00,63.0,60.0,29.95,NE,52,4.5,6.0,90,0.00,,,0.00,VWS V14.01,2013-06-03 06:59:00,
2013-06-03 03:00:00,62.9,59.9,29.95,NNE,23,4.5,6.0,90,0.00,,,0.00,VWS V14.01,2013-06-03 07:00:00,
2013-06-03 03:01:00,62.9,59.9,29.95,NNE,23,1.5,4.5,90,0.00,,,0.00,VWS V14.01,2013-06-03 07:01:00,
2013-06-03 03:02:00,62.9,59.9,29.95,NNE,23,1.5,1.5,90,0.00,,,0.00,VWS V14.01,2013-06-03 07:02:00,
2013-06-03 03:03:00,62.9,59.9,29.95,NNE,25,1.5,3.0,90,0.00,,,0.00,VWS V14.01,2013-06-03 07:03:00,
2013-06-03 03:04:00,62.8,59.8,29.95,NNE,25,1.5,1.5,90,0.00,,,0.00,VWS V14.01,2013-06-03 07:04:00,
2013-06-03 03:05:00,62.8,59.8,29.95,NE,46,1.5,4.5,90,0.00,,,0.00,VWS V14.01,2013-06-03 07:05:00,
2013-06-03 03:06:00,62.8,59.8,29.95,ENE,66,4.5,4.5,90,0.00,,,0.00,VWS V14.01,2013-06-03 07:06:00,
2013-06-03 03:07:00,62.8,59.8,29.95,NNE,25,6.0,6.0,90,0.00,,,0.00,VWS V14.01,2013-06-03 07:07:00,
2013-06-03 03:08:00,62.8,60.1,29.95,NNE,32,1.5,6.0,91,0.00,,,0.00,VWS V14.01,2013-06-03 07:08:00,
2013-06-03 03:09:00,62.8,60.1,29.95,NE,37,1.5,4.5,91,0.00,,,0.00,VWS V14.01,2013-06-03 07:09:00,
2013-06-03 03:10:00,62.8,60.1,29.95,ENE,58,3.0,3.0,91,0.00,,,0.00,VWS V14.01,2013-06-03 07:10:00,
2013-06-03 03:11:00,62.8,60.1,29.95,NE,49,3.0,4.5,91,0.00,,,0.00,VWS V14.01,2013-06-03 07:11:00,
2013-06-03 03:12:00,62.8,60.1,29.95,North,11,4.5,6.0,91,0.00,,,0.00,VWS V14.01,2013-06-03 07:12:00,
2013-06-03 03:13:00,62.8,60.1,29.95,North,355,1.5,4.5,91,0.00,,,0.00,VWS V14.01,2013-06-03 07:13:00,
2013-06-03 03:14:00,62.8,60.1,29.95,NNE,19,3.0,3.0,91,0.00,,,0.00,VWS V14.01,2013-06-03 07:14:00,
2013-06-03 03:15:00,62.7,60.0,29.95,NNW,333,3.0,3.0,91,0.00,,,0.00,VWS V14.01,2013-06-03 07:15:00,
2013-06-03 03:16:00,62.8,60.1,29.95,NNE,21,3.0,4.5,91,0.00,,,0.00,VWS V14.01,2013-06-03 07:16:00,
2013-06-03 03:17:00,62.7,60.0,29.95,NNE,26,4.5,4.5,91,0.00,,,0.00,VWS V14.01,2013-06-03 07:17:00,
2013-06-03 03:18:00,62.7,60.0,29.95,NE,51,1.5,4.5,91,0.00,,,0.00,VWS V14.01,2013-06-03 07:18:00,
2013-06-03 03:19:00,62.8,60.1,29.95,NNE,14,3.0,4.5,91,0.00,,,0.00,VWS V14.01,2013-06-03 07:19:00,
2013-06-03 03:20:00,62.8,60.1,29.95,ENE,61,6.0,7.5,91,0.00,,,0.00,VWS V14.01,2013-06-03 07:20:00,
2013-06-03 03:21:00,62.8,60.1,29.95,North,11,3.0,6.0,91,0.00,,,0.00,VWS V14.01,2013-06-03 07:21:00,
2013-06-03 03:22:00,62.8,60.1,29.95,NNE,18,9.0,9.0,91,0.00,,,0.00,VWS V14.01,2013-06-03 07:22:00,
2013-06-03 03:23:00,62.8,60.1,29.95,North,349,1.5,9.0,91,0.00,,,0.00,VWS V14.01,2013-06-03 07:23:00,
2013-06-03 03:24:00,62.8,60.1,29.95,NE,56,4.5,4.5,91,0.00,,,0.00,VWS V14.01,2013-06-03 07:24:00,
2013-06-03 03:25:00,62.8,60.1,29.95,NE,35,3.0,4.5,91,0.00,,,0.00,VWS V14.01,2013-06-03 07:25:00,
2013-06-03 03:26:00,62.8,60.1,29.95,NE,35,1.5,4.5,91,0.00,,,0.00,VWS V14.01,2013-06-03 07:26:00,
2013-06-03 03:27:00,62.8,60.1,29.95,NE,44,1.5,1.5,91,0.00,,,0.00,VWS V14.01,2013-06-03 07:27:00,
2013-06-03 03:28:00,62.8,60.1,29.95,NNW,343,4.5,4.5,91,0.00,,,0.00,VWS V14.01,2013-06-03 07:28:00,
2013-06-03 03:29:00,62.8,60.1,29.95,NNW,343,3.0,4.5,91,0.00,,,0.00,VWS V14.01,2013-06-03 07:29:00,
2013-06-03 03:30:00,62.8,60.1,29.95,NNW,342,1.5,3.0,91,0.00,,,0.00,VWS V14.01,2013-06-03 07:30:00,
2013-06-03 03:31:00,62.8,60.1,29.95,NNW,343,1.5,1.5,91,0.00,,,0.00,VWS V14.01,2013-06-03 07:31:00,
2013-06-03 03:32:00,62.8,60.1,29.95,NNW,342,1.5,1.5,91,0.00,,,0.00,VWS V14.01,2013-06-03 07:32:00,
2013-06-03 03:33:00,62.8,60.1,29.95,NNW,342,1.5,1.5,91,0.00,,,0.00,VWS V14.01,2013-06-03 07:33:00,
2013-06-03 03:34:00,62.7,60.0,29.95,NNW,337,1.5,3.0,91,0.00,,,0.00,VWS V14.01,2013-06-03 07:34:00,
2013-06-03 03:35:00,62.7,60.0,29.95,NNE,32,1.5,3.0,91,0.00,,,0.00,VWS V14.01,2013-06-03 07:35:00,
2013-06-03 03:36:00,62.7,60.0,29.95,NNW,347,1.5,3.0,91,0.00,,,0.00,VWS V14.01,2013-06-03 07:36:00,
2013-06-03 03:37:00,62.7,60.0,29.95,NE,44,4.5,6.0,91,0.00,,,0.00,VWS V14.01,2013-06-03 07:37:00,
2013-06-03 03:38:00,62.7,60.0,29.95,NE,35,3.0,6.0,91,0.00,,,0.00,VWS V14.01,2013-06-03 07:38:00,
2013-06-03 03:39:00,62.6,59.9,29.95,NE,34,1.5,4.5,91,0.00,,,0.00,VWS V14.01,2013-06-03 07:39:00,
2013-06-03 03:40:00,62.6,59.9,29.95,WNW,302,1.5,6.0,91,0.00,,,0.00,VWS V14.01,2013-06-03 07:40:00,
2013-06-03 03:41:00,62.6,59.9,29.95,WNW,303,1.5,1.5,91,0.00,,,0.00,VWS V14.01,2013-06-03 07:41:00,
2013-06-03 03:42:00,62.6,59.9,29.96,North,10,4.5,4.5,91,0.00,,,0.00,VWS V14.01,2013-06-03 07:42:00,
2013-06-03 03:43:00,62.5,59.8,29.95,ENE,62,1.5,4.5,91,0.00,,,0.00,VWS V14.01,2013-06-03 07:43:00,
2013-06-03 03:44:00,62.5,59.8,29.95,NW,323,3.0,4.5,91,0.00,,,0.00,VWS V14.01,2013-06-03 07:44:00,
2013-06-03 03:45:00,62.5,59.8,29.95,NNE,30,1.5,3.0,91,0.00,,,0.00,VWS V14.01,2013-06-03 07:45:00,
2013-06-03 03:46:00,62.5,59.8,29.95,North,359,1.5,3.0,91,0.00,,,0.00,VWS V14.01,2013-06-03 07:46:00,
2013-06-03 03:47:00,62.4,59.7,29.95,North,359,1.5,1.5,91,0.00,,,0.00,VWS V14.01,2013-06-03 07:47:00,
2013-06-03 03:48:00,62.4,59.7,29.95,North,359,1.5,3.0,91,0.00,,,0.00,VWS V14.01,2013-06-03 07:48:00,
2013-06-03 03:49:00,62.4,59.7,29.95,North,359,3.0,3.0,91,0.00,,,0.00,VWS V14.01,2013-06-03 07:49:00,
2013-06-03 03:50:00,62.4,59.7,29.95,NNW,333,3.0,4.5,91,0.00,,,0.00,VWS V14.01,2013-06-03 07:50:00,
2013-06-03 03:51:00,62.3,59.6,29.95,NE,44,4.5,4.5,91,0.00,,,0.00,VWS V14.01,2013-06-03 07:51:00,
2013-06-03 03:52:00,62.3,59.6,29.95,NE,44,1.5,1.5,91,0.00,,,0.00,VWS V14.01,2013-06-03 07:52:00,
2013-06-03 03:53:00,62.3,59.6,29.95,NE,43,1.5,1.5,91,0.00,,,0.00,VWS V14.01,2013-06-03 07:53:00,
2013-06-03 03:54:00,62.2,59.5,29.95,NE,44,1.5,1.5,91,0.00,,,0.00,VWS V14.01,2013-06-03 07:54:00,
2013-06-03 03:55:00,62.2,59.5,29.95,NE,44,1.5,3.0,91,0.00,,,0.00,VWS V14.01,2013-06-03 07:55:00,
2013-06-03 03:56:00,62.2,59.8,29.95,NNW,329,4.5,4.5,92,0.00,,,0.00,VWS V14.01,2013-06-03 07:56:00,
2013-06-03 03:57:00,62.2,59.8,29.95,North,10,1.5,1.5,92,0.00,,,0.00,VWS V14.01,2013-06-03 07:57:00,
2013-06-03 03:58:00,62.2,59.8,29.95,North,352,4.5,6.0,92,0.00,,,0.00,VWS V14.01,2013-06-03 07:58:00,
2013-06-03 03:59:00,62.2,59.8,29.95,NW,310,3.0,4.5,92,0.00,,,0.00,VWS V14.01,2013-06-03 07:59:00,
2013-06-03 04:00:00,62.2,59.8,29.96,NW,316,1.5,4.5,92,0.00,,,0.00,VWS V14.01,2013-06-03 08:00:00,
2013-06-03 04:01:00,62.2,59.8,29.95,NW,315,1.5,3.0,92,0.00,,,0.00,VWS V14.01,2013-06-03 08:01:00,
2013-06-03 04:02:00,62.2,59.5,29.95,NNE,18,1.5,1.5,91,0.00,,,0.00,VWS V14.01,2013-06-03 08:02:00,
2013-06-03 04:03:00,62.2,59.5,29.95,NW,315,3.0,4.5,91,0.00,,,0.00,VWS V14.01,2013-06-03 08:03:00,
2013-06-03 04:04:00,62.1,59.5,29.95,North,356,3.0,4.5,91,0.00,,,0.00,VWS V14.01,2013-06-03 08:04:00,
2013-06-03 04:05:00,62.1,59.5,29.96,NW,326,3.0,6.0,91,0.00,,,0.00,VWS V14.01,2013-06-03 08:05:00,
2013-06-03 04:06:00,62.1,59.5,29.95,NW,321,4.5,12.0,91,0.00,,,0.00,VWS V14.01,2013-06-03 08:06:00,
2013-06-03 04:07:00,62.1,59.5,29.96,NW,326,3.0,12.0,91,0.00,,,0.00,VWS V14.01,2013-06-03 08:07:00,
2013-06-03 04:08:00,62.1,59.5,29.96,NNE,32,1.5,7.5,91,0.00,,,0.00,VWS V14.01,2013-06-03 08:08:00,
2013-06-03 04:09:00,62.1,59.5,29.95,NW,305,3.0,6.0,91,0.00,,,0.00,VWS V14.01,2013-06-03 08:09:00,
2013-06-03 04:10:00,62.1,59.5,29.96,NNW,344,1.5,3.0,91,0.00,,,0.00,VWS V14.01,2013-06-03 08:10:00,
2013-06-03 04:11:00,62.2,59.5,29.96,NNE,17,3.0,4.5,91,0.00,,,0.00,VWS V14.01,2013-06-03 08:11:00,
2013-06-03 04:12:00,62.2,59.5,29.96,NW,319,4.5,6.0,91,0.00,,,0.00,VWS V14.01,2013-06-03 08:12:00,
2013-06-03 04:13:00,62.2,59.5,29.96,North,360,1.5,4.5,91,0.00,,,0.00,VWS V14.01,2013-06-03 08:13:00,
2013-06-03 04:14:00,62.2,59.5,29.96,North,359,1.5,1.5,91,0.00,,,0.00,VWS V14.01,2013-06-03 08:14:00,
2013-06-03 04:15:00,62.2,59.5,29.96,North,359,1.5,1.5,91,0.00,,,0.00,VWS V14.01,2013-06-03 08:15:00,
2013-06-03 04:16:00,62.1,59.5,29.96,NW,321,1.5,4.5,91,0.00,,,0.00,VWS V14.01,2013-06-03 08:16:00,
2013-06-03 04:17:00,62.1,59.5,29.96,North,360,3.0,3.0,91,0.00,,,0.00,VWS V14.01,2013-06-03 08:17:00,
2013-06-03 04:18:00,62.1,59.5,29.96,NNE,14,3.0,4.5,91,0.00,,,0.00,VWS V14.01,2013-06-03 08:18:00,
2013-06-03 04:19:00,62.2,59.5,29.96,ENE,61,3.0,6.0,91,0.00,,,0.00,VWS V14.01,2013-06-03 08:19:00,
2013-06-03 04:20:00,62.2,59.5,29.96,ENE,61,1.5,3.0,91,0.00,,,0.00,VWS V14.01,2013-06-03 08:20:00,
2013-06-03 04:21:00,62.2,59.5,29.96,NNE,30,4.5,4.5,91,0.00,,,0.00,VWS V14.01,2013-06-03 08:21:00,
2013-06-03 04:22:00,62.2,59.5,29.96,ENE,64,6.0,6.0,91,0.00,,,0.00,VWS V14.01,2013-06-03 08:22:00,
2013-06-03 04:23:00,62.2,59.5,29.96,NNE,14,1.5,6.0,91,0.00,,,0.00,VWS V14.01,2013-06-03 08:23:00,
2013-06-03 04:24:00,62.2,59.5,29.96,NNE,21,1.5,1.5,91,0.00,,,0.00,VWS V14.01,2013-06-03 08:24:00,
2013-06-03 04:25:00,62.2,59.5,29.96,NNE,17,6.0,6.0,91,0.00,,,0.00,VWS V14.01,2013-06-03 08:25:00,
2013-06-03 04:26:00,62.2,59.2,29.96,North,7,6.0,9.0,90,0.00,,,0.00,VWS V14.01,2013-06-03 08:26:00,
2013-06-03 04:27:00,62.2,59.2,29.96,ENE,62,3.0,4.5,90,0.00,,,0.00,VWS V14.01,2013-06-03 08:27:00,
2013-06-03 04:28:00,62.3,59.3,29.96,NNE,32,3.0,4.5,90,0.00,,,0.00,VWS V14.01,2013-06-03 08:28:00,
2013-06-03 04:29:00,62.3,59.3,29.96,North,356,6.0,7.5,90,0.00,,,0.00,VWS V14.01,2013-06-03 08:29:00,
2013-06-03 04:30:00,62.3,59.3,29.96,North,5,1.5,6.0,90,0.00,,,0.00,VWS V14.01,2013-06-03 08:30:00,
2013-06-03 04:31:00,62.3,59.3,29.96,ENE,68,3.0,10.5,90,0.00,,,0.00,VWS V14.01,2013-06-03 08:31:00,
2013-06-03 04:32:00,62.3,59.3,29.96,NE,44,3.0,4.5,90,0.00,,,0.00,VWS V14.01,2013-06-03 08:32:00,
2013-06-03 04:33:00,62.3,59.3,29.96,ENE,66,1.5,3.0,90,0.00,,,0.00,VWS V14.01,2013-06-03 08:33:00,
2013-06-03 04:34:00,62.3,59.3,29.96,NNE,21,4.5,6.0,90,0.00,,,0.00,VWS V14.01,2013-06-03 08:34:00,
2013-06-03 04:35:00,62.3,59.3,29.96,NNE,26,1.5,6.0,90,0.00,,,0.00,VWS V14.01,2013-06-03 08:35:00,
2013-06-03 04:36:00,62.3,59.3,29.96,ENE,73,3.0,6.0,90,0.00,,,0.00,VWS V14.01,2013-06-03 08:36:00,
2013-06-03 04:37:00,62.3,59.3,29.96,NNW,338,6.0,7.5,90,0.00,,,0.00,VWS V14.01,2013-06-03 08:37:00,
2013-06-03 04:38:00,62.3,59.3,29.96,NE,49,4.5,7.5,90,0.00,,,0.00,VWS V14.01,2013-06-03 08:38:00,
2013-06-03 04:39:00,62.3,59.3,29.96,NE,56,3.0,6.0,90,0.00,,,0.00,VWS V14.01,2013-06-03 08:39:00,
2013-06-03 04:40:00,62.3,59.3,29.96,NE,55,4.5,4.5,90,0.00,,,0.00,VWS V14.01,2013-06-03 08:40:00,
2013-06-03 04:41:00,62.3,59.3,29.96,North,1,3.0,6.0,90,0.00,,,0.00,VWS V14.01,2013-06-03 08:41:00,
2013-06-03 04:42:00,62.3,59.3,29.96,NNE,25,4.5,4.5,90,0.00,,,0.00,VWS V14.01,2013-06-03 08:42:00,
2013-06-03 04:43:00,62.4,59.4,29.96,NW,319,6.0,6.0,90,0.00,,,0.00,VWS V14.01,2013-06-03 08:43:00,
2013-06-03 04:44:00,62.3,59.0,29.96,ENE,73,1.5,7.5,89,0.00,,,0.00,VWS V14.01,2013-06-03 08:44:00,
2013-06-03 04:45:00,62.4,59.1,29.96,North,10,4.5,9.0,89,0.00,,,0.00,VWS V14.01,2013-06-03 08:45:00,
2013-06-03 04:46:00,62.4,59.1,29.96,NE,35,1.5,4.5,89,0.00,,,0.00,VWS V14.01,2013-06-03 08:46:00,
2013-06-03 04:47:00,62.4,59.1,29.96,NNE,21,1.5,4.5,89,0.00,,,0.00,VWS V14.01,2013-06-03 08:47:00,
2013-06-03 04:48:00,62.4,59.1,29.96,NNE,30,1.5,3.0,89,0.00,,,0.00,VWS V14.01,2013-06-03 08:48:00,
2013-06-03 04:49:00,62.3,59.0,29.96,NNE,30,1.5,3.0,89,0.00,,,0.00,VWS V14.01,2013-06-03 08:49:00,
2013-06-03 04:50:00,62.3,59.0,29.96,NNE,26,3.0,4.5,89,0.00,,,0.00,VWS V14.01,2013-06-03 08:50:00,
2013-06-03 04:51:00,62.3,59.0,29.96,North,4,3.0,4.5,89,0.00,,,0.00,VWS V14.01,2013-06-03 08:51:00,
2013-06-03 04:52:00,62.3,59.0,29.96,NNE,25,4.5,4.5,89,0.00,,,0.00,VWS V14.01,2013-06-03 08:52:00,
2013-06-03 04:53:00,62.3,59.0,29.96,NNW,346,7.5,9.0,89,0.00,,,0.00,VWS V14.01,2013-06-03 08:53:00,
2013-06-03 04:54:00,62.3,59.0,29.96,NNE,28,1.5,7.5,89,0.00,,,0.00,VWS V14.01,2013-06-03 08:54:00,
2013-06-03 04:55:00,62.3,59.0,29.96,NE,41,4.5,4.5,89,0.00,,,0.00,VWS V14.01,2013-06-03 08:55:00,
2013-06-03 04:56:00,62.4,59.1,29.96,NNE,16,6.0,6.0,89,0.00,,,0.00,VWS V14.01,2013-06-03 08:56:00,
2013-06-03 04:57:00,62.4,59.1,29.96,NE,44,3.0,7.5,89,0.00,,,0.00,VWS V14.01,2013-06-03 08:57:00,
2013-06-03 04:58:00,62.4,59.1,29.96,NE,51,3.0,6.0,89,0.00,,,0.00,VWS V14.01,2013-06-03 08:58:00,
2013-06-03 04:59:00,62.4,59.1,29.96,NNE,33,6.0,6.0,89,0.00,,,0.00,VWS V14.01,2013-06-03 08:59:00,
2013-06-03 05:00:00,62.4,59.1,29.96,NE,41,7.5,7.5,89,0.00,,,0.00,VWS V14.01,2013-06-03 09:00:00,
2013-06-03 05:01:00,62.4,59.1,29.96,NNE,14,4.5,9.0,89,0.00,,,0.00,VWS V14.01,2013-06-03 09:01:00,
2013-06-03 05:02:00,62.4,59.1,29.96,NNE,26,4.5,6.0,89,0.00,,,0.00,VWS V14.01,2013-06-03 09:02:00,
2013-06-03 05:03:00,62.4,59.1,29.96,East,86,3.0,4.5,89,0.00,,,0.00,VWS V14.01,2013-06-03 09:03:00,
2013-06-03 05:04:00,62.4,59.1,29.96,NE,45,3.0,6.0,89,0.00,,,0.00,VWS V14.01,2013-06-03 09:04:00,
2013-06-03 05:05:00,62.4,59.1,29.96,East,87,4.5,6.0,89,0.00,,,0.00,VWS V14.01,2013-06-03 09:05:00,
2013-06-03 05:06:00,62.4,58.8,29.96,North,352,4.5,6.0,88,0.00,,,0.00,VWS V14.01,2013-06-03 09:06:00,
2013-06-03 05:07:00,62.4,59.1,29.96,ENE,58,4.5,6.0,89,0.00,,,0.00,VWS V14.01,2013-06-03 09:07:00,
2013-06-03 05:08:00,62.4,58.8,29.96,NE,42,1.5,7.5,88,0.00,,,0.00,VWS V14.01,2013-06-03 09:08:00,
2013-06-03 05:09:00,62.4,58.8,29.96,NNE,21,4.5,7.5,88,0.00,,,0.00,VWS V14.01,2013-06-03 09:09:00,
2013-06-03 05:10:00,62.4,58.8,29.96,NNE,24,6.0,6.0,88,0.00,,,0.00,VWS V14.01,2013-06-03 09:10:00,
2013-06-03 05:11:00,62.4,59.1,29.96,NE,37,4.5,6.0,89,0.00,,,0.00,VWS V14.01,2013-06-03 09:11:00,
2013-06-03 05:12:00,62.4,59.1,29.96,NNE,17,4.5,6.0,89,0.00,,,0.00,VWS V14.01,2013-06-03 09:12:00,
2013-06-03 05:13:00,62.4,58.8,29.96,NE,44,3.0,7.5,88,0.00,,,0.00,VWS V14.01,2013-06-03 09:13:00,
2013-06-03 05:14:00,62.4,58.8,29.96,NE,44,4.5,4.5,88,0.00,,,0.00,VWS V14.01,2013-06-03 09:14:00,
2013-06-03 05:15:00,62.4,58.8,29.96,NNE,18,6.0,9.0,88,0.00,,,0.00,VWS V14.01,2013-06-03 09:15:00,
2013-06-03 05:16:00,62.4,58.8,29.96,NNE,14,9.0,9.0,88,0.00,,,0.00,VWS V14.01,2013-06-03 09:16:00,
2013-06-03 05:17:00,62.4,58.8,29.96,NNE,14,4.5,10.5,88,0.00,,,0.00,VWS V14.01,2013-06-03 09:17:00,
2013-06-03 05:18:00,62.4,58.8,29.96,ENE,70,4.5,7.5,88,0.00,,,0.00,VWS V14.01,2013-06-03 09:18:00,
2013-06-03 05:19:00,62.4,58.8,29.96,NNE,32,6.0,7.5,88,0.00,,,0.00,VWS V14.01,2013-06-03 09:19:00,
2013-06-03 05:20:00,62.3,58.7,29.96,NE,51,7.5,9.0,88,0.00,,,0.00,VWS V14.01,2013-06-03 09:20:00,
2013-06-03 05:21:00,62.4,58.8,29.96,NE,47,4.5,9.0,88,0.00,,,0.00,VWS V14.01,2013-06-03 09:21:00,
2013-06-03 05:22:00,62.4,58.8,29.96,North,357,4.5,4.5,88,0.00,,,0.00,VWS V14.01,2013-06-03 09:22:00,
2013-06-03 05:23:00,62.4,58.8,29.96,NNE,32,3.0,4.5,88,0.00,,,0.00,VWS V14.01,2013-06-03 09:23:00,
2013-06-03 05:24:00,62.4,58.8,29.96,ENE,63,3.0,6.0,88,0.00,,,0.00,VWS V14.01,2013-06-03 09:24:00,
2013-06-03 05:25:00,62.4,58.8,29.96,ENE,63,6.0,9.0,88,0.00,,,0.00,VWS V14.01,2013-06-03 09:25:00,
2013-06-03 05:26:00,62.4,58.8,29.96,North,11,6.0,10.5,88,0.00,,,0.00,VWS V14.01,2013-06-03 09:26:00,
2013-06-03 05:27:00,62.4,58.8,29.96,NNE,32,6.0,6.0,88,0.00,,,0.00,VWS V14.01,2013-06-03 09:27:00,
2013-06-03 05:28:00,62.4,58.8,29.96,NNE,17,3.0,6.0,88,0.00,,,0.00,VWS V14.01,2013-06-03 09:28:00,
2013-06-03 05:29:00,62.4,58.8,29.96,NNE,31,7.5,7.5,88,0.00,,,0.00,VWS V14.01,2013-06-03 09:29:00,
2013-06-03 05:30:00,62.4,58.8,29.96,NW,326,3.0,7.5,88,0.00,,,0.00,VWS V14.01,2013-06-03 09:30:00,
2013-06-03 05:31:00,62.4,58.8,29.96,NNE,30,6.0,7.5,88,0.00,,,0.00,VWS V14.01,2013-06-03 09:31:00,
2013-06-03 05:32:00,62.4,58.8,29.96,North,8,3.0,3.0,88,0.00,,,0.00,VWS V14.01,2013-06-03 09:32:00,
2013-06-03 05:33:00,62.4,58.8,29.96,ENE,58,4.5,4.5,88,0.00,,,0.00,VWS V14.01,2013-06-03 09:33:00,
2013-06-03 05:34:00,62.4,58.8,29.96,NW,318,3.0,4.5,88,0.00,,,0.00,VWS V14.01,2013-06-03 09:34:00,
2013-06-03 05:35:00,62.3,58.7,29.97,ENE,58,4.5,4.5,88,0.00,,,0.00,VWS V14.01,2013-06-03 09:35:00,
2013-06-03 05:36:00,62.3,58.7,29.97,North,349,7.5,10.5,88,0.00,,,0.00,VWS V14.01,2013-06-03 09:36:00,
2013-06-03 05:37:00,62.3,58.7,29.97,NW,321,3.0,3.0,88,0.00,,,0.00,VWS V14.01,2013-06-03 09:37:00,
2013-06-03 05:38:00,62.3,58.7,29.97,North,3,1.5,3.0,88,0.00,,,0.00,VWS V14.01,2013-06-03 09:38:00,
2013-06-03 05:39:00,62.3,58.7,29.97,North,9,4.5,4.5,88,0.00,,,0.00,VWS V14.01,2013-06-03 09:39:00,
2013-06-03 05:40:00,62.3,58.7,29.97,ENE,77,3.0,4.5,88,0.00,,,0.00,VWS V14.01,2013-06-03 09:40:00,
2013-06-03 05:41:00,62.3,58.7,29.97,NNW,337,6.0,7.5,88,0.00,,,0.00,VWS V14.01,2013-06-03 09:41:00,
2013-06-03 05:42:00,62.3,58.7,29.97,NE,47,4.5,6.0,88,0.00,,,0.00,VWS V14.01,2013-06-03 09:42:00,
2013-06-03 05:43:00,62.3,58.7,29.97,North,352,3.0,4.5,88,0.00,,,0.00,VWS V14.01,2013-06-03 09:43:00,
2013-06-03 05:44:00,62.3,58.7,29.97,NW,306,1.5,4.5,88,0.00,,,0.00,VWS V14.01,2013-06-03 09:44:00,
2013-06-03 05:45:00,62.3,58.7,29.97,NE,56,4.5,6.0,88,0.00,,,0.00,VWS V14.01,2013-06-03 09:45:00,
2013-06-03 05:46:00,62.2,58.3,29.97,NE,35,6.0,9.0,87,0.00,,,0.00,VWS V14.01,2013-06-03 09:46:00,
2013-06-03 05:47:00,62.2,58.3,29.97,NE,46,6.0,9.0,87,0.00,,,0.00,VWS V14.01,2013-06-03 09:47:00,
2013-06-03 05:48:00,62.2,58.3,29.97,NE,40,4.5,7.5,87,0.00,,,0.00,VWS V14.01,2013-06-03 09:48:00,
2013-06-03 05:49:00,62.3,58.4,29.97,ENE,70,3.0,4.5,87,0.00,,,0.00,VWS V14.01,2013-06-03 09:49:00,
2013-06-03 05:50:00,62.3,58.4,29.97,NE,47,4.5,4.5,87,0.00,,,0.00,VWS V14.01,2013-06-03 09:50:00,
2013-06-03 05:51:00,62.3,58.4,29.97,North,356,3.0,7.5,87,0.00,,,0.00,VWS V14.01,2013-06-03 09:51:00,
2013-06-03 05:52:00,62.3,58.4,29.97,North,356,3.0,7.5,87,0.00,,,0.00,VWS V14.01,2013-06-03 09:52:00,
2013-06-03 05:53:00,62.2,58.3,29.97,NNE,33,3.0,4.5,87,0.00,,,0.00,VWS V14.01,2013-06-03 09:53:00,
2013-06-03 05:54:00,62.2,58.3,29.97,North,4,6.0,7.5,87,0.00,,,0.00,VWS V14.01,2013-06-03 09:54:00,
2013-06-03 05:55:00,62.2,58.3,29.97,NNE,23,4.5,6.0,87,0.00,,,0.00,VWS V14.01,2013-06-03 09:55:00,
2013-06-03 05:56:00,62.2,58.3,29.97,NNE,31,7.5,7.5,87,0.00,,,0.00,VWS V14.01,2013-06-03 09:56:00,
2013-06-03 05:57:00,62.2,58.3,29.97,NNE,31,7.5,7.5,87,0.00,,,0.00,VWS V14.01,2013-06-03 09:57:00,
2013-06-03 05:58:00,62.2,58.3,29.97,NNE,18,4.5,7.5,87,0.00,,,0.00,VWS V14.01,2013-06-03 09:58:00,
2013-06-03 05:59:00,62.2,58.6,29.97,North,10,1.5,4.5,88,0.00,,,0.00,VWS V14.01,2013-06-03 09:59:00,
2013-06-03 06:00:00,62.2,58.3,29.97,NNE,24,4.5,4.5,87,0.00,,,0.00,VWS V14.01,2013-06-03 10:00:00,
2013-06-03 06:01:00,62.2,58.3,29.97,NE,56,3.0,6.0,87,0.00,,,0.00,VWS V14.01,2013-06-03 10:01:00,
2013-06-03 06:02:00,62.1,58.2,29.97,NNE,32,4.5,6.0,87,0.00,,,0.00,VWS V14.01,2013-06-03 10:02:00,
2013-06-03 06:03:00,62.1,58.2,29.97,NNW,345,4.5,4.5,87,0.00,,,0.00,VWS V14.01,2013-06-03 10:03:00,
2013-06-03 06:04:00,62.1,58.2,29.97,NNE,30,6.0,7.5,87,0.00,,,0.00,VWS V14.01,2013-06-03 10:04:00,
2013-06-03 06:05:00,62.0,58.1,29.97,NNE,25,6.0,9.0,87,0.00,,,0.00,VWS V14.01,2013-06-03 10:05:00,
2013-06-03 06:06:00,62.0,58.1,29.97,North,1,3.0,6.0,87,0.00,,,0.00,VWS V14.01,2013-06-03 10:06:00,
2013-06-03 06:07:00,62.0,58.1,29.97,North,1,3.0,6.0,87,0.00,,,0.00,VWS V14.01,2013-06-03 10:07:00,
2013-06-03 06:08:00,62.0,58.1,29.97,NNE,27,6.0,9.0,87,0.00,,,0.00,VWS V14.01,2013-06-03 10:08:00,
2013-06-03 06:09:00,62.0,58.1,29.97,NE,44,6.0,9.0,87,0.00,,,0.00,VWS V14.01,2013-06-03 10:09:00,
2013-06-03 06:10:00,62.0,58.1,29.98,NE,49,9.0,9.0,87,0.00,,,0.00,VWS V14.01,2013-06-03 10:10:00,
2013-06-03 06:11:00,62.0,58.1,29.98,North,360,6.0,7.5,87,0.00,,,0.00,VWS V14.01,2013-06-03 10:11:00,
2013-06-03 06:12:00,62.0,58.1,29.98,North,360,6.0,7.5,87,0.00,,,0.00,VWS V14.01,2013-06-03 10:12:00,
2013-06-03 06:13:00,62.0,58.1,29.97,North,359,1.5,6.0,87,0.00,,,0.00,VWS V14.01,2013-06-03 10:13:00,
2013-06-03 06:14:00,62.0,58.1,29.97,NNE,21,3.0,4.5,87,0.00,,,0.00,VWS V14.01,2013-06-03 10:14:00,
2013-06-03 06:15:00,62.0,58.1,29.97,NE,35,3.0,6.0,87,0.00,,,0.00,VWS V14.01,2013-06-03 10:15:00,
2013-06-03 06:16:00,62.0,58.1,29.97,NE,53,3.0,4.5,87,0.00,,,0.00,VWS V14.01,2013-06-03 10:16:00,
2013-06-03 06:17:00,62.0,58.1,29.97,East,84,3.0,4.5,87,0.00,,,0.00,VWS V14.01,2013-06-03 10:17:00,
2013-06-03 06:18:00,62.0,58.1,29.97,North,352,3.0,6.0,87,0.00,,,0.00,VWS V14.01,2013-06-03 10:18:00,
2013-06-03 06:19:00,61.9,58.0,29.98,NNE,21,1.5,6.0,87,0.00,,,0.00,VWS V14.01,2013-06-03 10:19:00,
2013-06-03 06:20:00,61.9,58.0,29.98,NE,35,4.5,4.5,87,0.00,,,0.00,VWS V14.01,2013-06-03 10:20:00,
2013-06-03 06:21:00,61.9,58.0,29.98,East,87,3.0,7.5,87,0.00,,,0.00,VWS V14.01,2013-06-03 10:21:00,
2013-06-03 06:22:00,61.9,58.0,29.98,East,87,3.0,7.5,87,0.00,,,0.00,VWS V14.01,2013-06-03 10:22:00,
2013-06-03 06:23:00,61.9,58.0,29.98,North,4,7.5,7.5,87,0.00,,,0.00,VWS V14.01,2013-06-03 10:23:00,
2013-06-03 06:24:00,61.9,58.0,29.98,NNE,24,4.5,7.5,87,0.00,,,0.00,VWS V14.01,2013-06-03 10:24:00,
2013-06-03 06:25:00,61.8,57.9,29.98,NNE,27,4.5,4.5,87,0.00,,,0.00,VWS V14.01,2013-06-03 10:25:00,
2013-06-03 06:26:00,61.8,57.9,29.98,NNW,339,3.0,6.0,87,0.00,,,0.00,VWS V14.01,2013-06-03 10:26:00,
2013-06-03 06:27:00,61.8,57.9,29.98,NNW,339,3.0,6.0,87,0.00,,,0.00,VWS V14.01,2013-06-03 10:27:00,
2013-06-03 06:28:00,61.8,57.9,29.98,North,357,3.0,3.0,87,0.00,,,0.00,VWS V14.01,2013-06-03 10:28:00,
2013-06-03 06:29:00,61.8,58.2,29.98,ENE,75,4.5,4.5,88,0.00,,,0.00,VWS V14.01,2013-06-03 10:29:00,
2013-06-03 06:30:00,61.8,58.2,29.98,NE,51,3.0,4.5,88,0.00,,,0.00,VWS V14.01,2013-06-03 10:30:00,
2013-06-03 06:31:00,61.8,58.2,29.98,North,357,3.0,4.5,88,0.00,,,0.00,VWS V14.01,2013-06-03 10:31:00,
2013-06-03 06:32:00,61.8,58.2,29.98,North,357,3.0,4.5,88,0.00,,,0.00,VWS V14.01,2013-06-03 10:32:00,
2013-06-03 06:33:00,61.7,58.1,29.98,North,357,1.5,3.0,88,0.00,,,0.00,VWS V14.01,2013-06-03 10:33:00,
2013-06-03 06:34:00,61.7,58.1,29.98,NE,42,4.5,6.0,88,0.00,,,0.00,VWS V14.01,2013-06-03 10:34:00,
2013-06-03 06:35:00,61.7,58.1,29.98,NNE,24,6.0,7.5,88,0.00,,,0.00,VWS V14.01,2013-06-03 10:35:00,
2013-06-03 06:36:00,61.7,57.8,29.98,North,359,7.5,9.0,87,0.00,,,0.00,VWS V14.01,2013-06-03 10:36:00,
2013-06-03 06:37:00,61.7,57.8,29.98,North,359,7.5,9.0,87,0.00,,,0.00,VWS V14.01,2013-06-03 10:37:00,
2013-06-03 06:38:00,61.7,57.8,29.98,ENE,59,7.5,9.0,87,0.00,,,0.00,VWS V14.01,2013-06-03 10:38:00,
2013-06-03 06:39:00,61.7,57.8,29.98,North,9,4.5,7.5,87,0.00,,,0.00,VWS V14.01,2013-06-03 10:39:00,
2013-06-03 06:40:00,61.7,57.8,29.98,NNE,24,4.5,4.5,87,0.00,,,0.00,VWS V14.01,2013-06-03 10:40:00,
2013-06-03 06:41:00,61.7,57.8,29.98,North,10,4.5,6.0,87,0.00,,,0.00,VWS V14.01,2013-06-03 10:41:00,
2013-06-03 06:42:00,61.7,57.8,29.98,North,10,4.5,6.0,87,0.00,,,0.00,VWS V14.01,2013-06-03 10:42:00,
2013-06-03 06:43:00,61.7,57.8,29.98,ENE,63,4.5,7.5,87,0.00,,,0.00,VWS V14.01,2013-06-03 10:43:00,
2013-06-03 06:44:00,61.7,57.8,29.98,NE,44,4.5,7.5,87,0.00,,,0.00,VWS V14.01,2013-06-03 10:44:00,
2013-06-03 06:45:00,61.7,57.8,29.98,NE,44,1.5,4.5,87,0.00,,,0.00,VWS V14.01,2013-06-03 10:45:00,
2013-06-03 06:46:00,61.7,57.8,29.98,ENE,66,6.0,7.5,87,0.00,,,0.00,VWS V14.01,2013-06-03 10:46:00,
2013-06-03 06:47:00,61.7,57.8,29.98,ENE,66,6.0,7.5,87,0.00,,,0.00,VWS V14.01,2013-06-03 10:47:00,
2013-06-03 06:48:00,61.7,57.8,29.98,North,358,9.0,10.5,87,0.00,,,0.00,VWS V14.01,2013-06-03 10:48:00,
2013-06-03 06:49:00,61.7,57.8,29.98,NE,51,7.5,10.5,87,0.00,,,0.00,VWS V14.01,2013-06-03 10:49:00,
2013-06-03 06:50:00,61.7,57.8,29.98,NE,56,4.5,9.0,87,0.00,,,0.00,VWS V14.01,2013-06-03 10:50:00,
2013-06-03 06:51:00,61.7,57.8,29.98,NNE,32,7.5,7.5,87,0.00,,,0.00,VWS V14.01,2013-06-03 10:51:00,
2013-06-03 06:52:00,61.7,57.8,29.98,NE,34,9.0,9.0,87,0.00,,,0.00,VWS V14.01,2013-06-03 10:52:00,
2013-06-03 06:53:00,61.7,57.8,29.98,NE,47,7.5,9.0,87,0.00,,,0.00,VWS V14.01,2013-06-03 10:53:00,
2013-06-03 06:54:00,61.7,57.8,29.98,NNE,16,4.5,7.5,87,0.00,,,0.00,VWS V14.01,2013-06-03 10:54:00,
2013-06-03 06:55:00,61.7,57.8,29.98,NNE,18,7.5,7.5,87,0.00,,,0.00,VWS V14.01,2013-06-03 10:55:00,
2013-06-03 06:56:00,61.7,57.8,29.98,East,96,6.0,9.0,87,0.00,,,0.00,VWS V14.01,2013-06-03 10:56:00,
2013-06-03 06:57:00,61.7,57.8,29.98,NE,40,4.5,9.0,87,0.00,,,0.00,VWS V14.01,2013-06-03 10:57:00,
2013-06-03 06:58:00,61.7,57.8,29.98,NNW,331,6.0,9.0,87,0.00,,,0.00,VWS V14.01,2013-06-03 10:58:00,
2013-06-03 06:59:00,61.7,57.8,29.98,NE,44,4.5,7.5,87,0.00,,,0.00,VWS V14.01,2013-06-03 10:59:00,
2013-06-03 07:00:00,61.7,57.8,29.98,ENE,58,3.0,10.5,87,0.00,,,0.00,VWS V14.01,2013-06-03 11:00:00,
2013-06-03 07:01:00,61.7,57.8,29.98,NE,47,3.0,6.0,87,0.00,,,0.00,VWS V14.01,2013-06-03 11:01:00,
2013-06-03 07:02:00,61.7,57.8,29.98,NE,52,4.5,6.0,87,0.00,,,0.00,VWS V14.01,2013-06-03 11:02:00,
2013-06-03 07:03:00,61.6,57.7,29.98,NNE,29,3.0,4.5,87,0.00,,,0.00,VWS V14.01,2013-06-03 11:03:00,
2013-06-03 07:04:00,61.6,57.7,29.99,NE,49,3.0,4.5,87,0.00,,,0.00,VWS V14.01,2013-06-03 11:04:00,
2013-06-03 07:05:00,61.6,57.7,29.98,NNW,327,6.0,7.5,87,0.00,,,0.00,VWS V14.01,2013-06-03 11:05:00,
2013-06-03 07:06:00,61.6,57.7,29.98,North,6,1.5,9.0,87,0.00,,,0.00,VWS V14.01,2013-06-03 11:06:00,
2013-06-03 07:07:00,61.7,57.8,29.98,North,7,1.5,4.5,87,0.00,,,0.00,VWS V14.01,2013-06-03 11:07:00,
2013-06-03 07:08:00,61.7,57.8,29.98,North,6,1.5,1.5,87,0.00,,,0.00,VWS V14.01,2013-06-03 11:08:00,
2013-06-03 07:09:00,61.7,57.8,29.98,North,3,3.0,4.5,87,0.00,,,0.00,VWS V14.01,2013-06-03 11:09:00,
2013-06-03 07:10:00,61.7,57.8,29.98,North,6,3.0,6.0,87,0.00,,,0.00,VWS V14.01,2013-06-03 11:10:00,
2013-06-03 07:11:00,61.7,57.8,29.98,NW,326,3.0,4.5,87,0.00,,,0.00,VWS V14.01,2013-06-03 11:11:00,
2013-06-03 07:12:00,61.7,57.8,29.98,NW,326,3.0,4.5,87,0.00,,,0.00,VWS V14.01,2013-06-03 11:12:00,
2013-06-03 07:13:00,61.7,57.8,29.98,North,10,1.5,4.5,87,0.00,,,0.00,VWS V14.01,2013-06-03 11:13:00,
2013-06-03 07:14:00,61.7,57.8,29.99,NW,326,3.0,4.5,87,0.00,,,0.00,VWS V14.01,2013-06-03 11:14:00,
2013-06-03 07:15:00,61.7,57.8,29.98,NNW,338,3.0,4.5,87,0.00,,,0.00,VWS V14.01,2013-06-03 11:15:00,
2013-06-03 07:16:00,61.8,57.9,29.98,NNE,14,3.0,3.0,87,0.00,,,0.00,VWS V14.01,2013-06-03 11:16:00,
2013-06-03 07:17:00,61.8,57.9,29.98,NNE,14,3.0,3.0,87,0.00,,,0.00,VWS V14.01,2013-06-03 11:17:00,
2013-06-03 07:18:00,61.8,57.9,29.98,NNE,12,1.5,3.0,87,0.00,,,0.00,VWS V14.01,2013-06-03 11:18:00,
2013-06-03 07:19:00,61.8,57.9,29.99,WNW,300,3.0,4.5,87,0.00,,,0.00,VWS V14.01,2013-06-03 11:19:00,
2013-06-03 07:20:00,61.8,57.9,29.99,NNE,18,3.0,4.5,87,0.00,,,0.00,VWS V14.01,2013-06-03 11:20:00,
2013-06-03 07:21:00,61.8,57.9,29.99,North,357,6.0,7.5,87,0.00,,,0.00,VWS V14.01,2013-06-03 11:21:00,
2013-06-03 07:22:00,61.8,57.9,29.99,NNW,339,4.5,7.5,87,0.00,,,0.00,VWS V14.01,2013-06-03 11:22:00,
2013-06-03 07:23:00,61.8,57.9,29.99,NE,46,3.0,10.5,87,0.00,,,0.00,VWS V14.01,2013-06-03 11:23:00,
2013-06-03 07:24:00,61.8,57.9,29.99,SW,215,1.5,3.0,87,0.00,,,0.00,VWS V14.01,2013-06-03 11:24:00,
2013-06-03 07:25:00,61.8,57.9,29.99,North,5,3.0,4.5,87,0.00,,,0.00,VWS V14.01,2013-06-03 11:25:00,
2013-06-03 07:26:00,61.8,57.9,29.99,NE,54,9.0,12.0,87,0.00,,,0.00,VWS V14.01,2013-06-03 11:26:00,
2013-06-03 07:27:00,61.8,57.9,29.99,NE,54,9.0,12.0,87,0.00,,,0.00,VWS V14.01,2013-06-03 11:27:00,
2013-06-03 07:28:00,61.8,57.9,29.99,NNE,23,6.0,9.0,87,0.00,,,0.00,VWS V14.01,2013-06-03 11:28:00,
2013-06-03 07:29:00,61.8,57.9,29.99,NNE,27,4.5,7.5,87,0.00,,,0.00,VWS V14.01,2013-06-03 11:29:00,
2013-06-03 07:30:00,61.8,57.9,29.99,NE,42,6.0,9.0,87,0.00,,,0.00,VWS V14.01,2013-06-03 11:30:00,
2013-06-03 07:31:00,61.8,57.9,29.99,North,3,3.0,7.5,87,0.00,,,0.00,VWS V14.01,2013-06-03 11:31:00,
2013-06-03 07:32:00,61.8,57.9,29.99,NE,37,6.0,6.0,87,0.00,,,0.00,VWS V14.01,2013-06-03 11:32:00,
2013-06-03 07:33:00,61.8,57.9,29.99,NE,49,7.5,10.5,87,0.00,,,0.00,VWS V14.01,2013-06-03 11:33:00,
2013-06-03 07:34:00,61.8,57.6,29.99,NNE,27,7.5,9.0,86,0.00,,,0.00,VWS V14.01,2013-06-03 11:34:00,
2013-06-03 07:35:00,61.8,57.6,29.99,NE,51,4.5,7.5,86,0.00,,,0.00,VWS V14.01,2013-06-03 11:35:00,
2013-06-03 07:36:00,61.8,57.9,29.99,NNE,30,7.5,7.5,87,0.00,,,0.00,VWS V14.01,2013-06-03 11:36:00,
2013-06-03 07:37:00,61.8,57.9,29.99,North,5,7.5,7.5,87,0.00,,,0.00,VWS V14.01,2013-06-03 11:37:00,
2013-06-03 07:38:00,61.8,57.6,29.99,NNE,12,7.5,9.0,86,0.00,,,0.00,VWS V14.01,2013-06-03 11:38:00,
2013-06-03 07:39:00,61.8,57.6,29.99,NNW,346,4.5,7.5,86,0.00,,,0.00,VWS V14.01,2013-06-03 11:39:00,
2013-06-03 07:40:00,61.8,57.9,29.99,NNE,30,9.0,12.0,87,0.00,,,0.00,VWS V14.01,2013-06-03 11:40:00,
2013-06-03 07:41:00,61.8,57.6,29.99,NNW,339,6.0,9.0,86,0.00,,,0.00,VWS V14.01,2013-06-03 11:41:00,
2013-06-03 07:42:00,61.8,57.6,29.99,NNW,337,4.5,6.0,86,0.00,,,0.00,VWS V14.01,2013-06-03 11:42:00,
2013-06-03 07:43:00,61.8,57.6,29.99,NNE,32,1.5,4.5,86,0.00,,,0.00,VWS V14.01,2013-06-03 11:43:00,
2013-06-03 07:44:00,61.8,57.6,29.99,NNE,27,3.0,4.5,86,0.00,,,0.00,VWS V14.01,2013-06-03 11:44:00,
2013-06-03 07:45:00,61.8,57.6,30.00,NNE,27,3.0,6.0,86,0.00,,,0.00,VWS V14.01,2013-06-03 11:45:00,
2013-06-03 07:46:00,61.8,57.6,30.00,North,1,4.5,6.0,86,0.00,,,0.00,VWS V14.01,2013-06-03 11:46:00,
2013-06-03 07:47:00,61.8,57.6,30.00,North,1,4.5,6.0,86,0.00,,,0.00,VWS V14.01,2013-06-03 11:47:00,
2013-06-03 07:48:00,61.8,57.9,30.00,East,81,6.0,7.5,87,0.00,,,0.00,VWS V14.01,2013-06-03 11:48:00,
2013-06-03 07:49:00,61.8,57.6,30.00,ENE,68,7.5,13.5,86,0.00,,,0.00,VWS V14.01,2013-06-03 11:49:00,
2013-06-03 07:50:00,61.8,57.6,30.00,NE,35,6.0,16.5,86,0.00,,,0.00,VWS V14.01,2013-06-03 11:50:00,
2013-06-03 07:51:00,61.8,57.6,30.00,NNE,14,6.0,10.5,86,0.00,,,0.00,VWS V14.01,2013-06-03 11:51:00,
2013-06-03 07:52:00,61.8,57.6,30.00,NNE,14,6.0,19.5,86,0.00,,,0.00,VWS V14.01,2013-06-03 11:52:00,
2013-06-03 07:53:00,61.7,57.2,30.00,NE,46,9.0,19.5,85,0.00,,,0.00,VWS V14.01,2013-06-03 11:53:00,
2013-06-03 07:54:00,61.7,56.8,30.00,North,352,6.0,13.5,84,0.00,,,0.00,VWS V14.01,2013-06-03 11:54:00,
2013-06-03 07:55:00,61.7,57.2,30.00,East,85,4.5,7.5,85,0.00,,,0.00,VWS V14.01,2013-06-03 11:55:00,
2013-06-03 07:56:00,61.7,57.2,30.00,ENE,76,3.0,12.0,85,0.00,,,0.00,VWS V14.01,2013-06-03 11:56:00,
2013-06-03 07:57:00,61.7,57.2,30.00,North,6,7.5,9.0,85,0.00,,,0.00,VWS V14.01,2013-06-03 11:57:00,
2013-06-03 07:58:00,61.8,57.2,30.00,NNE,16,6.0,10.5,85,0.00,,,0.00,VWS V14.01,2013-06-03 11:58:00,
2013-06-03 07:59:00,61.8,56.9,30.00,NE,44,4.5,6.0,84,0.00,,,0.00,VWS V14.01,2013-06-03 11:59:00,
2013-06-03 08:00:00,61.8,56.9,30.00,NNE,32,3.0,10.5,84,0.00,,,0.00,VWS V14.01,2013-06-03 12:00:00,
2013-06-03 08:01:00,61.9,57.0,30.00,NNE,12,4.5,7.5,84,0.00,,,0.00,VWS V14.01,2013-06-03 12:01:00,
2013-06-03 08:02:00,61.9,57.0,30.00,NNE,12,4.5,7.5,84,0.00,,,0.00,VWS V14.01,2013-06-03 12:02:00,
2013-06-03 08:03:00,61.9,57.0,30.00,ENE,73,3.0,4.5,84,0.00,,,0.00,VWS V14.01,2013-06-03 12:03:00,
2013-06-03 08:04:00,62.0,57.1,30.00,NE,47,6.0,7.5,84,0.00,,,0.00,VWS V14.01,2013-06-03 12:04:00,
2013-06-03 08:05:00,62.0,57.1,30.00,NE,36,13.5,13.5,84,0.00,,,0.00,VWS V14.01,2013-06-03 12:05:00,
2013-06-03 08:06:00,61.9,56.7,30.00,North,355,12.0,12.0,83,0.00,,,0.00,VWS V14.01,2013-06-03 12:06:00,
2013-06-03 08:07:00,61.9,56.7,30.00,NNE,13,12.0,13.5,83,0.00,,,0.00,VWS V14.01,2013-06-03 12:07:00,
2013-06-03 08:08:00,61.9,56.7,30.00,NNE,25,9.0,12.0,83,0.00,,,0.00,VWS V14.01,2013-06-03 12:08:00,
2013-06-03 08:09:00,61.9,56.7,30.00,North,4,3.0,10.5,83,0.00,,,0.00,VWS V14.01,2013-06-03 12:09:00,
2013-06-03 08:10:00,61.9,56.7,30.01,NNE,21,6.0,6.0,83,0.00,,,0.00,VWS V14.01,2013-06-03 12:10:00,
2013-06-03 08:11:00,62.0,56.8,30.00,NE,51,9.0,12.0,83,0.00,,,0.00,VWS V14.01,2013-06-03 12:11:00,
2013-06-03 08:12:00,62.0,56.8,30.00,NE,51,9.0,12.0,83,0.00,,,0.00,VWS V14.01,2013-06-03 12:12:00,
2013-06-03 08:13:00,61.9,56.7,30.00,NE,51,10.5,13.5,83,0.00,,,0.00,VWS V14.01,2013-06-03 12:13:00,
2013-06-03 08:14:00,61.9,56.7,30.01,NNE,33,9.0,10.5,83,0.00,,,0.00,VWS V14.01,2013-06-03 12:14:00,
2013-06-03 08:15:00,61.9,56.7,30.00,NNW,345,12.0,16.5,83,0.00,,,0.00,VWS V14.01,2013-06-03 12:15:00,
2013-06-03 08:16:00,61.9,56.7,30.01,ENE,66,9.0,12.0,83,0.00,,,0.00,VWS V14.01,2013-06-03 12:16:00,
2013-06-03 08:17:00,61.9,56.7,30.01,ENE,66,9.0,12.0,83,0.00,,,0.00,VWS V14.01,2013-06-03 12:17:00,
2013-06-03 08:18:00,61.9,56.7,30.01,NNE,13,7.5,10.5,83,0.00,,,0.00,VWS V14.01,2013-06-03 12:18:00,
2013-06-03 08:19:00,61.9,56.7,30.01,NE,40,6.0,10.5,83,0.00,,,0.00,VWS V14.01,2013-06-03 12:19:00,
2013-06-03 08:20:00,61.9,56.7,30.01,NE,51,7.5,12.0,83,0.00,,,0.00,VWS V14.01,2013-06-03 12:20:00,
2013-06-03 08:21:00,61.9,56.7,30.01,ENE,66,7.5,13.5,83,0.00,,,0.00,VWS V14.01,2013-06-03 12:21:00,
2013-06-03 08:22:00,61.9,56.7,30.01,ENE,66,7.5,13.5,83,0.00,,,0.00,VWS V14.01,2013-06-03 12:22:00,
2013-06-03 08:23:00,61.9,56.7,30.01,ENE,66,10.5,13.5,83,0.00,,,0.00,VWS V14.01,2013-06-03 12:23:00,
2013-06-03 08:24:00,61.9,56.7,30.01,ENE,60,9.0,13.5,83,0.00,,,0.00,VWS V14.01,2013-06-03 12:24:00,
2013-06-03 08:25:00,61.9,56.7,30.01,NE,39,9.0,12.0,83,0.00,,,0.00,VWS V14.01,2013-06-03 12:25:00,
2013-06-03 08:26:00,62.0,57.1,30.01,NNE,21,7.5,10.5,84,0.00,,,0.00,VWS V14.01,2013-06-03 12:26:00,
2013-06-03 08:27:00,62.0,57.1,30.01,North,4,10.5,10.5,84,0.00,,,0.00,VWS V14.01,2013-06-03 12:27:00,
2013-06-03 08:28:00,62.0,56.8,30.01,NE,56,6.0,12.0,83,0.00,,,0.00,VWS V14.01,2013-06-03 12:28:00,
2013-06-03 08:29:00,62.0,57.1,30.01,NE,44,12.0,12.0,84,0.00,,,0.00,VWS V14.01,2013-06-03 12:29:00,
2013-06-03 08:30:00,62.0,57.1,30.01,NNE,32,7.5,12.0,84,0.00,,,0.00,VWS V14.01,2013-06-03 12:30:00,
2013-06-03 08:31:00,62.0,57.1,30.01,NNE,32,9.0,12.0,84,0.00,,,0.00,VWS V14.01,2013-06-03 12:31:00,
2013-06-03 08:32:00,62.0,57.1,30.01,NNE,32,9.0,12.0,84,0.00,,,0.00,VWS V14.01,2013-06-03 12:32:00,
2013-06-03 08:33:00,62.0,56.8,30.01,East,87,13.5,13.5,83,0.00,,,0.00,VWS V14.01,2013-06-03 12:33:00,
2013-06-03 08:34:00,62.0,56.8,30.01,NE,47,9.0,13.5,83,0.00,,,0.00,VWS V14.01,2013-06-03 12:34:00,
2013-06-03 08:35:00,62.0,56.8,30.01,NW,319,13.5,13.5,83,0.00,,,0.00,VWS V14.01,2013-06-03 12:35:00,
2013-06-03 08:36:00,62.1,57.2,30.01,ENE,62,10.5,10.5,84,0.00,,,0.00,VWS V14.01,2013-06-03 12:36:00,
2013-06-03 08:37:00,62.1,57.2,30.01,ENE,62,10.5,10.5,84,0.00,,,0.00,VWS V14.01,2013-06-03 12:37:00,
2013-06-03 08:38:00,62.1,57.2,30.01,NNE,32,7.5,12.0,84,0.00,,,0.00,VWS V14.01,2013-06-03 12:38:00,
2013-06-03 08:39:00,62.1,57.2,30.01,NNE,17,3.0,7.5,84,0.00,,,0.00,VWS V14.01,2013-06-03 12:39:00,
2013-06-03 08:40:00,62.2,57.3,30.01,ENE,59,4.5,9.0,84,0.00,,,0.00,VWS V14.01,2013-06-03 12:40:00,
2013-06-03 08:41:00,62.2,57.3,30.01,ENE,67,6.0,10.5,84,0.00,,,0.00,VWS V14.01,2013-06-03 12:41:00,
2013-06-03 08:42:00,62.2,57.3,30.01,NE,37,4.5,10.5,84,0.00,,,0.00,VWS V14.01,2013-06-03 12:42:00,
2013-06-03 08:43:00,62.3,57.4,30.01,North,3,10.5,13.5,84,0.00,,,0.00,VWS V14.01,2013-06-03 12:43:00,
2013-06-03 08:44:00,62.3,57.4,30.01,NNE,28,13.5,13.5,84,0.00,,,0.00,VWS V14.01,2013-06-03 12:44:00,
2013-06-03 08:45:00,62.3,57.4,30.01,North,359,6.0,13.5,84,0.00,,,0.00,VWS V14.01,2013-06-03 12:45:00,
2013-06-03 08:46:00,62.4,57.5,30.01,NNE,21,7.5,7.5,84,0.00,,,0.00,VWS V14.01,2013-06-03 12:46:00,
2013-06-03 08:47:00,62.4,57.5,30.02,NE,49,6.0,10.5,84,0.00,,,0.00,VWS V14.01,2013-06-03 12:47:00,
2013-06-03 08:48:00,62.4,57.5,30.02,NNE,14,12.0,12.0,84,0.00,,,0.00,VWS V14.01,2013-06-03 12:48:00,
2013-06-03 08:49:00,62.5,57.3,30.02,NNE,33,12.0,12.0,83,0.00,,,0.00,VWS V14.01,2013-06-03 12:49:00,
2013-06-03 08:50:00,62.5,57.3,30.02,ENE,68,7.5,15.0,83,0.00,,,0.00,VWS V14.01,2013-06-03 12:50:00,
2013-06-03 08:51:00,62.5,56.9,30.02,NE,35,10.5,10.5,82,0.00,,,0.00,VWS V14.01,2013-06-03 12:51:00,
2013-06-03 08:52:00,62.5,56.9,30.02,NNE,26,10.5,13.5,82,0.00,,,0.00,VWS V14.01,2013-06-03 12:52:00,
2013-06-03 08:53:00,62.5,57.3,30.02,North,359,6.0,15.0,83,0.00,,,0.00,VWS V14.01,2013-06-03 12:53:00,
2013-06-03 08:54:00,62.5,57.3,30.02,NE,56,13.5,13.5,83,0.00,,,0.00,VWS V14.01,2013-06-03 12:54:00,
2013-06-03 08:55:00,62.6,57.4,30.02,NE,51,16.5,16.5,83,0.00,,,0.00,VWS V14.01,2013-06-03 12:55:00,
2013-06-03 08:56:00,62.6,57.0,30.02,NE,35,9.0,16.5,82,0.00,,,0.00,VWS V14.01,2013-06-03 12:56:00,
2013-06-03 08:57:00,62.6,57.0,30.02,NNE,14,7.5,10.5,82,0.00,,,0.00,VWS V14.01,2013-06-03 12:57:00,
2013-06-03 08:58:00,62.7,57.5,30.02,NNE,24,7.5,10.5,83,0.00,,,0.00,VWS V14.01,2013-06-03 12:58:00,
2013-06-03 08:59:00,62.8,57.6,30.02,North,11,6.0,12.0,83,0.00,,,0.00,VWS V14.01,2013-06-03 12:59:00,
2013-06-03 09:00:00,62.8,57.6,30.02,NNE,16,9.0,13.5,83,0.00,,,0.00,VWS V14.01,2013-06-03 13:00:00,
2013-06-03 09:01:00,62.8,56.9,30.02,NE,49,6.0,13.5,81,0.00,,,0.00,VWS V14.01,2013-06-03 13:01:00,
2013-06-03 09:02:00,62.8,57.2,30.02,NNE,21,15.0,15.0,82,0.00,,,0.00,VWS V14.01,2013-06-03 13:02:00,
2013-06-03 09:03:00,62.7,57.1,30.02,NNE,16,9.0,15.0,82,0.00,,,0.00,VWS V14.01,2013-06-03 13:03:00,
2013-06-03 09:04:00,62.7,57.1,30.02,NE,51,7.5,13.5,82,0.00,,,0.00,VWS V14.01,2013-06-03 13:04:00,
2013-06-03 09:05:00,62.7,56.8,30.02,NNE,17,6.0,12.0,81,0.00,,,0.00,VWS V14.01,2013-06-03 13:05:00,
2013-06-03 09:06:00,62.7,57.1,30.02,North,10,3.0,9.0,82,0.00,,,0.00,VWS V14.01,2013-06-03 13:06:00,
2013-06-03 09:07:00,62.7,57.1,30.02,North,3,12.0,12.0,82,0.00,,,0.00,VWS V14.01,2013-06-03 13:07:00,
2013-06-03 09:08:00,62.8,57.2,30.02,North,3,4.5,12.0,82,0.00,,,0.00,VWS V14.01,2013-06-03 13:08:00,
2013-06-03 09:09:00,62.8,57.2,30.02,NNE,25,13.5,16.5,82,0.00,,,0.00,VWS V14.01,2013-06-03 13:09:00,
2013-06-03 09:10:00,62.8,56.9,30.02,ENE,61,7.5,13.5,81,0.00,,,0.00,VWS V14.01,2013-06-03 13:10:00,
2013-06-03 09:11:00,62.8,57.2,30.02,NNE,12,10.5,10.5,82,0.00,,,0.00,VWS V14.01,2013-06-03 13:11:00,
2013-06-03 09:12:00,62.8,57.2,30.02,NE,34,3.0,12.0,82,0.00,,,0.00,VWS V14.01,2013-06-03 13:12:00,
2013-06-03 09:13:00,62.8,57.2,30.02,NE,44,9.0,9.0,82,0.00,,,0.00,VWS V14.01,2013-06-03 13:13:00,
2013-06-03 09:14:00,62.9,57.3,30.02,North,11,7.5,9.0,82,0.00,,,0.00,VWS V14.01,2013-06-03 13:14:00,
2013-06-03 09:15:00,63.0,57.4,30.02,North,357,9.0,15.0,82,0.00,,,0.00,VWS V14.01,2013-06-03 13:15:00,
2013-06-03 09:16:00,63.0,57.4,30.02,NNE,32,4.5,9.0,82,0.00,,,0.00,VWS V14.01,2013-06-03 13:16:00,
2013-06-03 09:17:00,63.2,57.6,30.02,NE,42,4.5,7.5,82,0.00,,,0.00,VWS V14.01,2013-06-03 13:17:00,
2013-06-03 09:18:00,63.3,57.7,30.02,NNE,24,7.5,10.5,82,0.00,,,0.00,VWS V14.01,2013-06-03 13:18:00,
2013-06-03 09:19:00,63.4,57.5,30.02,NE,46,7.5,10.5,81,0.00,,,0.00,VWS V14.01,2013-06-03 13:19:00,
2013-06-03 09:20:00,63.4,57.5,30.02,NE,46,4.5,10.5,81,0.00,,,0.00,VWS V14.01,2013-06-03 13:20:00,
2013-06-03 09:21:00,63.4,57.1,30.02,NE,36,6.0,15.0,80,0.00,,,0.00,VWS V14.01,2013-06-03 13:21:00,
2013-06-03 09:22:00,63.4,57.1,30.02,NE,36,6.0,15.0,80,0.00,,,0.00,VWS V14.01,2013-06-03 13:22:00,
2013-06-03 09:23:00,63.4,57.5,30.02,NNE,14,4.5,9.0,81,0.00,,,0.00,VWS V14.01,2013-06-03 13:23:00,
2013-06-03 09:24:00,63.4,57.8,30.02,NW,321,3.0,4.5,82,0.00,,,0.00,VWS V14.01,2013-06-03 13:24:00,
2013-06-03 09:25:00,63.5,57.6,30.02,North,4,7.5,12.0,81,0.00,,,0.00,VWS V14.01,2013-06-03 13:25:00,
2013-06-03 09:26:00,63.5,57.6,30.02,NE,42,3.0,9.0,81,0.00,,,0.00,VWS V14.01,2013-06-03 13:26:00,
2013-06-03 09:27:00,63.6,57.7,30.02,East,85,1.5,3.0,81,0.00,,,0.00,VWS V14.01,2013-06-03 13:27:00,
2013-06-03 09:28:00,63.7,58.1,30.02,ESE,113,3.0,3.0,82,0.00,,,0.00,VWS V14.01,2013-06-03 13:28:00,
2013-06-03 09:29:00,63.7,57.4,30.02,NNE,14,7.5,13.5,80,0.00,,,0.00,VWS V14.01,2013-06-03 13:29:00,
2013-06-03 09:30:00,63.7,57.1,30.02,NNE,14,7.5,16.5,79,0.00,,,0.00,VWS V14.01,2013-06-03 13:30:00,
2013-06-03 09:31:00,63.6,57.3,30.02,North,359,9.0,9.0,80,0.00,,,0.00,VWS V14.01,2013-06-03 13:31:00,
2013-06-03 09:32:00,63.6,57.3,30.02,ENE,59,12.0,12.0,80,0.00,,,0.00,VWS V14.01,2013-06-03 13:32:00,
2013-06-03 09:33:00,63.6,57.0,30.02,ENE,61,10.5,13.5,79,0.00,,,0.00,VWS V14.01,2013-06-03 13:33:00,
2013-06-03 09:34:00,63.6,57.0,30.02,North,4,13.5,13.5,79,0.00,,,0.00,VWS V14.01,2013-06-03 13:34:00,
2013-06-03 09:35:00,63.5,56.5,30.02,North,11,9.0,13.5,78,0.00,,,0.00,VWS V14.01,2013-06-03 13:35:00,
2013-06-03 09:36:00,63.4,56.8,30.02,ENE,77,9.0,10.5,79,0.00,,,0.00,VWS V14.01,2013-06-03 13:36:00,
2013-06-03 09:37:00,63.4,56.8,30.02,NNW,333,6.0,6.0,79,0.00,,,0.00,VWS V14.01,2013-06-03 13:37:00,
2013-06-03 09:38:00,63.4,56.8,30.02,NNE,24,9.0,9.0,79,0.00,,,0.00,VWS V14.01,2013-06-03 13:38:00,
2013-06-03 09:39:00,63.5,57.2,30.02,NNE,24,4.5,9.0,80,0.00,,,0.00,VWS V14.01,2013-06-03 13:39:00,
2013-06-03 09:40:00,63.6,57.0,30.02,NNE,22,12.0,13.5,79,0.00,,,0.00,VWS V14.01,2013-06-03 13:40:00,
2013-06-03 09:41:00,63.6,56.6,30.02,NE,43,10.5,12.0,78,0.00,,,0.00,VWS V14.01,2013-06-03 13:41:00,
2013-06-03 09:42:00,63.6,56.6,30.02,NE,46,7.5,15.0,78,0.00,,,0.00,VWS V14.01,2013-06-03 13:42:00,
2013-06-03 09:43:00,63.6,56.6,30.02,NNE,30,9.0,13.5,78,0.00,,,0.00,VWS V14.01,2013-06-03 13:43:00,
2013-06-03 09:44:00,63.5,56.5,30.02,NNE,17,10.5,13.5,78,0.00,,,0.00,VWS V14.01,2013-06-03 13:44:00,
2013-06-03 09:45:00,63.5,56.2,30.02,NE,51,9.0,10.5,77,0.00,,,0.00,VWS V14.01,2013-06-03 13:45:00,
2013-06-03 09:46:00,63.5,56.5,30.02,NE,44,9.0,12.0,78,0.00,,,0.00,VWS V14.01,2013-06-03 13:46:00,
2013-06-03 09:47:00,63.5,56.5,30.02,NNE,21,9.0,12.0,78,0.00,,,0.00,VWS V14.01,2013-06-03 13:47:00,
2013-06-03 09:48:00,63.5,56.2,30.02,NNE,14,12.0,13.5,77,0.00,,,0.00,VWS V14.01,2013-06-03 13:48:00,
2013-06-03 09:49:00,63.5,56.2,30.02,NNE,24,13.5,13.5,77,0.00,,,0.00,VWS V14.01,2013-06-03 13:49:00,
2013-06-03 09:50:00,63.4,56.1,30.02,NE,54,4.5,18.0,77,0.00,,,0.00,VWS V14.01,2013-06-03 13:50:00,
2013-06-03 09:51:00,63.4,56.1,30.02,NE,46,10.5,13.5,77,0.00,,,0.00,VWS V14.01,2013-06-03 13:51:00,
2013-06-03 09:52:00,63.5,56.2,30.02,North,2,7.5,10.5,77,0.00,,,0.00,VWS V14.01,2013-06-03 13:52:00,
2013-06-03 09:53:00,63.5,56.5,30.02,North,4,13.5,16.5,78,0.00,,,0.00,VWS V14.01,2013-06-03 13:53:00,
2013-06-03 09:54:00,63.6,56.3,30.02,NE,37,12.0,16.5,77,0.00,,,0.00,VWS V14.01,2013-06-03 13:54:00,
2013-06-03 09:55:00,63.6,56.3,30.02,NNE,27,9.0,12.0,77,0.00,,,0.00,VWS V14.01,2013-06-03 13:55:00,
2013-06-03 09:56:00,63.6,56.6,30.02,NW,313,7.5,9.0,78,0.00,,,0.00,VWS V14.01,2013-06-03 13:56:00,
2013-06-03 09:57:00,63.7,56.4,30.02,North,10,9.0,9.0,77,0.00,,,0.00,VWS V14.01,2013-06-03 13:57:00,
2013-06-03 09:58:00,63.7,56.4,30.02,NE,47,7.5,9.0,77,0.00,,,0.00,VWS V14.01,2013-06-03 13:58:00,
2013-06-03 09:59:00,63.8,56.5,30.02,North,9,9.0,12.0,77,0.00,,,0.00,VWS V14.01,2013-06-03 13:59:00,
2013-06-03 10:00:00,63.8,56.5,30.02,NE,43,7.5,13.5,77,0.00,,,0.00,VWS V14.01,2013-06-03 14:00:00,
2013-06-03 10:01:00,63.8,56.5,30.02,NE,53,3.0,9.0,77,0.00,,,0.00,VWS V14.01,2013-06-03 14:01:00,
2013-06-03 10:02:00,63.9,56.6,30.02,WNW,300,6.0,7.5,77,0.00,,,0.00,VWS V14.01,2013-06-03 14:02:00,
2013-06-03 10:03:00,64.0,56.7,30.02,WNW,285,1.5,6.0,77,0.00,,,0.00,VWS V14.01,2013-06-03 14:03:00,
2013-06-03 10:04:00,64.2,57.2,30.02,ENE,58,12.0,12.0,78,0.00,,,0.00,VWS V14.01,2013-06-03 14:04:00,
2013-06-03 10:05:00,64.4,57.0,30.02,NNE,27,4.5,13.5,77,0.00,,,0.00,VWS V14.01,2013-06-03 14:05:00,
2013-06-03 10:06:00,64.7,57.3,30.02,NNE,26,9.0,9.0,77,0.00,,,0.00,VWS V14.01,2013-06-03 14:06:00,
2013-06-03 10:07:00,64.7,57.3,30.02,NNE,18,9.0,12.0,77,0.00,,,0.00,VWS V14.01,2013-06-03 14:07:00,
2013-06-03 10:08:00,64.8,57.4,30.02,North,359,9.0,15.0,77,0.00,,,0.00,VWS V14.01,2013-06-03 14:08:00,
2013-06-03 10:09:00,64.8,56.7,30.02,NNE,23,10.5,10.5,75,0.00,,,0.00,VWS V14.01,2013-06-03 14:09:00,
2013-06-03 10:10:00,64.8,57.4,30.02,NNW,333,7.5,10.5,77,0.00,,,0.00,VWS V14.01,2013-06-03 14:10:00,
2013-06-03 10:11:00,65.0,57.6,30.03,NW,324,7.5,9.0,77,0.00,,,0.00,VWS V14.01,2013-06-03 14:11:00,
2013-06-03 10:12:00,65.1,57.0,30.03,NNE,21,3.0,7.5,75,0.00,,,0.00,VWS V14.01,2013-06-03 14:12:00,
2013-06-03 10:13:00,65.3,57.9,30.03,NE,51,9.0,9.0,77,0.00,,,0.00,VWS V14.01,2013-06-03 14:13:00,
2013-06-03 10:14:00,65.4,56.9,30.03,NNE,28,7.5,10.5,74,0.00,,,0.00,VWS V14.01,2013-06-03 14:14:00,
2013-06-03 10:15:00,65.3,56.8,30.03,ENE,58,7.5,13.5,74,0.00,,,0.00,VWS V14.01,2013-06-03 14:15:00,
2013-06-03 10:16:00,65.1,56.6,30.03,ENE,68,4.5,4.5,74,0.00,,,0.00,VWS V14.01,2013-06-03 14:16:00,
2013-06-03 10:17:00,65.1,56.6,30.03,ENE,68,4.5,4.5,74,0.00,,,0.00,VWS V14.01,2013-06-03 14:17:00,
2013-06-03 10:18:00,65.1,56.6,30.03,NNE,24,7.5,9.0,74,0.00,,,0.00,VWS V14.01,2013-06-03 14:18:00,
2013-06-03 10:19:00,65.1,56.6,30.03,North,7,10.5,10.5,74,0.00,,,0.00,VWS V14.01,2013-06-03 14:19:00,
2013-06-03 10:20:00,65.0,56.5,30.03,NW,305,4.5,10.5,74,0.00,,,0.00,VWS V14.01,2013-06-03 14:20:00,
2013-06-03 10:21:00,65.0,56.9,30.03,NNE,21,4.5,7.5,75,0.00,,,0.00,VWS V14.01,2013-06-03 14:21:00,
2013-06-03 10:22:00,65.0,56.5,30.03,NNE,16,3.0,4.5,74,0.00,,,0.00,VWS V14.01,2013-06-03 14:22:00,
2013-06-03 10:23:00,65.0,56.5,30.03,NNE,21,1.5,3.0,74,0.00,,,0.00,VWS V14.01,2013-06-03 14:23:00,
2013-06-03 10:24:00,65.0,56.9,30.03,East,85,4.5,4.5,75,0.00,,,0.00,VWS V14.01,2013-06-03 14:24:00,
2013-06-03 10:25:00,65.1,57.0,30.03,NW,316,4.5,4.5,75,0.00,,,0.00,VWS V14.01,2013-06-03 14:25:00,
2013-06-03 10:26:00,65.2,56.7,30.03,North,350,6.0,9.0,74,0.00,,,0.00,VWS V14.01,2013-06-03 14:26:00,
2013-06-03 10:27:00,65.3,57.2,30.03,NNW,342,4.5,6.0,75,0.00,,,0.00,VWS V14.01,2013-06-03 14:27:00,
2013-06-03 10:28:00,65.4,56.9,30.04,NNW,331,9.0,9.0,74,0.00,,,0.00,VWS V14.01,2013-06-03 14:28:00,
2013-06-03 10:29:00,65.4,56.9,30.03,WNW,294,4.5,9.0,74,0.00,,,0.00,VWS V14.01,2013-06-03 14:29:00,
2013-06-03 10:30:00,65.3,56.4,30.03,NE,44,3.0,4.5,73,0.00,,,0.00,VWS V14.01,2013-06-03 14:30:00,
2013-06-03 10:31:00,65.3,56.4,30.03,NNE,33,9.0,10.5,73,0.00,,,0.00,VWS V14.01,2013-06-03 14:31:00,
2013-06-03 10:32:00,65.3,56.4,30.03,NNE,33,9.0,10.5,73,0.00,,,0.00,VWS V14.01,2013-06-03 14:32:00,
2013-06-03 10:33:00,65.3,56.4,30.04,NNE,18,4.5,9.0,73,0.00,,,0.00,VWS V14.01,2013-06-03 14:33:00,
2013-06-03 10:34:00,65.1,56.2,30.04,NNE,16,3.0,6.0,73,0.00,,,0.00,VWS V14.01,2013-06-03 14:34:00,
2013-06-03 10:35:00,65.1,56.6,30.04,ENE,67,6.0,7.5,74,0.00,,,0.00,VWS V14.01,2013-06-03 14:35:00,
2013-06-03 10:36:00,65.1,56.2,30.04,East,90,6.0,10.5,73,0.00,,,0.00,VWS V14.01,2013-06-03 14:36:00,
2013-06-03 10:37:00,65.1,56.2,30.04,East,90,6.0,10.5,73,0.00,,,0.00,VWS V14.01,2013-06-03 14:37:00,
2013-06-03 10:38:00,65.1,56.2,30.04,ENE,65,3.0,7.5,73,0.00,,,0.00,VWS V14.01,2013-06-03 14:38:00,
2013-06-03 10:39:00,65.1,56.2,30.04,NNW,340,3.0,4.5,73,0.00,,,0.00,VWS V14.01,2013-06-03 14:39:00,
2013-06-03 10:40:00,65.2,56.7,30.04,NNE,26,10.5,10.5,74,0.00,,,0.00,VWS V14.01,2013-06-03 14:40:00,
2013-06-03 10:41:00,65.3,56.4,30.04,NE,39,7.5,10.5,73,0.00,,,0.00,VWS V14.01,2013-06-03 14:41:00,
2013-06-03 10:42:00,65.3,56.4,30.04,NE,37,10.5,10.5,73,0.00,,,0.00,VWS V14.01,2013-06-03 14:42:00,
2013-06-03 10:43:00,65.4,56.2,30.04,NNE,30,9.0,10.5,72,0.00,,,0.00,VWS V14.01,2013-06-03 14:43:00,
2013-06-03 10:44:00,65.4,55.8,30.03,NE,38,6.0,10.5,71,0.00,,,0.00,VWS V14.01,2013-06-03 14:44:00,
2013-06-03 10:45:00,65.4,55.8,30.03,ENE,71,4.5,7.5,71,0.00,,,0.00,VWS V14.01,2013-06-03 14:45:00,
2013-06-03 10:46:00,65.4,56.2,30.03,NNE,30,6.0,7.5,72,0.00,,,0.00,VWS V14.01,2013-06-03 14:46:00,
2013-06-03 10:47:00,65.4,56.2,30.03,ENE,63,6.0,7.5,72,0.00,,,0.00,VWS V14.01,2013-06-03 14:47:00,
2013-06-03 10:48:00,65.5,56.2,30.03,NE,39,4.5,6.0,72,0.00,,,0.00,VWS V14.01,2013-06-03 14:48:00,
2013-06-03 10:49:00,65.5,56.2,30.03,ENE,60,4.5,9.0,72,0.00,,,0.00,VWS V14.01,2013-06-03 14:49:00,
2013-06-03 10:50:00,65.6,56.3,30.03,NE,43,9.0,9.0,72,0.00,,,0.00,VWS V14.01,2013-06-03 14:50:00,
2013-06-03 10:51:00,65.8,56.2,30.04,NNE,16,9.0,9.0,71,0.00,,,0.00,VWS V14.01,2013-06-03 14:51:00,
2013-06-03 10:52:00,65.8,56.2,30.04,NNE,26,9.0,9.0,71,0.00,,,0.00,VWS V14.01,2013-06-03 14:52:00,
2013-06-03 10:53:00,65.8,56.2,30.04,NNE,24,7.5,9.0,71,0.00,,,0.00,VWS V14.01,2013-06-03 14:53:00,
2013-06-03 10:54:00,65.8,56.5,30.04,NW,310,3.0,7.5,72,0.00,,,0.00,VWS V14.01,2013-06-03 14:54:00,
2013-06-03 10:55:00,66.0,57.1,30.04,WNW,291,3.0,3.0,73,0.00,,,0.00,VWS V14.01,2013-06-03 14:55:00,
2013-06-03 10:56:00,66.1,57.2,30.04,West,278,4.5,4.5,73,0.00,,,0.00,VWS V14.01,2013-06-03 14:56:00,
2013-06-03 10:57:00,66.2,57.7,30.04,East,91,4.5,4.5,74,0.00,,,0.00,VWS V14.01,2013-06-03 14:57:00,
2013-06-03 10:58:00,66.4,57.5,30.04,NNE,30,6.0,6.0,73,0.00,,,0.00,VWS V14.01,2013-06-03 14:58:00,
2013-06-03 10:59:00,66.6,57.7,30.04,NE,37,10.5,10.5,73,0.00,,,0.00,VWS V14.01,2013-06-03 14:59:00,
2013-06-03 11:00:00,66.8,57.5,30.04,North,357,7.5,10.5,72,0.00,,,0.00,VWS V14.01,2013-06-03 15:00:00,
2013-06-03 11:01:00,66.9,57.2,30.04,NNE,21,10.5,10.5,71,0.00,,,0.00,VWS V14.01,2013-06-03 15:01:00,
2013-06-03 11:02:00,66.9,56.8,30.04,North,3,10.5,13.5,70,0.00,,,0.00,VWS V14.01,2013-06-03 15:02:00,
2013-06-03 11:03:00,66.8,56.7,30.04,NNE,26,3.0,12.0,70,0.00,,,0.00,VWS V14.01,2013-06-03 15:03:00,
2013-06-03 11:04:00,66.8,57.1,30.04,NE,44,3.0,3.0,71,0.00,,,0.00,VWS V14.01,2013-06-03 15:04:00,
2013-06-03 11:05:00,67.0,57.3,30.04,NE,52,6.0,9.0,71,0.00,,,0.00,VWS V14.01,2013-06-03 15:05:00,
2013-06-03 11:06:00,67.0,57.3,30.04,NW,321,7.5,10.5,71,0.00,,,0.00,VWS V14.01,2013-06-03 15:06:00,
2013-06-03 11:07:00,67.0,57.3,30.04,NW,321,7.5,10.5,71,0.00,,,0.00,VWS V14.01,2013-06-03 15:07:00,
2013-06-03 11:08:00,67.0,57.3,30.04,North,1,6.0,10.5,71,0.00,,,0.00,VWS V14.01,2013-06-03 15:08:00,
2013-06-03 11:09:00,67.2,58.3,30.04,WNW,299,4.5,6.0,73,0.00,,,0.00,VWS V14.01,2013-06-03 15:09:00,
2013-06-03 11:10:00,67.4,57.7,30.04,North,5,6.0,9.0,71,0.00,,,0.00,VWS V14.01,2013-06-03 15:10:00,
2013-06-03 11:11:00,67.5,57.8,30.04,NW,319,6.0,7.5,71,0.00,,,0.00,VWS V14.01,2013-06-03 15:11:00,
2013-06-03 11:12:00,67.5,57.4,30.04,NE,49,4.5,7.5,70,0.00,,,0.00,VWS V14.01,2013-06-03 15:12:00,
2013-06-03 11:13:00,67.7,58.0,30.04,NNW,337,4.5,10.5,71,0.00,,,0.00,VWS V14.01,2013-06-03 15:13:00,
2013-06-03 11:14:00,67.7,56.8,30.04,North,356,10.5,10.5,68,0.00,,,0.00,VWS V14.01,2013-06-03 15:14:00,
2013-06-03 11:15:00,67.7,57.2,30.04,NW,305,6.0,10.5,69,0.00,,,0.00,VWS V14.01,2013-06-03 15:15:00,
2013-06-03 11:16:00,67.8,57.3,30.04,NW,306,6.0,6.0,69,0.00,,,0.00,VWS V14.01,2013-06-03 15:16:00,
2013-06-03 11:17:00,67.8,57.7,30.04,NW,321,9.0,12.0,70,0.00,,,0.00,VWS V14.01,2013-06-03 15:17:00,
2013-06-03 11:18:00,67.8,57.3,30.04,NNW,345,4.5,9.0,69,0.00,,,0.00,VWS V14.01,2013-06-03 15:18:00,
2013-06-03 11:19:00,67.8,56.9,30.04,NNW,340,6.0,9.0,68,0.00,,,0.00,VWS V14.01,2013-06-03 15:19:00,
2013-06-03 11:20:00,67.8,56.5,30.04,NW,324,3.0,6.0,67,0.00,,,0.00,VWS V14.01,2013-06-03 15:20:00,
2013-06-03 11:21:00,67.8,56.9,30.04,North,351,4.5,6.0,68,0.00,,,0.00,VWS V14.01,2013-06-03 15:21:00,
2013-06-03 11:22:00,67.7,56.8,30.04,NW,305,4.5,4.5,68,0.00,,,0.00,VWS V14.01,2013-06-03 15:22:00,
2013-06-03 11:23:00,67.8,57.3,30.04,North,1,7.5,7.5,69,0.00,,,0.00,VWS V14.01,2013-06-03 15:23:00,
2013-06-03 11:24:00,67.8,57.7,30.04,NNE,28,3.0,7.5,70,0.00,,,0.00,VWS V14.01,2013-06-03 15:24:00,
2013-06-03 11:25:00,67.9,56.5,30.04,North,356,4.5,6.0,67,0.00,,,0.00,VWS V14.01,2013-06-03 15:25:00,
2013-06-03 11:26:00,67.9,56.5,30.04,NNW,343,4.5,4.5,67,0.00,,,0.00,VWS V14.01,2013-06-03 15:26:00,
2013-06-03 11:27:00,68.0,57.1,30.04,North,359,6.0,6.0,68,0.00,,,0.00,VWS V14.01,2013-06-03 15:27:00,
2013-06-03 11:28:00,68.0,57.1,30.04,WNW,295,3.0,6.0,68,0.00,,,0.00,VWS V14.01,2013-06-03 15:28:00,
2013-06-03 11:29:00,68.1,57.6,30.04,NNE,21,4.5,6.0,69,0.00,,,0.00,VWS V14.01,2013-06-03 15:29:00,
2013-06-03 11:30:00,68.2,57.2,30.04,NNE,26,1.5,4.5,68,0.00,,,0.00,VWS V14.01,2013-06-03 15:30:00,
2013-06-03 11:31:00,68.3,57.8,30.04,West,278,6.0,6.0,69,0.00,,,0.00,VWS V14.01,2013-06-03 15:31:00,
2013-06-03 11:32:00,68.4,57.0,30.04,West,260,3.0,6.0,67,0.00,,,0.00,VWS V14.01,2013-06-03 15:32:00,
2013-06-03 11:33:00,68.6,57.6,30.04,ENE,59,6.0,6.0,68,0.00,,,0.00,VWS V14.01,2013-06-03 15:33:00,
2013-06-03 11:34:00,68.8,57.4,30.05,NE,49,9.0,9.0,67,0.00,,,0.00,VWS V14.01,2013-06-03 15:34:00,
2013-06-03 11:35:00,68.8,57.4,30.05,NNE,29,7.5,13.5,67,0.00,,,0.00,VWS V14.01,2013-06-03 15:35:00,
2013-06-03 11:36:00,68.8,57.0,30.05,NNW,345,7.5,7.5,66,0.00,,,0.00,VWS V14.01,2013-06-03 15:36:00,
2013-06-03 11:37:00,68.8,57.4,30.05,North,354,7.5,7.5,67,0.00,,,0.00,VWS V14.01,2013-06-03 15:37:00,
2013-06-03 11:38:00,68.8,57.0,30.05,North,4,6.0,9.0,66,0.00,,,0.00,VWS V14.01,2013-06-03 15:38:00,
2013-06-03 11:39:00,68.7,56.9,30.05,NNW,332,4.5,9.0,66,0.00,,,0.00,VWS V14.01,2013-06-03 15:39:00,
2013-06-03 11:40:00,68.7,56.9,30.05,North,352,4.5,4.5,66,0.00,,,0.00,VWS V14.01,2013-06-03 15:40:00,
2013-06-03 11:41:00,68.7,58.1,30.05,North,5,6.0,9.0,69,0.00,,,0.00,VWS V14.01,2013-06-03 15:41:00,
2013-06-03 11:42:00,68.8,58.2,30.05,North,10,1.5,1.5,69,0.00,,,0.00,VWS V14.01,2013-06-03 15:42:00,
2013-06-03 11:43:00,68.8,57.4,30.05,NNE,14,6.0,7.5,67,0.00,,,0.00,VWS V14.01,2013-06-03 15:43:00,
2013-06-03 11:44:00,68.9,58.3,30.05,North,357,4.5,12.0,69,0.00,,,0.00,VWS V14.01,2013-06-03 15:44:00,
2013-06-03 11:45:00,69.1,58.1,30.05,NNW,333,9.0,10.5,68,0.00,,,0.00,VWS V14.01,2013-06-03 15:45:00,
2013-06-03 11:46:00,69.1,57.7,30.05,NNE,23,6.0,10.5,67,0.00,,,0.00,VWS V14.01,2013-06-03 15:46:00,
2013-06-03 11:47:00,69.1,58.1,30.05,ENE,60,4.5,6.0,68,0.00,,,0.00,VWS V14.01,2013-06-03 15:47:00,
2013-06-03 11:48:00,69.2,57.4,30.05,NNW,337,9.0,16.5,66,0.00,,,0.00,VWS V14.01,2013-06-03 15:48:00,
2013-06-03 11:49:00,69.1,57.3,30.05,WNW,299,6.0,9.0,66,0.00,,,0.00,VWS V14.01,2013-06-03 15:49:00,
2013-06-03 11:50:00,69.2,57.0,30.05,NNW,335,6.0,6.0,65,0.00,,,0.00,VWS V14.01,2013-06-03 15:50:00,
2013-06-03 11:51:00,69.3,57.5,30.05,North,351,7.5,9.0,66,0.00,,,0.00,VWS V14.01,2013-06-03 15:51:00,
2013-06-03 11:52:00,69.3,57.5,30.05,North,351,7.5,9.0,66,0.00,,,0.00,VWS V14.01,2013-06-03 15:52:00,
2013-06-03 11:53:00,69.4,57.6,30.05,ENE,77,15.0,15.0,66,0.00,,,0.00,VWS V14.01,2013-06-03 15:53:00,
2013-06-03 11:54:00,69.4,57.1,30.05,NNE,21,7.5,15.0,65,0.00,,,0.00,VWS V14.01,2013-06-03 15:54:00,
2013-06-03 11:55:00,69.4,58.0,30.05,WNW,293,4.5,10.5,67,0.00,,,0.00,VWS V14.01,2013-06-03 15:55:00,
2013-06-03 11:56:00,69.5,58.1,30.05,ESE,106,6.0,10.5,67,0.00,,,0.00,VWS V14.01,2013-06-03 15:56:00,
2013-06-03 11:57:00,69.6,57.8,30.05,North,359,3.0,6.0,66,0.00,,,0.00,VWS V14.01,2013-06-03 15:57:00,
2013-06-03 11:58:00,69.7,58.3,30.05,ESE,118,3.0,6.0,67,0.00,,,0.00,VWS V14.01,2013-06-03 15:58:00,
2013-06-03 11:59:00,69.8,57.9,30.05,NW,312,6.0,7.5,66,0.00,,,0.00,VWS V14.01,2013-06-03 15:59:00,
2013-06-03 12:00:00,69.9,58.0,30.05,NW,309,6.0,6.0,66,0.00,,,0.00,VWS V14.01,2013-06-03 16:00:00,
2013-06-03 12:01:00,69.9,57.2,30.05,NNE,24,7.5,7.5,64,0.00,,,0.00,VWS V14.01,2013-06-03 16:01:00,
2013-06-03 12:02:00,70.0,58.5,30.05,NE,56,6.0,9.0,67,0.00,,,0.00,VWS V14.01,2013-06-03 16:02:00,
2013-06-03 12:03:00,70.1,57.8,30.05,NNE,32,7.5,7.5,65,0.00,,,0.00,VWS V14.01,2013-06-03 16:03:00,
2013-06-03 12:04:00,70.1,57.8,30.05,NNE,31,10.5,13.5,65,0.00,,,0.00,VWS V14.01,2013-06-03 16:04:00,
2013-06-03 12:05:00,70.1,57.8,30.05,NNE,21,9.0,12.0,65,0.00,,,0.00,VWS V14.01,2013-06-03 16:05:00,
2013-06-03 12:06:00,69.9,57.2,30.05,NNW,327,10.5,18.0,64,0.00,,,0.00,VWS V14.01,2013-06-03 16:06:00,
2013-06-03 12:07:00,69.8,57.5,30.05,NE,54,9.0,9.0,65,0.00,,,0.00,VWS V14.01,2013-06-03 16:07:00,
2013-06-03 12:08:00,69.8,58.4,30.05,NE,39,7.5,12.0,67,0.00,,,0.00,VWS V14.01,2013-06-03 16:08:00,
2013-06-03 12:09:00,69.8,57.9,30.05,ENE,66,6.0,7.5,66,0.00,,,0.00,VWS V14.01,2013-06-03 16:09:00,
2013-06-03 12:10:00,69.9,58.0,30.05,NNE,21,9.0,15.0,66,0.00,,,0.00,VWS V14.01,2013-06-03 16:10:00,
2013-06-03 12:11:00,69.8,57.1,30.05,ENE,58,6.0,15.0,64,0.00,,,0.00,VWS V14.01,2013-06-03 16:11:00,
2013-06-03 12:12:00,69.7,57.4,30.05,NE,44,4.5,12.0,65,0.00,,,0.00,VWS V14.01,2013-06-03 16:12:00,
2013-06-03 12:13:00,69.7,57.8,30.05,ENE,66,7.5,9.0,66,0.00,,,0.00,VWS V14.01,2013-06-03 16:13:00,
2013-06-03 12:14:00,69.6,57.3,30.05,ENE,67,7.5,10.5,65,0.00,,,0.00,VWS V14.01,2013-06-03 16:14:00,
2013-06-03 12:15:00,69.5,57.2,30.05,North,10,15.0,15.0,65,0.00,,,0.00,VWS V14.01,2013-06-03 16:15:00,
2013-06-03 12:16:00,69.5,57.7,30.05,NNW,346,7.5,15.0,66,0.00,,,0.00,VWS V14.01,2013-06-03 16:16:00,
2013-06-03 12:17:00,69.6,58.2,30.05,NE,52,10.5,12.0,67,0.00,,,0.00,VWS V14.01,2013-06-03 16:17:00,
2013-06-03 12:18:00,69.6,57.8,30.05,NE,42,10.5,10.5,66,0.00,,,0.00,VWS V14.01,2013-06-03 16:18:00,
2013-06-03 12:19:00,69.6,57.3,30.05,NNE,32,7.5,13.5,65,0.00,,,0.00,VWS V14.01,2013-06-03 16:19:00,
2013-06-03 12:20:00,69.6,57.8,30.05,NNE,25,12.0,15.0,66,0.00,,,0.00,VWS V14.01,2013-06-03 16:20:00,
2013-06-03 12:21:00,69.8,58.4,30.05,NE,37,10.5,12.0,67,0.00,,,0.00,VWS V14.01,2013-06-03 16:21:00,
2013-06-03 12:22:00,69.8,58.4,30.05,NE,37,10.5,12.0,67,0.00,,,0.00,VWS V14.01,2013-06-03 16:22:00,
2013-06-03 12:23:00,69.8,57.5,30.04,NNE,30,10.5,12.0,65,0.00,,,0.00,VWS V14.01,2013-06-03 16:23:00,
2013-06-03 12:24:00,69.8,57.9,30.04,NNE,33,7.5,13.5,66,0.00,,,0.00,VWS V14.01,2013-06-03 16:24:00,
2013-06-03 12:25:00,69.8,57.5,30.04,ENE,59,9.0,10.5,65,0.00,,,0.00,VWS V14.01,2013-06-03 16:25:00,
2013-06-03 12:26:00,69.7,57.4,30.04,NE,42,6.0,13.5,65,0.00,,,0.00,VWS V14.01,2013-06-03 16:26:00,
2013-06-03 12:27:00,69.7,57.4,30.04,NE,42,6.0,13.5,65,0.00,,,0.00,VWS V14.01,2013-06-03 16:27:00,
2013-06-03 12:28:00,69.6,57.3,30.04,North,4,6.0,12.0,65,0.00,,,0.00,VWS V14.01,2013-06-03 16:28:00,
2013-06-03 12:29:00,69.6,57.8,30.04,North,1,3.0,6.0,66,0.00,,,0.00,VWS V14.01,2013-06-03 16:29:00,
2013-06-03 12:30:00,69.6,57.8,30.04,NNW,347,1.5,3.0,66,0.00,,,0.00,VWS V14.01,2013-06-03 16:30:00,
2013-06-03 12:31:00,69.7,57.8,30.04,NW,324,1.5,3.0,66,0.00,,,0.00,VWS V14.01,2013-06-03 16:31:00,
2013-06-03 12:32:00,69.8,58.4,30.04,West,260,7.5,7.5,67,0.00,,,0.00,VWS V14.01,2013-06-03 16:32:00,
2013-06-03 12:33:00,69.9,58.0,30.04,NW,324,12.0,12.0,66,0.00,,,0.00,VWS V14.01,2013-06-03 16:33:00,
2013-06-03 12:34:00,69.9,57.2,30.04,NW,324,7.5,15.0,64,0.00,,,0.00,VWS V14.01,2013-06-03 16:34:00,
2013-06-03 12:35:00,69.8,57.1,30.04,WNW,292,7.5,10.5,64,0.00,,,0.00,VWS V14.01,2013-06-03 16:35:00,
2013-06-03 12:36:00,69.8,57.9,30.04,WNW,296,10.5,10.5,66,0.00,,,0.00,VWS V14.01,2013-06-03 16:36:00,
2013-06-03 12:37:00,69.8,57.5,30.05,WSW,257,6.0,10.5,65,0.00,,,0.00,VWS V14.01,2013-06-03 16:37:00,
2013-06-03 12:38:00,69.8,57.5,30.04,WNW,283,3.0,6.0,65,0.00,,,0.00,VWS V14.01,2013-06-03 16:38:00,
2013-06-03 12:39:00,69.9,57.2,30.04,West,272,4.5,9.0,64,0.00,,,0.00,VWS V14.01,2013-06-03 16:39:00,
2013-06-03 12:40:00,69.9,57.2,30.05,West,276,3.0,9.0,64,0.00,,,0.00,VWS V14.01,2013-06-03 16:40:00,
2013-06-03 12:41:00,69.9,57.6,30.04,WNW,288,9.0,10.5,65,0.00,,,0.00,VWS V14.01,2013-06-03 16:41:00,
2013-06-03 12:42:00,69.9,57.6,30.04,WNW,288,9.0,10.5,65,0.00,,,0.00,VWS V14.01,2013-06-03 16:42:00,
2013-06-03 12:43:00,70.0,57.7,30.04,SW,231,6.0,10.5,65,0.00,,,0.00,VWS V14.01,2013-06-03 16:43:00,
2013-06-03 12:44:00,70.2,58.3,30.04,NW,319,3.0,10.5,66,0.00,,,0.00,VWS V14.01,2013-06-03 16:44:00,
2013-06-03 12:45:00,70.3,58.4,30.04,NNW,340,3.0,7.5,66,0.00,,,0.00,VWS V14.01,2013-06-03 16:45:00,
2013-06-03 12:46:00,70.6,58.7,30.04,NW,305,4.5,7.5,66,0.00,,,0.00,VWS V14.01,2013-06-03 16:46:00,
2013-06-03 12:47:00,70.7,58.4,30.04,NNE,14,4.5,6.0,65,0.00,,,0.00,VWS V14.01,2013-06-03 16:47:00,
2013-06-03 12:48:00,70.8,58.9,30.04,NE,49,7.5,7.5,66,0.00,,,0.00,VWS V14.01,2013-06-03 16:48:00,
2013-06-03 12:49:00,70.8,58.9,30.04,NE,52,4.5,9.0,66,0.00,,,0.00,VWS V14.01,2013-06-03 16:49:00,
2013-06-03 12:50:00,70.7,57.9,30.04,NE,45,6.0,9.0,64,0.00,,,0.00,VWS V14.01,2013-06-03 16:50:00,
2013-06-03 12:51:00,70.6,57.8,30.04,NNE,13,3.0,9.0,64,0.00,,,0.00,VWS V14.01,2013-06-03 16:51:00,
2013-06-03 12:52:00,70.6,57.4,30.04,NW,305,6.0,7.5,63,0.00,,,0.00,VWS V14.01,2013-06-03 16:52:00,
2013-06-03 12:53:00,70.5,57.3,30.04,NNW,328,6.0,9.0,63,0.00,,,0.00,VWS V14.01,2013-06-03 16:53:00,
2013-06-03 12:54:00,70.5,58.2,30.04,ESE,113,3.0,6.0,65,0.00,,,0.00,VWS V14.01,2013-06-03 16:54:00,
2013-06-03 12:55:00,70.6,57.8,30.04,WNW,285,3.0,4.5,64,0.00,,,0.00,VWS V14.01,2013-06-03 16:55:00,
2013-06-03 12:56:00,70.7,58.4,30.04,NW,319,6.0,10.5,65,0.00,,,0.00,VWS V14.01,2013-06-03 16:56:00,
2013-06-03 12:57:00,70.8,58.9,30.04,West,274,6.0,7.5,66,0.00,,,0.00,VWS V14.01,2013-06-03 16:57:00,
2013-06-03 12:58:00,71.0,58.7,30.04,North,11,9.0,15.0,65,0.00,,,0.00,VWS V14.01,2013-06-03 16:58:00,
2013-06-03 12:59:00,71.0,58.2,30.04,NNW,335,9.0,9.0,64,0.00,,,0.00,VWS V14.01,2013-06-03 16:59:00,
2013-06-03 13:00:00,71.0,58.7,30.04,North,9,6.0,9.0,65,0.00,,,0.00,VWS V14.01,2013-06-03 17:00:00,
2013-06-03 13:01:00,71.0,58.2,30.04,NE,39,12.0,12.0,64,0.00,,,0.00,VWS V14.01,2013-06-03 17:01:00,
2013-06-03 13:02:00,71.0,58.2,30.03,ESE,106,3.0,3.0,64,0.00,,,0.00,VWS V14.01,2013-06-03 17:02:00,
2013-06-03 13:03:00,71.0,58.7,30.03,NNE,33,6.0,9.0,65,0.00,,,0.00,VWS V14.01,2013-06-03 17:03:00,
2013-06-03 13:04:00,71.0,58.2,30.03,NNW,337,4.5,9.0,64,0.00,,,0.00,VWS V14.01,2013-06-03 17:04:00,
2013-06-03 13:05:00,71.0,58.2,30.03,NE,37,6.0,6.0,64,0.00,,,0.00,VWS V14.01,2013-06-03 17:05:00,
2013-06-03 13:06:00,71.1,58.3,30.03,NNE,28,4.5,7.5,64,0.00,,,0.00,VWS V14.01,2013-06-03 17:06:00,
2013-06-03 13:07:00,71.1,58.3,30.03,NNW,342,10.5,10.5,64,0.00,,,0.00,VWS V14.01,2013-06-03 17:07:00,
2013-06-03 13:08:00,71.1,58.3,30.03,West,276,7.5,10.5,64,0.00,,,0.00,VWS V14.01,2013-06-03 17:08:00,
2013-06-03 13:09:00,71.2,58.8,30.03,NW,315,4.5,9.0,65,0.00,,,0.00,VWS V14.01,2013-06-03 17:09:00,
2013-06-03 13:10:00,71.3,58.9,30.03,NNE,12,13.5,13.5,65,0.00,,,0.00,VWS V14.01,2013-06-03 17:10:00,
2013-06-03 13:11:00,71.3,58.1,30.03,NE,47,13.5,13.5,63,0.00,,,0.00,VWS V14.01,2013-06-03 17:11:00,
2013-06-03 13:12:00,71.2,58.0,30.03,NE,35,3.0,6.0,63,0.00,,,0.00,VWS V14.01,2013-06-03 17:12:00,
2013-06-03 13:13:00,71.2,58.0,30.03,NNE,30,7.5,7.5,63,0.00,,,0.00,VWS V14.01,2013-06-03 17:13:00,
2013-06-03 13:14:00,71.3,58.5,30.03,ENE,60,9.0,9.0,64,0.00,,,0.00,VWS V14.01,2013-06-03 17:14:00,
2013-06-03 13:15:00,71.3,58.1,30.03,NW,324,6.0,13.5,63,0.00,,,0.00,VWS V14.01,2013-06-03 17:15:00,
2013-06-03 13:16:00,71.2,58.4,30.03,NE,51,7.5,9.0,64,0.00,,,0.00,VWS V14.01,2013-06-03 17:16:00,
2013-06-03 13:17:00,71.2,58.4,30.03,NNE,13,10.5,10.5,64,0.00,,,0.00,VWS V14.01,2013-06-03 17:17:00,
2013-06-03 13:18:00,71.3,58.1,30.03,ENE,58,4.5,12.0,63,0.00,,,0.00,VWS V14.01,2013-06-03 17:18:00,
2013-06-03 13:19:00,71.3,57.6,30.03,NE,44,6.0,10.5,62,0.00,,,0.00,VWS V14.01,2013-06-03 17:19:00,
2013-06-03 13:20:00,71.3,57.6,30.03,ENE,74,4.5,6.0,62,0.00,,,0.00,VWS V14.01,2013-06-03 17:20:00,
2013-06-03 13:21:00,71.4,59.0,30.03,ENE,75,3.0,4.5,65,0.00,,,0.00,VWS V14.01,2013-06-03 17:21:00,
2013-06-03 13:22:00,71.6,59.7,30.03,NNW,331,9.0,10.5,66,0.00,,,0.00,VWS V14.01,2013-06-03 17:22:00,
2013-06-03 13:23:00,71.6,57.9,30.03,NNW,332,3.0,12.0,62,0.00,,,0.00,VWS V14.01,2013-06-03 17:23:00,
2013-06-03 13:24:00,71.6,57.9,30.03,WNW,303,6.0,9.0,62,0.00,,,0.00,VWS V14.01,2013-06-03 17:24:00,
2013-06-03 13:25:00,71.7,58.9,30.03,WSW,243,4.5,7.5,64,0.00,,,0.00,VWS V14.01,2013-06-03 17:25:00,
2013-06-03 13:26:00,71.8,58.5,30.03,SW,234,3.0,4.5,63,0.00,,,0.00,VWS V14.01,2013-06-03 17:26:00,
2013-06-03 13:27:00,71.9,58.2,30.03,West,261,3.0,3.0,62,0.00,,,0.00,VWS V14.01,2013-06-03 17:27:00,
2013-06-03 13:28:00,72.0,57.8,30.02,West,274,4.5,4.5,61,0.00,,,0.00,VWS V14.01,2013-06-03 17:28:00,
2013-06-03 13:29:00,72.1,58.8,30.02,ENE,65,6.0,6.0,63,0.00,,,0.00,VWS V14.01,2013-06-03 17:29:00,
2013-06-03 13:30:00,72.3,58.6,30.02,NNE,30,3.0,6.0,62,0.00,,,0.00,VWS V14.01,2013-06-03 17:30:00,
2013-06-03 13:31:00,72.4,58.7,30.02,NE,42,4.5,9.0,62,0.00,,,0.00,VWS V14.01,2013-06-03 17:31:00,
2013-06-03 13:32:00,72.5,58.3,30.02,North,355,7.5,7.5,61,0.00,,,0.00,VWS V14.01,2013-06-03 17:32:00,
2013-06-03 13:33:00,72.4,58.2,30.02,East,85,6.0,7.5,61,0.00,,,0.00,VWS V14.01,2013-06-03 17:33:00,
2013-06-03 13:34:00,72.4,58.7,30.02,ENE,69,1.5,12.0,62,0.00,,,0.00,VWS V14.01,2013-06-03 17:34:00,
2013-06-03 13:35:00,72.4,58.7,30.02,WNW,285,3.0,7.5,62,0.00,,,0.00,VWS V14.01,2013-06-03 17:35:00,
2013-06-03 13:36:00,72.6,59.3,30.02,NW,326,3.0,6.0,63,0.00,,,0.00,VWS V14.01,2013-06-03 17:36:00,
2013-06-03 13:37:00,72.8,59.0,30.02,North,350,1.5,3.0,62,0.00,,,0.00,VWS V14.01,2013-06-03 17:37:00,
2013-06-03 13:38:00,72.9,58.7,30.02,WNW,300,4.5,4.5,61,0.00,,,0.00,VWS V14.01,2013-06-03 17:38:00,
2013-06-03 13:39:00,72.9,58.2,30.02,NW,321,6.0,10.5,60,0.00,,,0.00,VWS V14.01,2013-06-03 17:39:00,
2013-06-03 13:40:00,72.8,58.1,30.02,SW,229,9.0,9.0,60,0.00,,,0.00,VWS V14.01,2013-06-03 17:40:00,
2013-06-03 13:41:00,72.7,58.9,30.02,NNW,346,9.0,9.0,62,0.00,,,0.00,VWS V14.01,2013-06-03 17:41:00,
2013-06-03 13:42:00,72.6,59.3,30.02,North,355,3.0,3.0,63,0.00,,,0.00,VWS V14.01,2013-06-03 17:42:00,
2013-06-03 13:43:00,72.6,59.3,30.02,ENE,58,7.5,9.0,63,0.00,,,0.00,VWS V14.01,2013-06-03 17:43:00,
2013-06-03 13:44:00,72.6,58.8,30.02,ENE,76,3.0,9.0,62,0.00,,,0.00,VWS V14.01,2013-06-03 17:44:00,
2013-06-03 13:45:00,72.5,58.8,30.02,North,10,9.0,9.0,62,0.00,,,0.00,VWS V14.01,2013-06-03 17:45:00,
2013-06-03 13:46:00,72.4,58.7,30.02,NW,307,6.0,12.0,62,0.00,,,0.00,VWS V14.01,2013-06-03 17:46:00,
2013-06-03 13:47:00,72.1,57.9,30.02,WSW,240,10.5,10.5,61,0.00,,,0.00,VWS V14.01,2013-06-03 17:47:00,
2013-06-03 13:48:00,71.9,57.7,30.02,WNW,288,9.0,10.5,61,0.00,,,0.00,VWS V14.01,2013-06-03 17:48:00,
2013-06-03 13:49:00,71.7,58.0,30.02,North,350,3.0,9.0,62,0.00,,,0.00,VWS V14.01,2013-06-03 17:49:00,
2013-06-03 13:50:00,71.6,57.9,30.02,WNW,303,6.0,7.5,62,0.00,,,0.00,VWS V14.01,2013-06-03 17:50:00,
2013-06-03 13:51:00,71.6,58.3,30.02,NNE,27,3.0,6.0,63,0.00,,,0.00,VWS V14.01,2013-06-03 17:51:00,
2013-06-03 13:52:00,71.6,58.3,30.02,West,278,4.5,4.5,63,0.00,,,0.00,VWS V14.01,2013-06-03 17:52:00,
2013-06-03 13:53:00,71.7,58.5,30.02,West,279,6.0,6.0,63,0.00,,,0.00,VWS V14.01,2013-06-03 17:53:00,
2013-06-03 13:54:00,71.8,58.5,30.02,NW,321,9.0,9.0,63,0.00,,,0.00,VWS V14.01,2013-06-03 17:54:00,
2013-06-03 13:55:00,71.7,58.0,30.02,WSW,255,6.0,9.0,62,0.00,,,0.00,VWS V14.01,2013-06-03 17:55:00,
2013-06-03 13:56:00,71.6,58.3,30.02,West,280,4.5,10.5,63,0.00,,,0.00,VWS V14.01,2013-06-03 17:56:00,
2013-06-03 13:57:00,71.6,57.9,30.02,NNW,343,3.0,4.5,62,0.00,,,0.00,VWS V14.01,2013-06-03 17:57:00,
2013-06-03 13:58:00,71.7,58.0,30.02,WNW,296,6.0,7.5,62,0.00,,,0.00,VWS V14.01,2013-06-03 17:58:00,
2013-06-03 13:59:00,71.7,58.0,30.02,North,359,4.5,6.0,62,0.00,,,0.00,VWS V14.01,2013-06-03 17:59:00,
2013-06-03 14:00:00,71.8,58.1,30.02,West,279,6.0,7.5,62,0.00,,,0.00,VWS V14.01,2013-06-03 18:00:00,
2013-06-03 14:01:00,71.8,58.1,30.01,SW,233,6.0,9.0,62,0.00,,,0.00,VWS V14.01,2013-06-03 18:01:00,
2013-06-03 14:02:00,71.9,58.6,30.01,WNW,296,4.5,6.0,63,0.00,,,0.00,VWS V14.01,2013-06-03 18:02:00,
2013-06-03 14:03:00,71.9,58.2,30.01,West,267,3.0,6.0,62,0.00,,,0.00,VWS V14.01,2013-06-03 18:03:00,
2013-06-03 14:04:00,72.0,57.8,30.01,West,278,6.0,10.5,61,0.00,,,0.00,VWS V14.01,2013-06-03 18:04:00,
2013-06-03 14:05:00,71.9,57.3,30.01,West,272,7.5,7.5,60,0.00,,,0.00,VWS V14.01,2013-06-03 18:05:00,
2013-06-03 14:06:00,71.8,57.6,30.01,WSW,241,3.0,7.5,61,0.00,,,0.00,VWS V14.01,2013-06-03 18:06:00,
2013-06-03 14:07:00,71.8,57.6,30.01,NW,309,4.5,6.0,61,0.00,,,0.00,VWS V14.01,2013-06-03 18:07:00,
2013-06-03 14:08:00,71.8,58.5,30.01,NE,42,6.0,12.0,63,0.00,,,0.00,VWS V14.01,2013-06-03 18:08:00,
2013-06-03 14:09:00,71.9,58.2,30.01,NNE,26,4.5,9.0,62,0.00,,,0.00,VWS V14.01,2013-06-03 18:09:00,
2013-06-03 14:10:00,72.0,58.3,30.01,East,81,6.0,10.5,62,0.00,,,0.00,VWS V14.01,2013-06-03 18:10:00,
2013-06-03 14:11:00,72.1,59.3,30.01,North,9,9.0,12.0,64,0.00,,,0.00,VWS V14.01,2013-06-03 18:11:00,
2013-06-03 14:12:00,72.2,58.5,30.01,North,11,6.0,15.0,62,0.00,,,0.00,VWS V14.01,2013-06-03 18:12:00,
2013-06-03 14:13:00,72.4,59.5,30.01,North,354,10.5,13.5,64,0.00,,,0.00,VWS V14.01,2013-06-03 18:13:00,
2013-06-03 14:14:00,72.4,58.7,30.01,NE,45,6.0,12.0,62,0.00,,,0.00,VWS V14.01,2013-06-03 18:14:00,
2013-06-03 14:15:00,72.4,58.7,30.01,North,9,12.0,12.0,62,0.00,,,0.00,VWS V14.01,2013-06-03 18:15:00,
2013-06-03 14:16:00,72.4,58.2,30.01,NE,46,6.0,12.0,61,0.00,,,0.00,VWS V14.01,2013-06-03 18:16:00,
2013-06-03 14:17:00,72.3,58.1,30.01,NW,313,3.0,9.0,61,0.00,,,0.00,VWS V14.01,2013-06-03 18:17:00,
2013-06-03 14:18:00,72.4,57.8,30.01,North,9,7.5,9.0,60,0.00,,,0.00,VWS V14.01,2013-06-03 18:18:00,
2013-06-03 14:19:00,72.4,58.7,30.01,NNE,21,10.5,12.0,62,0.00,,,0.00,VWS V14.01,2013-06-03 18:19:00,
2013-06-03 14:20:00,72.4,58.2,30.01,ENE,69,4.5,10.5,61,0.00,,,0.00,VWS V14.01,2013-06-03 18:20:00,
2013-06-03 14:21:00,72.4,58.2,30.01,NE,37,4.5,6.0,61,0.00,,,0.00,VWS V14.01,2013-06-03 18:21:00,
2013-06-03 14:22:00,72.5,58.3,30.01,ENE,60,6.0,7.5,61,0.00,,,0.00,VWS V14.01,2013-06-03 18:22:00,
2013-06-03 14:23:00,72.5,58.3,30.01,NNW,333,6.0,6.0,61,0.00,,,0.00,VWS V14.01,2013-06-03 18:23:00,
2013-06-03 14:24:00,72.6,58.4,30.01,NW,321,7.5,9.0,61,0.00,,,0.00,VWS V14.01,2013-06-03 18:24:00,
2013-06-03 14:25:00,72.5,57.8,30.01,North,359,6.0,12.0,60,0.00,,,0.00,VWS V14.01,2013-06-03 18:25:00,
2013-06-03 14:26:00,72.4,57.8,30.01,NW,316,6.0,7.5,60,0.00,,,0.00,VWS V14.01,2013-06-03 18:26:00,
2013-06-03 14:27:00,72.3,57.7,30.00,NNW,328,10.5,10.5,60,0.00,,,0.00,VWS V14.01,2013-06-03 18:27:00,
2013-06-03 14:28:00,72.2,58.0,30.00,NE,39,12.0,13.5,61,0.00,,,0.00,VWS V14.01,2013-06-03 18:28:00,
2013-06-03 14:29:00,72.1,57.9,30.00,WNW,286,4.5,12.0,61,0.00,,,0.00,VWS V14.01,2013-06-03 18:29:00,
2013-06-03 14:30:00,72.1,58.4,30.00,NNW,340,3.0,4.5,62,0.00,,,0.00,VWS V14.01,2013-06-03 18:30:00,
2013-06-03 14:31:00,72.1,58.8,30.00,WNW,285,3.0,6.0,63,0.00,,,0.00,VWS V14.01,2013-06-03 18:31:00,
2013-06-03 14:32:00,72.2,58.5,30.00,NE,49,4.5,9.0,62,0.00,,,0.00,VWS V14.01,2013-06-03 18:32:00,
2013-06-03 14:33:00,72.2,58.0,30.00,NE,49,3.0,6.0,61,0.00,,,0.00,VWS V14.01,2013-06-03 18:33:00,
2013-06-03 14:34:00,72.2,58.5,30.00,NW,319,6.0,6.0,62,0.00,,,0.00,VWS V14.01,2013-06-03 18:34:00,
2013-06-03 14:35:00,72.2,58.0,30.00,NW,310,4.5,9.0,61,0.00,,,0.00,VWS V14.01,2013-06-03 18:35:00,
2013-06-03 14:36:00,72.2,58.0,30.00,NNW,339,7.5,12.0,61,0.00,,,0.00,VWS V14.01,2013-06-03 18:36:00,
2013-06-03 14:37:00,72.0,57.8,30.00,North,8,7.5,13.5,61,0.00,,,0.00,VWS V14.01,2013-06-03 18:37:00,
2013-06-03 14:38:00,71.9,58.2,30.00,West,274,4.5,7.5,62,0.00,,,0.00,VWS V14.01,2013-06-03 18:38:00,
2013-06-03 14:39:00,71.8,58.1,30.00,NW,319,4.5,9.0,62,0.00,,,0.00,VWS V14.01,2013-06-03 18:39:00,
2013-06-03 14:40:00,71.8,58.1,30.00,NW,310,10.5,10.5,62,0.00,,,0.00,VWS V14.01,2013-06-03 18:40:00,
2013-06-03 14:41:00,71.7,58.5,30.00,NW,326,9.0,18.0,63,0.00,,,0.00,VWS V14.01,2013-06-03 18:41:00,
2013-06-03 14:42:00,71.7,58.5,30.00,NW,326,9.0,18.0,63,0.00,,,0.00,VWS V14.01,2013-06-03 18:42:00,
2013-06-03 14:43:00,71.6,58.3,30.00,NW,321,12.0,15.0,63,0.00,,,0.00,VWS V14.01,2013-06-03 18:43:00,
2013-06-03 14:44:00,71.5,57.8,30.00,NNW,335,4.5,12.0,62,0.00,,,0.00,VWS V14.01,2013-06-03 18:44:00,
2013-06-03 14:45:00,71.5,59.1,30.00,NNW,329,4.5,6.0,65,0.00,,,0.00,VWS V14.01,2013-06-03 18:45:00,
2013-06-03 14:46:00,71.6,58.8,30.00,NW,319,15.0,15.0,64,0.00,,,0.00,VWS V14.01,2013-06-03 18:46:00,
2013-06-03 14:47:00,71.6,57.5,30.00,NW,313,13.5,15.0,61,0.00,,,0.00,VWS V14.01,2013-06-03 18:47:00,
2013-06-03 14:48:00,71.5,58.3,30.00,NE,35,10.5,13.5,63,0.00,,,0.00,VWS V14.01,2013-06-03 18:48:00,
2013-06-03 14:49:00,71.5,58.3,30.00,NNE,26,6.0,15.0,63,0.00,,,0.00,VWS V14.01,2013-06-03 18:49:00,
2013-06-03 14:50:00,71.6,58.3,30.00,NNE,12,4.5,7.5,63,0.00,,,0.00,VWS V14.01,2013-06-03 18:50:00,
2013-06-03 14:51:00,71.9,58.2,30.00,NE,52,3.0,10.5,62,0.00,,,0.00,VWS V14.01,2013-06-03 18:51:00,
2013-06-03 14:52:00,71.9,58.2,30.00,NE,52,3.0,10.5,62,0.00,,,0.00,VWS V14.01,2013-06-03 18:52:00,
2013-06-03 14:53:00,72.0,58.7,30.00,North,356,15.0,15.0,63,0.00,,,0.00,VWS V14.01,2013-06-03 18:53:00,
2013-06-03 14:54:00,72.1,59.3,30.00,NE,49,9.0,15.0,64,0.00,,,0.00,VWS V14.01,2013-06-03 18:54:00,
2013-06-03 14:55:00,72.2,59.4,30.00,East,87,6.0,10.5,64,0.00,,,0.00,VWS V14.01,2013-06-03 18:55:00,
2013-06-03 14:56:00,72.5,59.2,30.00,NE,44,9.0,12.0,63,0.00,,,0.00,VWS V14.01,2013-06-03 18:56:00,
2013-06-03 14:57:00,72.5,59.2,30.00,ENE,76,10.5,12.0,63,0.00,,,0.00,VWS V14.01,2013-06-03 18:57:00,
2013-06-03 14:58:00,72.5,58.8,30.00,NNE,21,4.5,12.0,62,0.00,,,0.00,VWS V14.01,2013-06-03 18:58:00,
2013-06-03 14:59:00,72.6,58.4,30.00,ENE,67,1.5,4.5,61,0.00,,,0.00,VWS V14.01,2013-06-03 18:59:00,
2013-06-03 15:00:00,72.7,58.9,30.00,NNE,26,7.5,7.5,62,0.00,,,0.00,VWS V14.01,2013-06-03 19:00:00,
2013-06-03 15:01:00,72.7,58.5,30.00,WNW,294,6.0,7.5,61,0.00,,,0.00,VWS V14.01,2013-06-03 19:01:00,
2013-06-03 15:02:00,72.7,58.0,30.00,NE,52,9.0,9.0,60,0.00,,,0.00,VWS V14.01,2013-06-03 19:02:00,
2013-06-03 15:03:00,72.6,58.4,30.00,NNW,345,9.0,13.5,61,0.00,,,0.00,VWS V14.01,2013-06-03 19:03:00,
2013-06-03 15:04:00,72.6,58.4,30.00,NNW,343,6.0,9.0,61,0.00,,,0.00,VWS V14.01,2013-06-03 19:04:00,
2013-06-03 15:05:00,72.6,58.4,30.00,ENE,74,7.5,9.0,61,0.00,,,0.00,VWS V14.01,2013-06-03 19:05:00,
2013-06-03 15:06:00,72.5,57.4,30.00,NE,49,7.5,9.0,59,0.00,,,0.00,VWS V14.01,2013-06-03 19:06:00,
2013-06-03 15:07:00,72.5,57.4,30.00,NNW,348,6.0,6.0,59,0.00,,,0.00,VWS V14.01,2013-06-03 19:07:00,
2013-06-03 15:08:00,72.5,57.8,30.00,NNE,18,9.0,10.5,60,0.00,,,0.00,VWS V14.01,2013-06-03 19:08:00,
2013-06-03 15:09:00,72.5,57.4,29.99,NNE,24,7.5,10.5,59,0.00,,,0.00,VWS V14.01,2013-06-03 19:09:00,
2013-06-03 15:10:00,72.5,56.9,29.99,NE,39,6.0,7.5,58,0.00,,,0.00,VWS V14.01,2013-06-03 19:10:00,
2013-06-03 15:11:00,72.6,57.0,30.00,NE,46,6.0,7.5,58,0.00,,,0.00,VWS V14.01,2013-06-03 19:11:00,
2013-06-03 15:12:00,72.6,57.0,30.00,NE,46,6.0,7.5,58,0.00,,,0.00,VWS V14.01,2013-06-03 19:12:00,
2013-06-03 15:13:00,72.6,57.0,29.99,NNE,18,4.5,6.0,58,0.00,,,0.00,VWS V14.01,2013-06-03 19:13:00,
2013-06-03 15:14:00,72.7,57.6,29.99,NE,49,4.5,6.0,59,0.00,,,0.00,VWS V14.01,2013-06-03 19:14:00,
2013-06-03 15:15:00,72.8,58.1,29.99,North,352,4.5,6.0,60,0.00,,,0.00,VWS V14.01,2013-06-03 19:15:00,
2013-06-03 15:16:00,72.9,57.3,29.99,West,259,6.0,7.5,58,0.00,,,0.00,VWS V14.01,2013-06-03 19:16:00,
2013-06-03 15:17:00,72.8,57.2,29.99,NW,319,9.0,10.5,58,0.00,,,0.00,VWS V14.01,2013-06-03 19:17:00,
2013-06-03 15:18:00,72.9,58.2,29.99,WNW,293,9.0,12.0,60,0.00,,,0.00,VWS V14.01,2013-06-03 19:18:00,
2013-06-03 15:19:00,72.9,57.3,29.99,WNW,299,10.5,10.5,58,0.00,,,0.00,VWS V14.01,2013-06-03 19:19:00,
2013-06-03 15:20:00,72.9,57.3,29.99,WNW,300,9.0,12.0,58,0.00,,,0.00,VWS V14.01,2013-06-03 19:20:00,
2013-06-03 15:21:00,72.9,56.8,29.99,NW,310,4.5,13.5,57,0.00,,,0.00,VWS V14.01,2013-06-03 19:21:00,
2013-06-03 15:22:00,72.8,57.2,29.99,North,357,13.5,13.5,58,0.00,,,0.00,VWS V14.01,2013-06-03 19:22:00,
2013-06-03 15:23:00,72.8,57.7,29.99,SW,221,3.0,13.5,59,0.00,,,0.00,VWS V14.01,2013-06-03 19:23:00,
2013-06-03 15:24:00,72.9,59.1,29.99,WNW,282,3.0,6.0,62,0.00,,,0.00,VWS V14.01,2013-06-03 19:24:00,
2013-06-03 15:25:00,72.9,58.7,30.00,NW,324,7.5,7.5,61,0.00,,,0.00,VWS V14.01,2013-06-03 19:25:00,
2013-06-03 15:26:00,72.9,58.2,30.00,NE,55,10.5,10.5,60,0.00,,,0.00,VWS V14.01,2013-06-03 19:26:00,
2013-06-03 15:27:00,72.9,58.7,30.00,NW,319,7.5,12.0,61,0.00,,,0.00,VWS V14.01,2013-06-03 19:27:00,
2013-06-03 15:28:00,72.8,58.6,30.00,WNW,296,6.0,10.5,61,0.00,,,0.00,VWS V14.01,2013-06-03 19:28:00,
2013-06-03 15:29:00,72.8,58.6,30.00,NNE,31,4.5,9.0,61,0.00,,,0.00,VWS V14.01,2013-06-03 19:29:00,
2013-06-03 15:30:00,72.8,59.0,30.00,North,355,10.5,10.5,62,0.00,,,0.00,VWS V14.01,2013-06-03 19:30:00,
2013-06-03 15:31:00,72.7,58.5,30.00,NE,36,4.5,10.5,61,0.00,,,0.00,VWS V14.01,2013-06-03 19:31:00,
2013-06-03 15:32:00,72.6,58.4,29.99,NNW,342,6.0,6.0,61,0.00,,,0.00,VWS V14.01,2013-06-03 19:32:00,
2013-06-03 15:33:00,72.5,58.3,30.00,North,2,7.5,7.5,61,0.00,,,0.00,VWS V14.01,2013-06-03 19:33:00,
2013-06-03 15:34:00,72.4,58.7,30.00,NW,312,6.0,7.5,62,0.00,,,0.00,VWS V14.01,2013-06-03 19:34:00,
2013-06-03 15:35:00,72.4,58.7,30.00,East,83,3.0,6.0,62,0.00,,,0.00,VWS V14.01,2013-06-03 19:35:00,
2013-06-03 15:36:00,72.4,58.7,30.00,West,276,4.5,9.0,62,0.00,,,0.00,VWS V14.01,2013-06-03 19:36:00,
2013-06-03 15:37:00,72.5,57.8,30.00,NW,316,7.5,9.0,60,0.00,,,0.00,VWS V14.01,2013-06-03 19:37:00,
2013-06-03 15:38:00,72.4,58.2,30.00,WNW,293,3.0,9.0,61,0.00,,,0.00,VWS V14.01,2013-06-03 19:38:00,
2013-06-03 15:39:00,72.4,58.7,30.00,NW,319,1.5,3.0,62,0.00,,,0.00,VWS V14.01,2013-06-03 19:39:00,
2013-06-03 15:40:00,72.5,58.3,30.00,NE,38,9.0,9.0,61,0.00,,,0.00,VWS V14.01,2013-06-03 19:40:00,
2013-06-03 15:41:00,72.5,58.3,30.00,NE,49,6.0,9.0,61,0.00,,,0.00,VWS V14.01,2013-06-03 19:41:00,
2013-06-03 15:42:00,72.5,57.8,30.00,ENE,59,4.5,9.0,60,0.00,,,0.00,VWS V14.01,2013-06-03 19:42:00,
2013-06-03 15:43:00,72.6,58.4,30.00,NNE,16,3.0,6.0,61,0.00,,,0.00,VWS V14.01,2013-06-03 19:43:00,
2013-06-03 15:44:00,72.6,58.4,30.00,WSW,257,3.0,4.5,61,0.00,,,0.00,VWS V14.01,2013-06-03 19:44:00,
2013-06-03 15:45:00,72.7,58.5,30.00,North,11,7.5,7.5,61,0.00,,,0.00,VWS V14.01,2013-06-03 19:45:00,
2013-06-03 15:46:00,72.7,58.0,30.00,NW,306,4.5,7.5,60,0.00,,,0.00,VWS V14.01,2013-06-03 19:46:00,
2013-06-03 15:47:00,72.6,57.5,30.00,NW,308,3.0,6.0,59,0.00,,,0.00,VWS V14.01,2013-06-03 19:47:00,
2013-06-03 15:48:00,72.6,57.9,30.00,ENE,70,3.0,3.0,60,0.00,,,0.00,VWS V14.01,2013-06-03 19:48:00,
2013-06-03 15:49:00,72.7,58.5,30.00,NNE,21,4.5,7.5,61,0.00,,,0.00,VWS V14.01,2013-06-03 19:49:00,
2013-06-03 15:50:00,72.7,58.9,30.00,NNE,23,9.0,10.5,62,0.00,,,0.00,VWS V14.01,2013-06-03 19:50:00,
2013-06-03 15:51:00,72.7,57.6,30.00,ENE,77,4.5,10.5,59,0.00,,,0.00,VWS V14.01,2013-06-03 19:51:00,
2013-06-03 15:52:00,72.7,57.6,30.00,ENE,68,4.5,4.5,59,0.00,,,0.00,VWS V14.01,2013-06-03 19:52:00,
2013-06-03 15:53:00,72.6,57.9,29.99,NNE,21,7.5,7.5,60,0.00,,,0.00,VWS V14.01,2013-06-03 19:53:00,
2013-06-03 15:54:00,72.7,58.5,29.99,NW,305,4.5,7.5,61,0.00,,,0.00,VWS V14.01,2013-06-03 19:54:00,
2013-06-03 15:55:00,72.9,58.2,29.99,NW,324,4.5,9.0,60,0.00,,,0.00,VWS V14.01,2013-06-03 19:55:00,
2013-06-03 15:56:00,73.0,58.3,29.99,WSW,252,4.5,6.0,60,0.00,,,0.00,VWS V14.01,2013-06-03 19:56:00,
2013-06-03 15:57:00,73.2,58.5,29.99,WNW,288,4.5,4.5,60,0.00,,,0.00,VWS V14.01,2013-06-03 19:57:00,
2013-06-03 15:58:00,73.3,58.1,29.99,WNW,300,7.5,7.5,59,0.00,,,0.00,VWS V14.01,2013-06-03 19:58:00,
2013-06-03 15:59:00,73.5,57.8,29.99,WNW,286,4.5,9.0,58,0.00,,,0.00,VWS V14.01,2013-06-03 19:59:00,
2013-06-03 16:00:00,73.5,58.3,29.99,ENE,60,3.0,4.5,59,0.00,,,0.00,VWS V14.01,2013-06-03 20:00:00,
2013-06-03 16:01:00,73.7,57.5,29.99,WNW,300,3.0,6.0,57,0.00,,,0.00,VWS V14.01,2013-06-03 20:01:00,
2013-06-03 16:02:00,73.7,58.0,29.99,North,4,3.0,4.5,58,0.00,,,0.00,VWS V14.01,2013-06-03 20:02:00,
2013-06-03 16:03:00,73.8,58.6,29.99,NE,39,7.5,9.0,59,0.00,,,0.00,VWS V14.01,2013-06-03 20:03:00,
2013-06-03 16:04:00,73.7,58.0,29.99,NE,46,7.5,15.0,58,0.00,,,0.00,VWS V14.01,2013-06-03 20:04:00,
2013-06-03 16:05:00,73.7,58.5,29.99,NNE,27,7.5,9.0,59,0.00,,,0.00,VWS V14.01,2013-06-03 20:05:00,
2013-06-03 16:06:00,73.7,58.0,29.99,NE,38,13.5,13.5,58,0.00,,,0.00,VWS V14.01,2013-06-03 20:06:00,
2013-06-03 16:07:00,73.6,57.9,29.99,NNE,13,6.0,6.0,58,0.00,,,0.00,VWS V14.01,2013-06-03 20:07:00,
2013-06-03 16:08:00,73.6,57.9,29.99,NW,326,7.5,12.0,58,0.00,,,0.00,VWS V14.01,2013-06-03 20:08:00,
2013-06-03 16:09:00,73.6,57.9,29.99,NW,305,6.0,9.0,58,0.00,,,0.00,VWS V14.01,2013-06-03 20:09:00,
2013-06-03 16:10:00,73.6,57.0,29.99,NNW,345,4.5,9.0,56,0.00,,,0.00,VWS V14.01,2013-06-03 20:10:00,
2013-06-03 16:11:00,73.5,57.3,29.99,NE,35,7.5,7.5,57,0.00,,,0.00,VWS V14.01,2013-06-03 20:11:00,
2013-06-03 16:12:00,73.5,57.3,29.99,North,2,1.5,1.5,57,0.00,,,0.00,VWS V14.01,2013-06-03 20:12:00,
2013-06-03 16:13:00,73.6,58.4,29.99,NW,319,4.5,6.0,59,0.00,,,0.00,VWS V14.01,2013-06-03 20:13:00,
2013-06-03 16:14:00,73.7,58.5,29.99,NNW,328,4.5,4.5,59,0.00,,,0.00,VWS V14.01,2013-06-03 20:14:00,
2013-06-03 16:15:00,73.8,58.1,29.99,NW,319,4.5,10.5,58,0.00,,,0.00,VWS V14.01,2013-06-03 20:15:00,
2013-06-03 16:16:00,73.7,57.0,29.99,NW,310,3.0,6.0,56,0.00,,,0.00,VWS V14.01,2013-06-03 20:16:00,
2013-06-03 16:17:00,73.6,57.9,29.98,WNW,303,9.0,9.0,58,0.00,,,0.00,VWS V14.01,2013-06-03 20:17:00,
2013-06-03 16:18:00,73.6,57.0,29.98,West,281,6.0,10.5,56,0.00,,,0.00,VWS V14.01,2013-06-03 20:18:00,
2013-06-03 16:19:00,73.5,57.3,29.98,West,267,6.0,7.5,57,0.00,,,0.00,VWS V14.01,2013-06-03 20:19:00,
2013-06-03 16:20:00,73.4,57.3,29.99,West,269,6.0,6.0,57,0.00,,,0.00,VWS V14.01,2013-06-03 20:20:00,
2013-06-03 16:21:00,73.3,57.7,29.98,WSW,252,6.0,9.0,58,0.00,,,0.00,VWS V14.01,2013-06-03 20:21:00,
2013-06-03 16:22:00,73.2,56.6,29.98,NW,322,6.0,6.0,56,0.00,,,0.00,VWS V14.01,2013-06-03 20:22:00,
2013-06-03 16:23:00,73.1,57.0,29.98,WSW,247,7.5,10.5,57,0.00,,,0.00,VWS V14.01,2013-06-03 20:23:00,
2013-06-03 16:24:00,73.0,56.9,29.99,NW,310,7.5,10.5,57,0.00,,,0.00,VWS V14.01,2013-06-03 20:24:00,
2013-06-03 16:25:00,72.8,56.7,29.99,WNW,293,4.5,7.5,57,0.00,,,0.00,VWS V14.01,2013-06-03 20:25:00,
2013-06-03 16:26:00,72.8,56.7,29.99,West,281,4.5,6.0,57,0.00,,,0.00,VWS V14.01,2013-06-03 20:26:00,
2013-06-03 16:27:00,72.6,56.0,29.99,NW,321,7.5,7.5,56,0.00,,,0.00,VWS V14.01,2013-06-03 20:27:00,
2013-06-03 16:28:00,72.6,56.5,29.99,NNW,345,6.0,7.5,57,0.00,,,0.00,VWS V14.01,2013-06-03 20:28:00,
2013-06-03 16:29:00,72.5,56.9,29.99,North,355,6.0,6.0,58,0.00,,,0.00,VWS V14.01,2013-06-03 20:29:00,
2013-06-03 16:30:00,72.4,57.3,29.99,WNW,296,1.5,6.0,59,0.00,,,0.00,VWS V14.01,2013-06-03 20:30:00,
2013-06-03 16:31:00,72.5,57.8,29.99,NNW,337,6.0,7.5,60,0.00,,,0.00,VWS V14.01,2013-06-03 20:31:00,
2013-06-03 16:32:00,72.5,57.8,29.99,WNW,291,10.5,10.5,60,0.00,,,0.00,VWS V14.01,2013-06-03 20:32:00,
2013-06-03 16:33:00,72.4,56.8,29.99,NW,321,6.0,10.5,58,0.00,,,0.00,VWS V14.01,2013-06-03 20:33:00,
2013-06-03 16:34:00,72.3,56.7,29.99,NW,326,3.0,9.0,58,0.00,,,0.00,VWS V14.01,2013-06-03 20:34:00,
2013-06-03 16:35:00,72.2,57.6,29.99,NNE,14,3.0,6.0,60,0.00,,,0.00,VWS V14.01,2013-06-03 20:35:00,
2013-06-03 16:36:00,72.2,57.6,29.99,NNW,347,6.0,6.0,60,0.00,,,0.00,VWS V14.01,2013-06-03 20:36:00,
2013-06-03 16:37:00,72.2,56.6,29.99,North,11,6.0,6.0,58,0.00,,,0.00,VWS V14.01,2013-06-03 20:37:00,
2013-06-03 16:38:00,72.2,56.6,29.99,NNW,340,4.5,6.0,58,0.00,,,0.00,VWS V14.01,2013-06-03 20:38:00,
2013-06-03 16:39:00,72.1,57.0,29.99,NNW,342,4.5,4.5,59,0.00,,,0.00,VWS V14.01,2013-06-03 20:39:00,
2013-06-03 16:40:00,72.1,57.5,29.99,NNW,343,9.0,9.0,60,0.00,,,0.00,VWS V14.01,2013-06-03 20:40:00,
2013-06-03 16:41:00,71.9,56.8,29.99,WNW,299,6.0,9.0,59,0.00,,,0.00,VWS V14.01,2013-06-03 20:41:00,
2013-06-03 16:42:00,71.9,56.8,29.99,WNW,288,4.5,6.0,59,0.00,,,0.00,VWS V14.01,2013-06-03 20:42:00,
2013-06-03 16:43:00,71.9,57.3,29.99,WNW,284,7.5,7.5,60,0.00,,,0.00,VWS V14.01,2013-06-03 20:43:00,
2013-06-03 16:44:00,71.8,56.7,29.99,NNW,331,3.0,7.5,59,0.00,,,0.00,VWS V14.01,2013-06-03 20:44:00,
2013-06-03 16:45:00,71.8,57.2,29.99,WSW,247,3.0,6.0,60,0.00,,,0.00,VWS V14.01,2013-06-03 20:45:00,
2013-06-03 16:46:00,71.8,57.6,29.99,NNE,16,4.5,4.5,61,0.00,,,0.00,VWS V14.01,2013-06-03 20:46:00,
2013-06-03 16:47:00,71.9,57.7,29.99,North,5,7.5,7.5,61,0.00,,,0.00,VWS V14.01,2013-06-03 20:47:00,
2013-06-03 16:48:00,71.9,57.7,29.99,North,355,4.5,7.5,61,0.00,,,0.00,VWS V14.01,2013-06-03 20:48:00,
2013-06-03 16:49:00,71.8,57.6,29.99,NW,307,1.5,4.5,61,0.00,,,0.00,VWS V14.01,2013-06-03 20:49:00,
2013-06-03 16:50:00,71.8,58.1,29.99,NW,307,1.5,3.0,62,0.00,,,0.00,VWS V14.01,2013-06-03 20:50:00,
2013-06-03 16:51:00,71.9,58.2,29.99,NW,321,3.0,4.5,62,0.00,,,0.00,VWS V14.01,2013-06-03 20:51:00,
2013-06-03 16:52:00,71.9,57.7,29.99,North,351,7.5,7.5,61,0.00,,,0.00,VWS V14.01,2013-06-03 20:52:00,
2013-06-03 16:53:00,71.9,58.2,29.99,NNW,335,4.5,7.5,62,0.00,,,0.00,VWS V14.01,2013-06-03 20:53:00,
2013-06-03 16:54:00,71.8,57.2,29.99,NNE,24,3.0,4.5,60,0.00,,,0.00,VWS V14.01,2013-06-03 20:54:00,
2013-06-03 16:55:00,71.9,58.2,29.99,NE,39,3.0,6.0,62,0.00,,,0.00,VWS V14.01,2013-06-03 20:55:00,
2013-06-03 16:56:00,72.0,58.7,29.99,NW,326,3.0,4.5,63,0.00,,,0.00,VWS V14.01,2013-06-03 20:56:00,
2013-06-03 16:57:00,72.1,57.9,29.98,NE,35,4.5,6.0,61,0.00,,,0.00,VWS V14.01,2013-06-03 20:57:00,
2013-06-03 16:58:00,72.2,58.0,29.98,North,349,6.0,7.5,61,0.00,,,0.00,VWS V14.01,2013-06-03 20:58:00,
2013-06-03 16:59:00,72.2,58.0,29.98,NW,326,4.5,6.0,61,0.00,,,0.00,VWS V14.01,2013-06-03 20:59:00,
2013-06-03 17:00:00,72.2,58.0,29.98,NNW,336,1.5,3.0,61,0.00,,,0.00,VWS V14.01,2013-06-03 21:00:00,
2013-06-03 17:01:00,72.3,58.1,29.98,NNW,337,1.5,4.5,61,0.00,,,0.00,VWS V14.01,2013-06-03 21:01:00,
2013-06-03 17:02:00,72.4,58.2,29.98,NNE,16,6.0,6.0,61,0.00,,,0.00,VWS V14.01,2013-06-03 21:02:00,
2013-06-03 17:03:00,72.4,58.2,29.98,NE,35,4.5,6.0,61,0.00,,,0.00,VWS V14.01,2013-06-03 21:03:00,
2013-06-03 17:04:00,72.4,58.2,29.98,NW,306,7.5,7.5,61,0.00,,,0.00,VWS V14.01,2013-06-03 21:04:00,
2013-06-03 17:05:00,72.3,57.7,29.98,NNW,333,6.0,7.5,60,0.00,,,0.00,VWS V14.01,2013-06-03 21:05:00,
2013-06-03 17:06:00,72.2,58.5,29.98,ENE,60,4.5,7.5,62,0.00,,,0.00,VWS V14.01,2013-06-03 21:06:00,
2013-06-03 17:07:00,72.2,58.5,29.98,NW,309,3.0,3.0,62,0.00,,,0.00,VWS V14.01,2013-06-03 21:07:00,
2013-06-03 17:08:00,72.2,58.9,29.98,NW,310,4.5,4.5,63,0.00,,,0.00,VWS V14.01,2013-06-03 21:08:00,
2013-06-03 17:09:00,72.2,58.5,29.98,North,352,4.5,9.0,62,0.00,,,0.00,VWS V14.01,2013-06-03 21:09:00,
2013-06-03 17:10:00,72.2,58.0,29.99,NE,56,7.5,7.5,61,0.00,,,0.00,VWS V14.01,2013-06-03 21:10:00,
2013-06-03 17:11:00,72.1,57.5,29.98,North,360,9.0,12.0,60,0.00,,,0.00,VWS V14.01,2013-06-03 21:11:00,
2013-06-03 17:12:00,72.0,57.4,29.98,NW,312,1.5,3.0,60,0.00,,,0.00,VWS V14.01,2013-06-03 21:12:00,
2013-06-03 17:13:00,71.9,57.3,29.98,NW,306,4.5,6.0,60,0.00,,,0.00,VWS V14.01,2013-06-03 21:13:00,
2013-06-03 17:14:00,71.9,57.7,29.98,WNW,287,3.0,6.0,61,0.00,,,0.00,VWS V14.01,2013-06-03 21:14:00,
2013-06-03 17:15:00,71.9,58.2,29.98,WNW,291,3.0,3.0,62,0.00,,,0.00,VWS V14.01,2013-06-03 21:15:00,
2013-06-03 17:16:00,71.9,58.6,29.98,NW,310,3.0,4.5,63,0.00,,,0.00,VWS V14.01,2013-06-03 21:16:00,
2013-06-03 17:17:00,72.0,58.7,29.98,North,11,3.0,3.0,63,0.00,,,0.00,VWS V14.01,2013-06-03 21:17:00,
2013-06-03 17:18:00,72.0,58.7,29.98,North,11,3.0,3.0,63,0.00,,,0.00,VWS V14.01,2013-06-03 21:18:00,
2013-06-03 17:19:00,72.0,58.7,29.98,North,9,4.5,6.0,63,0.00,,,0.00,VWS V14.01,2013-06-03 21:19:00,
2013-06-03 17:20:00,72.1,58.8,29.98,NNE,21,1.5,4.5,63,0.00,,,0.00,VWS V14.01,2013-06-03 21:20:00,
2013-06-03 17:21:00,72.1,59.3,29.98,North,355,7.5,9.0,64,0.00,,,0.00,VWS V14.01,2013-06-03 21:21:00,
2013-06-03 17:22:00,72.0,57.8,29.98,NNE,32,7.5,9.0,61,0.00,,,0.00,VWS V14.01,2013-06-03 21:22:00,
2013-06-03 17:23:00,72.0,57.8,29.98,NE,38,9.0,10.5,61,0.00,,,0.00,VWS V14.01,2013-06-03 21:23:00,
2013-06-03 17:24:00,71.9,57.7,29.98,NNE,26,4.5,9.0,61,0.00,,,0.00,VWS V14.01,2013-06-03 21:24:00,
2013-06-03 17:25:00,71.9,57.7,29.98,NE,44,10.5,10.5,61,0.00,,,0.00,VWS V14.01,2013-06-03 21:25:00,
2013-06-03 17:26:00,71.8,57.6,29.98,North,8,4.5,10.5,61,0.00,,,0.00,VWS V14.01,2013-06-03 21:26:00,
2013-06-03 17:27:00,71.7,57.5,29.98,North,351,9.0,9.0,61,0.00,,,0.00,VWS V14.01,2013-06-03 21:27:00,
2013-06-03 17:28:00,71.7,57.1,29.98,North,359,4.5,9.0,60,0.00,,,0.00,VWS V14.01,2013-06-03 21:28:00,
2013-06-03 17:29:00,71.7,57.5,29.98,NE,47,7.5,7.5,61,0.00,,,0.00,VWS V14.01,2013-06-03 21:29:00,
2013-06-03 17:30:00,71.7,57.5,29.98,ENE,58,6.0,13.5,61,0.00,,,0.00,VWS V14.01,2013-06-03 21:30:00,
2013-06-03 17:31:00,71.6,57.5,29.98,NE,52,7.5,9.0,61,0.00,,,0.00,VWS V14.01,2013-06-03 21:31:00,
2013-06-03 17:32:00,71.8,57.6,29.98,NNE,30,6.0,6.0,61,0.00,,,0.00,VWS V14.01,2013-06-03 21:32:00,
2013-06-03 17:33:00,71.9,57.7,29.98,NNE,26,4.5,7.5,61,0.00,,,0.00,VWS V14.01,2013-06-03 21:33:00,
2013-06-03 17:34:00,72.0,57.4,29.98,North,359,6.0,9.0,60,0.00,,,0.00,VWS V14.01,2013-06-03 21:34:00,
2013-06-03 17:35:00,72.0,57.4,29.98,NE,35,4.5,10.5,60,0.00,,,0.00,VWS V14.01,2013-06-03 21:35:00,
2013-06-03 17:36:00,72.1,57.9,29.98,NNE,24,4.5,4.5,61,0.00,,,0.00,VWS V14.01,2013-06-03 21:36:00,
2013-06-03 17:37:00,72.1,57.5,29.98,NE,35,10.5,12.0,60,0.00,,,0.00,VWS V14.01,2013-06-03 21:37:00,
2013-06-03 17:38:00,72.0,56.9,29.98,NNE,24,9.0,15.0,59,0.00,,,0.00,VWS V14.01,2013-06-03 21:38:00,
2013-06-03 17:39:00,71.9,57.3,29.98,East,96,4.5,13.5,60,0.00,,,0.00,VWS V14.01,2013-06-03 21:39:00,
2013-06-03 17:40:00,71.9,57.3,29.98,NNE,16,9.0,10.5,60,0.00,,,0.00,VWS V14.01,2013-06-03 21:40:00,
2013-06-03 17:41:00,72.0,57.4,29.98,NNE,26,6.0,9.0,60,0.00,,,0.00,VWS V14.01,2013-06-03 21:41:00,
2013-06-03 17:42:00,72.2,57.6,29.98,NNE,16,6.0,9.0,60,0.00,,,0.00,VWS V14.01,2013-06-03 21:42:00,
2013-06-03 17:43:00,72.3,58.1,29.98,NNE,30,10.5,12.0,61,0.00,,,0.00,VWS V14.01,2013-06-03 21:43:00,
2013-06-03 17:44:00,72.4,57.8,29.98,North,8,7.5,10.5,60,0.00,,,0.00,VWS V14.01,2013-06-03 21:44:00,
2013-06-03 17:45:00,72.4,57.3,29.98,ENE,71,6.0,10.5,59,0.00,,,0.00,VWS V14.01,2013-06-03 21:45:00,
2013-06-03 17:46:00,72.5,57.8,29.98,NE,41,6.0,12.0,60,0.00,,,0.00,VWS V14.01,2013-06-03 21:46:00,
2013-06-03 17:47:00,72.6,57.5,29.98,NNE,31,16.5,16.5,59,0.00,,,0.00,VWS V14.01,2013-06-03 21:47:00,
2013-06-03 17:48:00,72.5,57.4,29.98,NE,41,10.5,16.5,59,0.00,,,0.00,VWS V14.01,2013-06-03 21:48:00,
2013-06-03 17:49:00,72.5,57.4,29.97,WNW,298,7.5,12.0,59,0.00,,,0.00,VWS V14.01,2013-06-03 21:49:00,
2013-06-03 17:50:00,72.4,57.3,29.97,NNE,24,3.0,10.5,59,0.00,,,0.00,VWS V14.01,2013-06-03 21:50:00,
2013-06-03 17:51:00,72.4,57.8,29.97,ENE,67,3.0,9.0,60,0.00,,,0.00,VWS V14.01,2013-06-03 21:51:00,
2013-06-03 17:52:00,72.4,57.3,29.97,ENE,61,4.5,9.0,59,0.00,,,0.00,VWS V14.01,2013-06-03 21:52:00,
2013-06-03 17:53:00,72.5,57.8,29.97,North,6,9.0,13.5,60,0.00,,,0.00,VWS V14.01,2013-06-03 21:53:00,
2013-06-03 17:54:00,72.5,57.4,29.97,North,10,12.0,16.5,59,0.00,,,0.00,VWS V14.01,2013-06-03 21:54:00,
2013-06-03 17:55:00,72.5,56.9,29.97,NNE,21,4.5,12.0,58,0.00,,,0.00,VWS V14.01,2013-06-03 21:55:00,
2013-06-03 17:56:00,72.6,57.9,29.97,NNW,330,7.5,9.0,60,0.00,,,0.00,VWS V14.01,2013-06-03 21:56:00,
2013-06-03 17:57:00,72.8,58.1,29.97,NNE,32,6.0,9.0,60,0.00,,,0.00,VWS V14.01,2013-06-03 21:57:00,
2013-06-03 17:58:00,72.8,58.1,29.97,NNE,30,9.0,10.5,60,0.00,,,0.00,VWS V14.01,2013-06-03 21:58:00,
2013-06-03 17:59:00,73.0,57.8,29.97,NNE,14,6.0,13.5,59,0.00,,,0.00,VWS V14.01,2013-06-03 21:59:00,
2013-06-03 18:00:00,73.1,58.4,29.97,NNE,32,6.0,9.0,60,0.00,,,0.00,VWS V14.01,2013-06-03 22:00:00,
2013-06-03 18:01:00,73.3,59.0,29.97,NNE,33,6.0,13.5,61,0.00,,,0.00,VWS V14.01,2013-06-03 22:01:00,
2013-06-03 18:02:00,73.4,58.2,29.97,NW,316,4.5,4.5,59,0.00,,,0.00,VWS V14.01,2013-06-03 22:02:00,
2013-06-03 18:03:00,73.5,58.8,29.97,NNE,33,7.5,7.5,60,0.00,,,0.00,VWS V14.01,2013-06-03 22:03:00,
2013-06-03 18:04:00,73.5,58.3,29.97,North,10,13.5,16.5,59,0.00,,,0.00,VWS V14.01,2013-06-03 22:04:00,
2013-06-03 18:05:00,73.5,57.8,29.97,NE,56,9.0,13.5,58,0.00,,,0.00,VWS V14.01,2013-06-03 22:05:00,
2013-06-03 18:06:00,73.4,57.7,29.97,NE,52,9.0,10.5,58,0.00,,,0.00,VWS V14.01,2013-06-03 22:06:00,
2013-06-03 18:07:00,73.4,57.7,29.97,NE,37,10.5,10.5,58,0.00,,,0.00,VWS V14.01,2013-06-03 22:07:00,
2013-06-03 18:08:00,73.4,58.2,29.97,North,7,12.0,13.5,59,0.00,,,0.00,VWS V14.01,2013-06-03 22:08:00,
2013-06-03 18:09:00,73.4,57.7,29.97,NNE,33,13.5,13.5,58,0.00,,,0.00,VWS V14.01,2013-06-03 22:09:00,
2013-06-03 18:10:00,73.4,57.7,29.97,NNE,24,9.0,13.5,58,0.00,,,0.00,VWS V14.01,2013-06-03 22:10:00,
2013-06-03 18:11:00,73.4,58.2,29.97,NNE,24,7.5,19.5,59,0.00,,,0.00,VWS V14.01,2013-06-03 22:11:00,
2013-06-03 18:12:00,73.3,57.7,29.97,East,99,4.5,9.0,58,0.00,,,0.00,VWS V14.01,2013-06-03 22:12:00,
2013-06-03 18:13:00,73.3,57.7,29.97,NNE,12,15.0,15.0,58,0.00,,,0.00,VWS V14.01,2013-06-03 22:13:00,
2013-06-03 18:14:00,73.2,57.5,29.97,NNE,14,10.5,16.5,58,0.00,,,0.00,VWS V14.01,2013-06-03 22:14:00,
2013-06-03 18:15:00,73.1,57.5,29.97,NE,41,13.5,18.0,58,0.00,,,0.00,VWS V14.01,2013-06-03 22:15:00,
2013-06-03 18:16:00,73.1,57.5,29.97,NE,54,9.0,15.0,58,0.00,,,0.00,VWS V14.01,2013-06-03 22:16:00,
2013-06-03 18:17:00,73.0,57.4,29.97,NE,53,12.0,12.0,58,0.00,,,0.00,VWS V14.01,2013-06-03 22:17:00,
2013-06-03 18:18:00,73.0,57.4,29.97,NE,54,6.0,15.0,58,0.00,,,0.00,VWS V14.01,2013-06-03 22:18:00,
2013-06-03 18:19:00,73.0,57.4,29.97,NNE,21,6.0,7.5,58,0.00,,,0.00,VWS V14.01,2013-06-03 22:19:00,
2013-06-03 18:20:00,73.1,57.9,29.97,NNW,330,10.5,10.5,59,0.00,,,0.00,VWS V14.01,2013-06-03 22:20:00,
2013-06-03 18:21:00,73.1,57.5,29.97,NNE,25,4.5,10.5,58,0.00,,,0.00,VWS V14.01,2013-06-03 22:21:00,
2013-06-03 18:22:00,73.2,58.0,29.97,North,4,13.5,13.5,59,0.00,,,0.00,VWS V14.01,2013-06-03 22:22:00,
2013-06-03 18:23:00,73.2,58.0,29.97,NNW,345,7.5,13.5,59,0.00,,,0.00,VWS V14.01,2013-06-03 22:23:00,
2013-06-03 18:24:00,73.3,58.1,29.97,NNW,336,4.5,7.5,59,0.00,,,0.00,VWS V14.01,2013-06-03 22:24:00,
2013-06-03 18:25:00,73.5,58.8,29.97,NW,312,9.0,12.0,60,0.00,,,0.00,VWS V14.01,2013-06-03 22:25:00,
2013-06-03 18:26:00,73.5,57.8,29.97,NNE,15,4.5,9.0,58,0.00,,,0.00,VWS V14.01,2013-06-03 22:26:00,
2013-06-03 18:27:00,73.6,57.4,29.97,NNW,347,6.0,9.0,57,0.00,,,0.00,VWS V14.01,2013-06-03 22:27:00,
2013-06-03 18:28:00,73.6,57.4,29.97,North,351,4.5,10.5,57,0.00,,,0.00,VWS V14.01,2013-06-03 22:28:00,
2013-06-03 18:29:00,73.6,57.4,29.97,NNW,327,3.0,7.5,57,0.00,,,0.00,VWS V14.01,2013-06-03 22:29:00,
2013-06-03 18:30:00,73.7,57.5,29.97,NNE,26,7.5,7.5,57,0.00,,,0.00,VWS V14.01,2013-06-03 22:30:00,
2013-06-03 18:31:00,73.7,57.5,29.97,NE,37,4.5,7.5,57,0.00,,,0.00,VWS V14.01,2013-06-03 22:31:00,
2013-06-03 18:32:00,73.7,58.0,29.97,North,10,7.5,15.0,58,0.00,,,0.00,VWS V14.01,2013-06-03 22:32:00,
2013-06-03 18:33:00,73.7,57.5,29.97,ENE,73,7.5,12.0,57,0.00,,,0.00,VWS V14.01,2013-06-03 22:33:00,
2013-06-03 18:34:00,73.7,57.5,29.97,NNE,16,6.0,9.0,57,0.00,,,0.00,VWS V14.01,2013-06-03 22:34:00,
2013-06-03 18:35:00,73.6,57.0,29.97,NW,324,7.5,10.5,56,0.00,,,0.00,VWS V14.01,2013-06-03 22:35:00,
2013-06-03 18:36:00,73.4,56.8,29.97,NNW,339,4.5,12.0,56,0.00,,,0.00,VWS V14.01,2013-06-03 22:36:00,
2013-06-03 18:37:00,73.2,57.1,29.97,North,3,10.5,10.5,57,0.00,,,0.00,VWS V14.01,2013-06-03 22:37:00,
2013-06-03 18:38:00,73.0,57.4,29.97,North,8,6.0,10.5,58,0.00,,,0.00,VWS V14.01,2013-06-03 22:38:00,
2013-06-03 18:39:00,72.9,57.8,29.97,NW,305,4.5,6.0,59,0.00,,,0.00,VWS V14.01,2013-06-03 22:39:00,
2013-06-03 18:40:00,72.8,57.2,29.97,WNW,296,10.5,10.5,58,0.00,,,0.00,VWS V14.01,2013-06-03 22:40:00,
2013-06-03 18:41:00,72.8,57.2,29.97,NNE,27,12.0,12.0,58,0.00,,,0.00,VWS V14.01,2013-06-03 22:41:00,
2013-06-03 18:42:00,72.8,57.2,29.97,NE,54,6.0,13.5,58,0.00,,,0.00,VWS V14.01,2013-06-03 22:42:00,
2013-06-03 18:43:00,72.9,57.3,29.97,NNE,32,4.5,6.0,58,0.00,,,0.00,VWS V14.01,2013-06-03 22:43:00,
2013-06-03 18:44:00,73.0,58.3,29.97,North,359,6.0,6.0,60,0.00,,,0.00,VWS V14.01,2013-06-03 22:44:00,
2013-06-03 18:45:00,73.1,57.9,29.97,West,275,7.5,9.0,59,0.00,,,0.00,VWS V14.01,2013-06-03 22:45:00,
2013-06-03 18:46:00,73.2,57.5,29.97,North,355,6.0,10.5,58,0.00,,,0.00,VWS V14.01,2013-06-03 22:46:00,
2013-06-03 18:47:00,73.2,57.5,29.97,North,359,9.0,9.0,58,0.00,,,0.00,VWS V14.01,2013-06-03 22:47:00,
2013-06-03 18:48:00,73.1,57.0,29.97,NNW,343,6.0,13.5,57,0.00,,,0.00,VWS V14.01,2013-06-03 22:48:00,
2013-06-03 18:49:00,73.1,57.0,29.98,NNW,339,7.5,10.5,57,0.00,,,0.00,VWS V14.01,2013-06-03 22:49:00,
2013-06-03 18:50:00,72.9,56.8,29.97,North,8,9.0,12.0,57,0.00,,,0.00,VWS V14.01,2013-06-03 22:50:00,
2013-06-03 18:51:00,72.8,56.7,29.98,NW,310,9.0,9.0,57,0.00,,,0.00,VWS V14.01,2013-06-03 22:51:00,
2013-06-03 18:52:00,72.6,57.0,29.98,NNW,346,6.0,9.0,58,0.00,,,0.00,VWS V14.01,2013-06-03 22:52:00,
2013-06-03 18:53:00,72.6,57.5,29.98,NNE,18,6.0,9.0,59,0.00,,,0.00,VWS V14.01,2013-06-03 22:53:00,
2013-06-03 18:54:00,72.5,56.9,29.98,NNW,332,6.0,7.5,58,0.00,,,0.00,VWS V14.01,2013-06-03 22:54:00,
2013-06-03 18:55:00,72.5,56.9,29.98,NW,305,4.5,9.0,58,0.00,,,0.00,VWS V14.01,2013-06-03 22:55:00,
2013-06-03 18:56:00,72.5,56.9,29.98,North,10,6.0,7.5,58,0.00,,,0.00,VWS V14.01,2013-06-03 22:56:00,
2013-06-03 18:57:00,72.5,57.4,29.98,NW,324,6.0,10.5,59,0.00,,,0.00,VWS V14.01,2013-06-03 22:57:00,
2013-06-03 18:58:00,72.5,56.9,29.98,North,355,7.5,10.5,58,0.00,,,0.00,VWS V14.01,2013-06-03 22:58:00,
2013-06-03 18:59:00,72.5,56.4,29.98,NNE,18,3.0,7.5,57,0.00,,,0.00,VWS V14.01,2013-06-03 22:59:00,
2013-06-03 19:00:00,72.6,57.5,29.98,NNE,32,3.0,6.0,59,0.00,,,0.00,VWS V14.01,2013-06-03 23:00:00,
2013-06-03 19:01:00,72.6,57.0,29.98,NE,45,6.0,7.5,58,0.00,,,0.00,VWS V14.01,2013-06-03 23:01:00,
2013-06-03 19:02:00,72.7,57.1,29.98,NE,38,4.5,7.5,58,0.00,,,0.00,VWS V14.01,2013-06-03 23:02:00,
2013-06-03 19:03:00,72.7,57.1,29.98,North,9,4.5,10.5,58,0.00,,,0.00,VWS V14.01,2013-06-03 23:03:00,
2013-06-03 19:04:00,72.8,57.7,29.98,NW,321,7.5,9.0,59,0.00,,,0.00,VWS V14.01,2013-06-03 23:04:00,
2013-06-03 19:05:00,72.8,56.7,29.98,NNW,336,4.5,9.0,57,0.00,,,0.00,VWS V14.01,2013-06-03 23:05:00,
2013-06-03 19:06:00,72.8,57.2,29.98,NE,51,4.5,7.5,58,0.00,,,0.00,VWS V14.01,2013-06-03 23:06:00,
2013-06-03 19:07:00,72.8,57.2,29.98,NE,51,4.5,7.5,58,0.00,,,0.00,VWS V14.01,2013-06-03 23:07:00,
2013-06-03 19:08:00,72.8,57.2,29.98,NNE,21,4.5,4.5,58,0.00,,,0.00,VWS V14.01,2013-06-03 23:08:00,
2013-06-03 19:09:00,72.8,56.7,29.98,NNW,329,3.0,4.5,57,0.00,,,0.00,VWS V14.01,2013-06-03 23:09:00,
2013-06-03 19:10:00,72.9,56.8,29.98,NW,305,4.5,10.5,57,0.00,,,0.00,VWS V14.01,2013-06-03 23:10:00,
2013-06-03 19:11:00,73.0,56.9,29.98,East,96,4.5,9.0,57,0.00,,,0.00,VWS V14.01,2013-06-03 23:11:00,
2013-06-03 19:12:00,73.0,56.9,29.98,East,96,4.5,9.0,57,0.00,,,0.00,VWS V14.01,2013-06-03 23:12:00,
2013-06-03 19:13:00,73.0,57.4,29.98,NW,313,7.5,10.5,58,0.00,,,0.00,VWS V14.01,2013-06-03 23:13:00,
2013-06-03 19:14:00,73.0,56.4,29.98,NW,308,3.0,7.5,56,0.00,,,0.00,VWS V14.01,2013-06-03 23:14:00,
2013-06-03 19:15:00,73.0,56.9,29.98,NNE,18,6.0,9.0,57,0.00,,,0.00,VWS V14.01,2013-06-03 23:15:00,
2013-06-03 19:16:00,73.0,56.4,29.98,NW,310,7.5,9.0,56,0.00,,,0.00,VWS V14.01,2013-06-03 23:16:00,
2013-06-03 19:17:00,72.9,56.3,29.98,NNW,327,6.0,7.5,56,0.00,,,0.00,VWS V14.01,2013-06-03 23:17:00,
2013-06-03 19:18:00,72.9,56.8,29.98,NNE,17,6.0,7.5,57,0.00,,,0.00,VWS V14.01,2013-06-03 23:18:00,
2013-06-03 19:19:00,72.8,56.2,29.98,West,281,4.5,7.5,56,0.00,,,0.00,VWS V14.01,2013-06-03 23:19:00,
2013-06-03 19:20:00,72.8,56.2,29.98,NW,310,4.5,9.0,56,0.00,,,0.00,VWS V14.01,2013-06-03 23:20:00,
2013-06-03 19:21:00,72.8,56.2,29.98,North,356,4.5,6.0,56,0.00,,,0.00,VWS V14.01,2013-06-03 23:21:00,
2013-06-03 19:22:00,72.8,56.7,29.98,NNE,26,1.5,4.5,57,0.00,,,0.00,VWS V14.01,2013-06-03 23:22:00,
2013-06-03 19:23:00,72.9,57.3,29.98,North,360,3.0,4.5,58,0.00,,,0.00,VWS V14.01,2013-06-03 23:23:00,
2013-06-03 19:24:00,73.0,56.4,29.98,North,9,7.5,9.0,56,0.00,,,0.00,VWS V14.01,2013-06-03 23:24:00,
2013-06-03 19:25:00,73.0,56.9,29.98,NNW,331,4.5,7.5,57,0.00,,,0.00,VWS V14.01,2013-06-03 23:25:00,
2013-06-03 19:26:00,73.0,56.9,29.98,NNE,23,4.5,6.0,57,0.00,,,0.00,VWS V14.01,2013-06-03 23:26:00,
2013-06-03 19:27:00,73.1,57.5,29.98,NE,53,1.5,4.5,58,0.00,,,0.00,VWS V14.01,2013-06-03 23:27:00,
2013-06-03 19:28:00,73.1,57.5,29.98,North,360,4.5,4.5,58,0.00,,,0.00,VWS V14.01,2013-06-03 23:28:00,
2013-06-03 19:29:00,73.2,57.5,29.98,NNE,22,4.5,6.0,58,0.00,,,0.00,VWS V14.01,2013-06-03 23:29:00,
2013-06-03 19:30:00,73.3,57.7,29.99,NNE,15,7.5,10.5,58,0.00,,,0.00,VWS V14.01,2013-06-03 23:30:00,
2013-06-03 19:31:00,73.2,57.5,29.99,West,264,3.0,7.5,58,0.00,,,0.00,VWS V14.01,2013-06-03 23:31:00,
2013-06-03 19:32:00,73.2,57.5,29.99,NNE,17,6.0,6.0,58,0.00,,,0.00,VWS V14.01,2013-06-03 23:32:00,
2013-06-03 19:33:00,73.1,57.5,29.99,North,10,3.0,6.0,58,0.00,,,0.00,VWS V14.01,2013-06-03 23:33:00,
2013-06-03 19:34:00,73.1,57.5,29.99,NNE,33,7.5,7.5,58,0.00,,,0.00,VWS V14.01,2013-06-03 23:34:00,
2013-06-03 19:35:00,73.0,57.4,29.99,North,356,6.0,9.0,58,0.00,,,0.00,VWS V14.01,2013-06-03 23:35:00,
2013-06-03 19:36:00,72.9,56.8,29.99,NW,326,4.5,10.5,57,0.00,,,0.00,VWS V14.01,2013-06-03 23:36:00,
2013-06-03 19:37:00,72.8,56.7,29.99,NE,38,7.5,9.0,57,0.00,,,0.00,VWS V14.01,2013-06-03 23:37:00,
2013-06-03 19:38:00,72.7,56.6,29.99,North,357,4.5,9.0,57,0.00,,,0.00,VWS V14.01,2013-06-03 23:38:00,
2013-06-03 19:39:00,72.6,57.0,29.99,NNE,21,4.5,6.0,58,0.00,,,0.00,VWS V14.01,2013-06-03 23:39:00,
2013-06-03 19:40:00,72.6,56.5,29.99,NNW,343,6.0,9.0,57,0.00,,,0.00,VWS V14.01,2013-06-03 23:40:00,
2013-06-03 19:41:00,72.5,56.9,29.99,North,351,3.0,7.5,58,0.00,,,0.00,VWS V14.01,2013-06-03 23:41:00,
2013-06-03 19:42:00,72.5,57.4,29.99,NNW,339,7.5,7.5,59,0.00,,,0.00,VWS V14.01,2013-06-03 23:42:00,
2013-06-03 19:43:00,72.5,57.4,29.99,NNW,331,4.5,12.0,59,0.00,,,0.00,VWS V14.01,2013-06-03 23:43:00,
2013-06-03 19:44:00,72.4,56.8,29.99,NW,307,3.0,6.0,58,0.00,,,0.00,VWS V14.01,2013-06-03 23:44:00,
2013-06-03 19:45:00,72.4,57.8,29.99,NW,307,1.5,3.0,60,0.00,,,0.00,VWS V14.01,2013-06-03 23:45:00,
2013-06-03 19:46:00,72.5,57.4,29.99,North,354,6.0,6.0,59,0.00,,,0.00,VWS V14.01,2013-06-03 23:46:00,
2013-06-03 19:47:00,72.5,57.4,29.99,NNW,345,9.0,9.0,59,0.00,,,0.00,VWS V14.01,2013-06-03 23:47:00,
2013-06-03 19:48:00,72.4,57.3,29.99,WNW,285,3.0,6.0,59,0.00,,,0.00,VWS V14.01,2013-06-03 23:48:00,
2013-06-03 19:49:00,72.3,56.7,29.99,NNE,18,6.0,9.0,58,0.00,,,0.00,VWS V14.01,2013-06-03 23:49:00,
2013-06-03 19:50:00,72.2,57.1,29.99,NW,306,4.5,6.0,59,0.00,,,0.00,VWS V14.01,2013-06-03 23:50:00,
2013-06-03 19:51:00,72.2,57.1,29.99,WNW,289,3.0,6.0,59,0.00,,,0.00,VWS V14.01,2013-06-03 23:51:00,
2013-06-03 19:52:00,72.0,56.9,30.00,NNW,347,7.5,10.5,59,0.00,,,0.00,VWS V14.01,2013-06-03 23:52:00,
2013-06-03 19:53:00,71.9,56.8,30.00,NNW,327,7.5,9.0,59,0.00,,,0.00,VWS V14.01,2013-06-03 23:53:00,
2013-06-03 19:54:00,71.8,56.7,30.00,NNW,340,7.5,7.5,59,0.00,,,0.00,VWS V14.01,2013-06-03 23:54:00,
2013-06-03 19:55:00,71.8,56.7,30.00,NNE,30,7.5,13.5,59,0.00,,,0.00,VWS V14.01,2013-06-03 23:55:00,
2013-06-03 19:56:00,71.6,56.5,30.00,NE,42,10.5,10.5,59,0.00,,,0.00,VWS V14.01,2013-06-03 23:56:00,
2013-06-03 19:57:00,71.5,56.4,30.00,NNW,346,6.0,7.5,59,0.00,,,0.00,VWS V14.01,2013-06-03 23:57:00,
2013-06-03 19:58:00,71.5,56.4,30.00,NW,315,1.5,6.0,59,0.00,,,0.00,VWS V14.01,2013-06-03 23:58:00,
2013-06-03 19:59:00,71.5,56.9,30.00,NNW,329,3.0,3.0,60,0.00,,,0.00,VWS V14.01,2013-06-03 23:59:00,
2013-06-03 20:00:00,71.5,56.9,30.00,NE,46,4.5,6.0,60,0.00,,,0.00,VWS V14.01,2013-06-04 00:00:00,
2013-06-03 20:01:00,71.5,56.9,30.00,NW,321,6.0,6.0,60,0.00,,,0.00,VWS V14.01,2013-06-04 00:01:00,
2013-06-03 20:02:00,71.4,56.8,30.00,NW,319,6.0,9.0,60,0.00,,,0.00,VWS V14.01,2013-06-04 00:02:00,
2013-06-03 20:03:00,71.4,56.8,30.00,North,351,3.0,9.0,60,0.00,,,0.00,VWS V14.01,2013-06-04 00:03:00,
2013-06-03 20:04:00,71.3,56.7,30.00,NNW,339,6.0,7.5,60,0.00,,,0.00,VWS V14.01,2013-06-04 00:04:00,
2013-06-03 20:05:00,71.3,56.7,30.00,NE,37,3.0,6.0,60,0.00,,,0.00,VWS V14.01,2013-06-04 00:05:00,
2013-06-03 20:06:00,71.3,57.2,30.00,NW,316,6.0,6.0,61,0.00,,,0.00,VWS V14.01,2013-06-04 00:06:00,
2013-06-03 20:07:00,71.2,56.6,30.00,North,356,4.5,9.0,60,0.00,,,0.00,VWS V14.01,2013-06-04 00:07:00,
2013-06-03 20:08:00,71.1,56.5,30.00,North,2,7.5,9.0,60,0.00,,,0.00,VWS V14.01,2013-06-04 00:08:00,
2013-06-03 20:09:00,71.0,56.9,30.00,North,349,4.5,7.5,61,0.00,,,0.00,VWS V14.01,2013-06-04 00:09:00,
2013-06-03 20:10:00,71.0,56.4,30.00,North,2,1.5,6.0,60,0.00,,,0.00,VWS V14.01,2013-06-04 00:10:00,
2013-06-03 20:11:00,70.9,56.3,30.00,North,6,6.0,7.5,60,0.00,,,0.00,VWS V14.01,2013-06-04 00:11:00,
2013-06-03 20:12:00,70.9,56.8,30.00,NNW,337,3.0,9.0,61,0.00,,,0.00,VWS V14.01,2013-06-04 00:12:00,
2013-06-03 20:13:00,70.8,56.7,30.00,NW,324,6.0,6.0,61,0.00,,,0.00,VWS V14.01,2013-06-04 00:13:00,
2013-06-03 20:14:00,70.7,56.6,30.00,North,356,6.0,7.5,61,0.00,,,0.00,VWS V14.01,2013-06-04 00:14:00,
2013-06-03 20:15:00,70.6,56.5,30.00,NNW,337,6.0,7.5,61,0.00,,,0.00,VWS V14.01,2013-06-04 00:15:00,
2013-06-03 20:16:00,70.6,56.5,30.00,NNW,339,4.5,6.0,61,0.00,,,0.00,VWS V14.01,2013-06-04 00:16:00,
2013-06-03 20:17:00,70.5,56.4,30.01,WNW,285,4.5,6.0,61,0.00,,,0.00,VWS V14.01,2013-06-04 00:17:00,
2013-06-03 20:18:00,70.4,56.3,30.01,NNE,24,6.0,6.0,61,0.00,,,0.00,VWS V14.01,2013-06-04 00:18:00,
2013-06-03 20:19:00,70.4,56.3,30.01,NNW,339,3.0,6.0,61,0.00,,,0.00,VWS V14.01,2013-06-04 00:19:00,
2013-06-03 20:20:00,70.3,56.2,30.01,NNE,24,1.5,3.0,61,0.00,,,0.00,VWS V14.01,2013-06-04 00:20:00,
2013-06-03 20:21:00,70.3,56.7,30.01,North,350,4.5,4.5,62,0.00,,,0.00,VWS V14.01,2013-06-04 00:21:00,
2013-06-03 20:22:00,70.2,56.6,30.01,North,357,4.5,6.0,62,0.00,,,0.00,VWS V14.01,2013-06-04 00:22:00,
2013-06-03 20:23:00,70.1,56.0,30.01,NNE,12,6.0,6.0,61,0.00,,,0.00,VWS V14.01,2013-06-04 00:23:00,
2013-06-03 20:24:00,70.1,56.0,30.01,NNW,343,4.5,7.5,61,0.00,,,0.00,VWS V14.01,2013-06-04 00:24:00,
2013-06-03 20:25:00,70.0,56.4,30.01,North,349,6.0,6.0,62,0.00,,,0.00,VWS V14.01,2013-06-04 00:25:00,
2013-06-03 20:26:00,69.9,56.3,30.01,NNE,26,3.0,6.0,62,0.00,,,0.00,VWS V14.01,2013-06-04 00:26:00,
2013-06-03 20:27:00,69.8,56.2,30.01,NNW,329,4.5,4.5,62,0.00,,,0.00,VWS V14.01,2013-06-04 00:27:00,
2013-06-03 20:28:00,69.8,56.2,30.01,NW,313,3.0,4.5,62,0.00,,,0.00,VWS V14.01,2013-06-04 00:28:00,
2013-06-03 20:29:00,69.7,56.1,30.01,NNE,32,9.0,10.5,62,0.00,,,0.00,VWS V14.01,2013-06-04 00:29:00,
2013-06-03 20:30:00,69.6,56.0,30.01,NW,324,7.5,9.0,62,0.00,,,0.00,VWS V14.01,2013-06-04 00:30:00,
2013-06-03 20:31:00,69.4,56.3,30.01,NNE,13,6.0,7.5,63,0.00,,,0.00,VWS V14.01,2013-06-04 00:31:00,
2013-06-03 20:32:00,69.3,56.2,30.01,WSW,239,4.5,7.5,63,0.00,,,0.00,VWS V14.01,2013-06-04 00:32:00,
2013-06-03 20:33:00,69.1,56.0,30.01,NNE,16,4.5,6.0,63,0.00,,,0.00,VWS V14.01,2013-06-04 00:33:00,
2013-06-03 20:34:00,69.0,56.3,30.01,NNW,328,3.0,4.5,64,0.00,,,0.00,VWS V14.01,2013-06-04 00:34:00,
2013-06-03 20:35:00,68.8,56.1,30.01,NW,326,3.0,7.5,64,0.00,,,0.00,VWS V14.01,2013-06-04 00:35:00,
2013-06-03 20:36:00,68.7,56.0,30.01,NNE,23,4.5,4.5,64,0.00,,,0.00,VWS V14.01,2013-06-04 00:36:00,
2013-06-03 20:37:00,68.5,55.9,30.01,North,360,3.0,4.5,64,0.00,,,0.00,VWS V14.01,2013-06-04 00:37:00,
2013-06-03 20:38:00,68.4,55.8,30.01,North,11,7.5,7.5,64,0.00,,,0.00,VWS V14.01,2013-06-04 00:38:00,
2013-06-03 20:39:00,68.2,55.6,30.01,NNW,345,9.0,10.5,64,0.00,,,0.00,VWS V14.01,2013-06-04 00:39:00,
2013-06-03 20:40:00,68.1,55.9,30.02,North,352,4.5,9.0,65,0.00,,,0.00,VWS V14.01,2013-06-04 00:40:00,
2013-06-03 20:41:00,68.0,55.8,30.02,North,351,3.0,4.5,65,0.00,,,0.00,VWS V14.01,2013-06-04 00:41:00,
2013-06-03 20:42:00,67.9,55.7,30.02,NNW,342,4.5,7.5,65,0.00,,,0.00,VWS V14.01,2013-06-04 00:42:00,
2013-06-03 20:43:00,67.8,55.6,30.02,NNE,21,10.5,10.5,65,0.00,,,0.00,VWS V14.01,2013-06-04 00:43:00,
2013-06-03 20:44:00,67.6,55.4,30.02,North,3,6.0,10.5,65,0.00,,,0.00,VWS V14.01,2013-06-04 00:44:00,
2013-06-03 20:45:00,67.6,55.4,30.02,NW,324,9.0,9.0,65,0.00,,,0.00,VWS V14.01,2013-06-04 00:45:00,
2013-06-03 20:46:00,67.5,55.3,30.02,NE,54,3.0,9.0,65,0.00,,,0.00,VWS V14.01,2013-06-04 00:46:00,
2013-06-03 20:47:00,67.4,55.7,30.02,NNW,336,7.5,9.0,66,0.00,,,0.00,VWS V14.01,2013-06-04 00:47:00,
2013-06-03 20:48:00,67.3,55.6,30.02,NW,326,9.0,9.0,66,0.00,,,0.00,VWS V14.01,2013-06-04 00:48:00,
2013-06-03 20:49:00,67.2,55.5,30.02,NNE,14,1.5,9.0,66,0.00,,,0.00,VWS V14.01,2013-06-04 00:49:00,
2013-06-03 20:50:00,67.2,55.5,30.02,NW,326,4.5,4.5,66,0.00,,,0.00,VWS V14.01,2013-06-04 00:50:00,
2013-06-03 20:51:00,67.1,55.4,30.02,NNW,343,3.0,6.0,66,0.00,,,0.00,VWS V14.01,2013-06-04 00:51:00,
2013-06-03 20:52:00,67.0,55.7,30.02,NNW,343,3.0,3.0,67,0.00,,,0.00,VWS V14.01,2013-06-04 00:52:00,
2013-06-03 20:53:00,67.0,55.3,30.02,NNW,333,9.0,9.0,66,0.00,,,0.00,VWS V14.01,2013-06-04 00:53:00,
2013-06-03 20:54:00,66.9,55.6,30.02,North,4,1.5,9.0,67,0.00,,,0.00,VWS V14.01,2013-06-04 00:54:00,
2013-06-03 20:55:00,66.8,55.5,30.02,NW,316,1.5,4.5,67,0.00,,,0.00,VWS V14.01,2013-06-04 00:55:00,
2013-06-03 20:56:00,66.7,55.4,30.02,NW,326,6.0,9.0,67,0.00,,,0.00,VWS V14.01,2013-06-04 00:56:00,
2013-06-03 20:57:00,66.7,55.4,30.02,NNW,335,3.0,10.5,67,0.00,,,0.00,VWS V14.01,2013-06-04 00:57:00,
2013-06-03 20:58:00,66.6,55.3,30.02,NNE,30,3.0,7.5,67,0.00,,,0.00,VWS V14.01,2013-06-04 00:58:00,
2013-06-03 20:59:00,66.5,55.2,30.02,North,350,3.0,7.5,67,0.00,,,0.00,VWS V14.01,2013-06-04 00:59:00,
2013-06-03 21:00:00,66.4,55.1,30.02,North,357,3.0,7.5,67,0.00,,,0.00,VWS V14.01,2013-06-04 01:00:00,
2013-06-03 21:01:00,66.4,55.1,30.02,North,351,4.5,7.5,67,0.00,,,0.00,VWS V14.01,2013-06-04 01:01:00,
2013-06-03 21:02:00,66.3,55.0,30.03,NW,316,4.5,9.0,67,0.00,,,0.00,VWS V14.01,2013-06-04 01:02:00,
2013-06-03 21:03:00,66.3,55.0,30.02,North,357,3.0,9.0,67,0.00,,,0.00,VWS V14.01,2013-06-04 01:03:00,
2013-06-03 21:04:00,66.2,55.3,30.03,NE,39,3.0,4.5,68,0.00,,,0.00,VWS V14.01,2013-06-04 01:04:00,
2013-06-03 21:05:00,66.2,55.3,30.03,North,356,3.0,4.5,68,0.00,,,0.00,VWS V14.01,2013-06-04 01:05:00,
2013-06-03 21:06:00,66.1,55.2,30.03,NNW,339,4.5,4.5,68,0.00,,,0.00,VWS V14.01,2013-06-04 01:06:00,
2013-06-03 21:07:00,66.0,55.2,30.03,NW,308,6.0,6.0,68,0.00,,,0.00,VWS V14.01,2013-06-04 01:07:00,
2013-06-03 21:08:00,66.0,55.2,30.03,NNW,328,3.0,6.0,68,0.00,,,0.00,VWS V14.01,2013-06-04 01:08:00,
2013-06-03 21:09:00,65.9,55.0,30.03,NNW,329,4.5,6.0,68,0.00,,,0.00,VWS V14.01,2013-06-04 01:09:00,
2013-06-03 21:10:00,65.8,55.0,30.03,NNE,14,1.5,4.5,68,0.00,,,0.00,VWS V14.01,2013-06-04 01:10:00,
2013-06-03 21:11:00,65.8,55.0,30.03,North,7,4.5,4.5,68,0.00,,,0.00,VWS V14.01,2013-06-04 01:11:00,
2013-06-03 21:12:00,65.7,54.9,30.03,NE,49,1.5,4.5,68,0.00,,,0.00,VWS V14.01,2013-06-04 01:12:00,
2013-06-03 21:13:00,65.7,55.3,30.03,NE,47,1.5,3.0,69,0.00,,,0.00,VWS V14.01,2013-06-04 01:13:00,
2013-06-03 21:14:00,65.6,55.2,30.03,NNW,344,3.0,4.5,69,0.00,,,0.00,VWS V14.01,2013-06-04 01:14:00,
2013-06-03 21:15:00,65.6,55.2,30.03,NNW,343,1.5,4.5,69,0.00,,,0.00,VWS V14.01,2013-06-04 01:15:00,
2013-06-03 21:16:00,65.5,55.1,30.03,NNW,343,1.5,3.0,69,0.00,,,0.00,VWS V14.01,2013-06-04 01:16:00,
2013-06-03 21:17:00,65.5,55.1,30.03,NNW,342,1.5,3.0,69,0.00,,,0.00,VWS V14.01,2013-06-04 01:17:00,
2013-06-03 21:18:00,65.4,55.4,30.03,NNW,343,1.5,3.0,70,0.00,,,0.00,VWS V14.01,2013-06-04 01:18:00,
2013-06-03 21:19:00,65.3,55.3,30.03,NNW,343,1.5,3.0,70,0.00,,,0.00,VWS V14.01,2013-06-04 01:19:00,
2013-06-03 21:20:00,65.2,55.2,30.03,NNW,343,3.0,3.0,70,0.00,,,0.00,VWS V14.01,2013-06-04 01:20:00,
2013-06-03 21:21:00,65.1,55.1,30.03,NNW,342,1.5,3.0,70,0.00,,,0.00,VWS V14.01,2013-06-04 01:21:00,
2013-06-03 21:22:00,65.0,55.0,30.03,NNW,343,1.5,3.0,70,0.00,,,0.00,VWS V14.01,2013-06-04 01:22:00,
2013-06-03 21:23:00,64.9,55.3,30.03,NNW,342,1.5,1.5,71,0.00,,,0.00,VWS V14.01,2013-06-04 01:23:00,
2013-06-03 21:24:00,64.7,55.1,30.03,North,350,1.5,1.5,71,0.00,,,0.00,VWS V14.01,2013-06-04 01:24:00,
2013-06-03 21:25:00,64.7,55.1,30.03,North,350,1.5,1.5,71,0.00,,,0.00,VWS V14.01,2013-06-04 01:25:00,
2013-06-03 21:26:00,64.6,55.0,30.03,North,351,1.5,1.5,71,0.00,,,0.00,VWS V14.01,2013-06-04 01:26:00,
2013-06-03 21:27:00,64.5,54.9,30.03,North,352,3.0,3.0,71,0.00,,,0.00,VWS V14.01,2013-06-04 01:27:00,
2013-06-03 21:28:00,64.4,54.8,30.03,North,352,1.5,3.0,71,0.00,,,0.00,VWS V14.01,2013-06-04 01:28:00,
2013-06-03 21:29:00,64.4,54.8,30.03,North,352,1.5,1.5,71,0.00,,,0.00,VWS V14.01,2013-06-04 01:29:00,
2013-06-03 21:30:00,64.3,54.7,30.03,North,352,1.5,1.5,71,0.00,,,0.00,VWS V14.01,2013-06-04 01:30:00,
2013-06-03 21:31:00,64.3,55.1,30.03,North,352,1.5,1.5,72,0.00,,,0.00,VWS V14.01,2013-06-04 01:31:00,
2013-06-03 21:32:00,64.2,55.0,30.03,North,352,3.0,3.0,72,0.00,,,0.00,VWS V14.01,2013-06-04 01:32:00,
2013-06-03 21:33:00,64.2,55.0,30.03,North,6,1.5,3.0,72,0.00,,,0.00,VWS V14.01,2013-06-04 01:33:00,
2013-06-03 21:34:00,64.1,54.9,30.03,North,6,1.5,3.0,72,0.00,,,0.00,VWS V14.01,2013-06-04 01:34:00,
2013-06-03 21:35:00,64.0,54.8,30.03,North,7,1.5,3.0,72,0.00,,,0.00,VWS V14.01,2013-06-04 01:35:00,
2013-06-03 21:36:00,64.0,54.8,30.03,North,6,1.5,1.5,72,0.00,,,0.00,VWS V14.01,2013-06-04 01:36:00,
2013-06-03 21:37:00,64.0,54.8,30.03,NNE,12,3.0,3.0,72,0.00,,,0.00,VWS V14.01,2013-06-04 01:37:00,
2013-06-03 21:38:00,64.0,54.8,30.03,NNE,12,1.5,3.0,72,0.00,,,0.00,VWS V14.01,2013-06-04 01:38:00,
2013-06-03 21:39:00,63.9,54.7,30.03,NNE,14,1.5,3.0,72,0.00,,,0.00,VWS V14.01,2013-06-04 01:39:00,
2013-06-03 21:40:00,63.9,54.7,30.03,NNE,12,1.5,1.5,72,0.00,,,0.00,VWS V14.01,2013-06-04 01:40:00,
2013-06-03 21:41:00,63.9,54.7,30.03,NNE,14,1.5,1.5,72,0.00,,,0.00,VWS V14.01,2013-06-04 01:41:00,
2013-06-03 21:42:00,63.9,55.1,30.03,NNE,12,1.5,1.5,73,0.00,,,0.00,VWS V14.01,2013-06-04 01:42:00,
2013-06-03 21:43:00,63.8,55.0,30.03,NNE,14,1.5,1.5,73,0.00,,,0.00,VWS V14.01,2013-06-04 01:43:00,
2013-06-03 21:44:00,63.8,55.0,30.03,NE,41,1.5,1.5,73,0.00,,,0.00,VWS V14.01,2013-06-04 01:44:00,
2013-06-03 21:45:00,63.8,55.0,30.03,NE,40,1.5,3.0,73,0.00,,,0.00,VWS V14.01,2013-06-04 01:45:00,
2013-06-03 21:46:00,63.8,55.0,30.03,NE,40,1.5,3.0,73,0.00,,,0.00,VWS V14.01,2013-06-04 01:46:00,
2013-06-03 21:47:00,63.8,55.0,30.03,NE,41,1.5,3.0,73,0.00,,,0.00,VWS V14.01,2013-06-04 01:47:00,
2013-06-03 21:48:00,63.7,54.9,30.04,NE,40,1.5,3.0,73,0.00,,,0.00,VWS V14.01,2013-06-04 01:48:00,
2013-06-03 21:49:00,63.7,54.9,30.04,NE,40,1.5,3.0,73,0.00,,,0.00,VWS V14.01,2013-06-04 01:49:00,
2013-06-03 21:50:00,63.7,55.3,30.04,NE,41,1.5,1.5,74,0.00,,,0.00,VWS V14.01,2013-06-04 01:50:00,
2013-06-03 21:51:00,63.6,55.2,30.04,NE,41,1.5,1.5,74,0.00,,,0.00,VWS V14.01,2013-06-04 01:51:00,
2013-06-03 21:52:00,63.6,55.2,30.04,NE,40,1.5,1.5,74,0.00,,,0.00,VWS V14.01,2013-06-04 01:52:00,
2013-06-03 21:53:00,63.5,55.1,30.04,NE,40,1.5,1.5,74,0.00,,,0.00,VWS V14.01,2013-06-04 01:53:00,
2013-06-03 21:54:00,63.4,55.3,30.04,NE,41,1.5,1.5,75,0.00,,,0.00,VWS V14.01,2013-06-04 01:54:00,
2013-06-03 21:55:00,63.3,55.2,30.04,NE,40,1.5,1.5,75,0.00,,,0.00,VWS V14.01,2013-06-04 01:55:00,
2013-06-03 21:56:00,63.2,55.2,30.04,NE,40,1.5,1.5,75,0.00,,,0.00,VWS V14.01,2013-06-04 01:56:00,
2013-06-03 21:57:00,63.1,55.1,30.04,NE,40,1.5,1.5,75,0.00,,,0.00,VWS V14.01,2013-06-04 01:57:00,
2013-06-03 21:58:00,63.0,55.0,30.04,NE,40,1.5,1.5,75,0.00,,,0.00,VWS V14.01,2013-06-04 01:58:00,
2013-06-03 21:59:00,62.9,54.9,30.04,NE,39,1.5,1.5,75,0.00,,,0.00,VWS V14.01,2013-06-04 01:59:00,
2013-06-03 22:00:00,62.8,54.8,30.04,NE,39,1.5,1.5,75,0.00,,,0.00,VWS V14.01,2013-06-04 02:00:00,
2013-06-03 22:01:00,62.7,54.7,30.04,NE,40,1.5,1.5,75,0.00,,,0.00,VWS V14.01,2013-06-04 02:01:00,
2013-06-03 22:02:00,62.6,54.9,30.04,NE,39,1.5,1.5,76,0.00,,,0.00,VWS V14.01,2013-06-04 02:02:00,
2013-06-03 22:03:00,62.5,54.8,30.04,NE,41,1.5,1.5,76,0.00,,,0.00,VWS V14.01,2013-06-04 02:03:00,
2013-06-03 22:04:00,62.4,54.7,30.05,NE,40,1.5,1.5,76,0.00,,,0.00,VWS V14.01,2013-06-04 02:04:00,
2013-06-03 22:05:00,62.3,54.7,30.05,NE,39,1.5,1.5,76,0.00,,,0.00,VWS V14.01,2013-06-04 02:05:00,
2013-06-03 22:06:00,62.2,54.5,30.05,NE,41,1.5,1.5,76,0.00,,,0.00,VWS V14.01,2013-06-04 02:06:00,
2013-06-03 22:07:00,62.1,54.5,30.05,NE,39,1.5,1.5,76,0.00,,,0.00,VWS V14.01,2013-06-04 02:07:00,
2013-06-03 22:08:00,62.0,54.7,30.05,NE,39,1.5,1.5,77,0.00,,,0.00,VWS V14.01,2013-06-04 02:08:00,
2013-06-03 22:09:00,61.9,54.6,30.05,NE,40,1.5,1.5,77,0.00,,,0.00,VWS V14.01,2013-06-04 02:09:00,
2013-06-03 22:10:00,61.8,54.5,30.05,NE,41,1.5,1.5,77,0.00,,,0.00,VWS V14.01,2013-06-04 02:10:00,
2013-06-03 22:11:00,61.8,54.5,30.05,NE,40,1.5,1.5,77,0.00,,,0.00,VWS V14.01,2013-06-04 02:11:00,
2013-06-03 22:12:00,61.7,54.4,30.05,NE,41,1.5,1.5,77,0.00,,,0.00,VWS V14.01,2013-06-04 02:12:00,
2013-06-03 22:13:00,61.6,54.3,30.05,NE,40,1.5,1.5,77,0.00,,,0.00,VWS V14.01,2013-06-04 02:13:00,
2013-06-03 22:14:00,61.6,54.3,30.05,NE,41,1.5,1.5,77,0.00,,,0.00,VWS V14.01,2013-06-04 02:14:00,
2013-06-03 22:15:00,61.5,54.6,30.05,NE,40,1.5,1.5,78,0.00,,,0.00,VWS V14.01,2013-06-04 02:15:00,
2013-06-03 22:16:00,61.4,54.5,30.05,NE,41,1.5,1.5,78,0.00,,,0.00,VWS V14.01,2013-06-04 02:16:00,
2013-06-03 22:17:00,61.4,54.5,30.05,NE,40,1.5,1.5,78,0.00,,,0.00,VWS V14.01,2013-06-04 02:17:00,
2013-06-03 22:18:00,61.4,54.5,30.05,NE,41,1.5,1.5,78,0.00,,,0.00,VWS V14.01,2013-06-04 02:18:00,
2013-06-03 22:19:00,61.3,54.4,30.05,NE,39,1.5,1.5,78,0.00,,,0.00,VWS V14.01,2013-06-04 02:19:00,
2013-06-03 22:20:00,61.3,54.4,30.05,NE,39,1.5,1.5,78,0.00,,,0.00,VWS V14.01,2013-06-04 02:20:00,
2013-06-03 22:21:00,61.4,54.5,30.05,NE,41,1.5,1.5,78,0.00,,,0.00,VWS V14.01,2013-06-04 02:21:00,
2013-06-03 22:22:00,61.4,54.8,30.05,NE,40,1.5,1.5,79,0.00,,,0.00,VWS V14.01,2013-06-04 02:22:00,
2013-06-03 22:23:00,61.4,54.8,30.05,NE,39,1.5,1.5,79,0.00,,,0.00,VWS V14.01,2013-06-04 02:23:00,
2013-06-03 22:24:00,61.4,54.8,30.05,NE,39,1.5,1.5,79,0.00,,,0.00,VWS V14.01,2013-06-04 02:24:00,
2013-06-03 22:25:00,61.3,54.7,30.05,NE,41,1.5,1.5,79,0.00,,,0.00,VWS V14.01,2013-06-04 02:25:00,
2013-06-03 22:26:00,61.3,54.7,30.05,NE,40,1.5,1.5,79,0.00,,,0.00,VWS V14.01,2013-06-04 02:26:00,
2013-06-03 22:27:00,61.3,54.7,30.06,NE,39,1.5,1.5,79,0.00,,,0.00,VWS V14.01,2013-06-04 02:27:00,
2013-06-03 22:28:00,61.2,54.6,30.06,NE,41,1.5,1.5,79,0.00,,,0.00,VWS V14.01,2013-06-04 02:28:00,
2013-06-03 22:29:00,61.1,54.5,30.06,NE,41,1.5,1.5,79,0.00,,,0.00,VWS V14.01,2013-06-04 02:29:00,
2013-06-03 22:30:00,61.0,54.5,30.06,NE,39,1.5,1.5,79,0.00,,,0.00,VWS V14.01,2013-06-04 02:30:00,
2013-06-03 22:31:00,60.9,54.3,30.06,NE,39,1.5,1.5,79,0.00,,,0.00,VWS V14.01,2013-06-04 02:31:00,
2013-06-03 22:32:00,60.8,54.6,30.06,NE,39,1.5,1.5,80,0.00,,,0.00,VWS V14.01,2013-06-04 02:32:00,
2013-06-03 22:33:00,60.7,54.5,30.06,NE,40,1.5,1.5,80,0.00,,,0.00,VWS V14.01,2013-06-04 02:33:00,
2013-06-03 22:34:00,60.6,54.4,30.06,NE,41,1.5,1.5,80,0.00,,,0.00,VWS V14.01,2013-06-04 02:34:00,
2013-06-03 22:35:00,60.5,54.3,30.06,NE,41,1.5,1.5,80,0.00,,,0.00,VWS V14.01,2013-06-04 02:35:00,
2013-06-03 22:36:00,60.4,54.2,30.06,NE,39,1.5,1.5,80,0.00,,,0.00,VWS V14.01,2013-06-04 02:36:00,
2013-06-03 22:37:00,60.3,54.1,30.06,NE,40,1.5,1.5,80,0.00,,,0.00,VWS V14.01,2013-06-04 02:37:00,
2013-06-03 22:38:00,60.1,53.9,30.06,NE,39,1.5,1.5,80,0.00,,,0.00,VWS V14.01,2013-06-04 02:38:00,
2013-06-03 22:39:00,60.1,54.3,30.06,NE,41,1.5,1.5,81,0.00,,,0.00,VWS V14.01,2013-06-04 02:39:00,
2013-06-03 22:40:00,60.0,54.2,30.06,NE,40,1.5,1.5,81,0.00,,,0.00,VWS V14.01,2013-06-04 02:40:00,
2013-06-03 22:41:00,59.9,54.1,30.06,NE,41,1.5,1.5,81,0.00,,,0.00,VWS V14.01,2013-06-04 02:41:00,
2013-06-03 22:42:00,59.9,54.1,30.06,NE,40,1.5,1.5,81,0.00,,,0.00,VWS V14.01,2013-06-04 02:42:00,
2013-06-03 22:43:00,59.8,54.0,30.06,NE,40,1.5,1.5,81,0.00,,,0.00,VWS V14.01,2013-06-04 02:43:00,
2013-06-03 22:44:00,59.7,54.2,30.06,NE,40,1.5,1.5,82,0.00,,,0.00,VWS V14.01,2013-06-04 02:44:00,
2013-06-03 22:45:00,59.7,54.2,30.06,NE,40,1.5,1.5,82,0.00,,,0.00,VWS V14.01,2013-06-04 02:45:00,
2013-06-03 22:46:00,59.7,54.5,30.06,NNE,14,1.5,3.0,83,0.00,,,0.00,VWS V14.01,2013-06-04 02:46:00,
2013-06-03 22:47:00,59.8,54.6,30.06,NNE,14,1.5,3.0,83,0.00,,,0.00,VWS V14.01,2013-06-04 02:47:00,
2013-06-03 22:48:00,59.8,54.6,30.06,NNE,14,1.5,1.5,83,0.00,,,0.00,VWS V14.01,2013-06-04 02:48:00,
2013-06-03 22:49:00,59.8,54.6,30.06,NNE,14,1.5,1.5,83,0.00,,,0.00,VWS V14.01,2013-06-04 02:49:00,
2013-06-03 22:50:00,59.9,54.4,30.06,NNE,14,1.5,1.5,82,0.00,,,0.00,VWS V14.01,2013-06-04 02:50:00,
2013-06-03 22:51:00,59.9,54.4,30.06,NNE,14,1.5,1.5,82,0.00,,,0.00,VWS V14.01,2013-06-04 02:51:00,
2013-06-03 22:52:00,59.8,54.3,30.06,NNE,14,1.5,1.5,82,0.00,,,0.00,VWS V14.01,2013-06-04 02:52:00,
2013-06-03 22:53:00,59.8,54.3,30.06,NNE,14,1.5,1.5,82,0.00,,,0.00,VWS V14.01,2013-06-04 02:53:00,
2013-06-03 22:54:00,59.8,54.3,30.06,NNE,14,1.5,1.5,82,0.00,,,0.00,VWS V14.01,2013-06-04 02:54:00,
2013-06-03 22:55:00,59.9,54.4,30.06,NNE,14,1.5,1.5,82,0.00,,,0.00,VWS V14.01,2013-06-04 02:55:00,
2013-06-03 22:56:00,59.8,54.3,30.06,NNE,14,1.5,1.5,82,0.00,,,0.00,VWS V14.01,2013-06-04 02:56:00,
2013-06-03 22:57:00,59.8,54.3,30.06,NNE,14,1.5,1.5,82,0.00,,,0.00,VWS V14.01,2013-06-04 02:57:00,
2013-06-03 22:58:00,59.8,54.3,30.06,NNE,14,1.5,1.5,82,0.00,,,0.00,VWS V14.01,2013-06-04 02:58:00,
2013-06-03 22:59:00,59.9,54.4,30.06,NNE,14,1.5,1.5,82,0.00,,,0.00,VWS V14.01,2013-06-04 02:59:00,
2013-06-03 23:00:00,59.9,54.4,30.07,NNE,14,1.5,1.5,82,0.00,,,0.00,VWS V14.01,2013-06-04 03:00:00,
2013-06-03 23:01:00,60.0,54.5,30.06,NNE,14,1.5,1.5,82,0.00,,,0.00,VWS V14.01,2013-06-04 03:01:00,
2013-06-03 23:02:00,60.1,54.6,30.07,NNE,14,1.5,1.5,82,0.00,,,0.00,VWS V14.01,2013-06-04 03:02:00,
2013-06-03 23:03:00,60.1,54.3,30.07,NNE,14,1.5,1.5,81,0.00,,,0.00,VWS V14.01,2013-06-04 03:03:00,
2013-06-03 23:04:00,60.1,54.3,30.07,NNE,14,1.5,1.5,81,0.00,,,0.00,VWS V14.01,2013-06-04 03:04:00,
2013-06-03 23:05:00,60.2,54.4,30.07,NNE,14,1.5,1.5,81,0.00,,,0.00,VWS V14.01,2013-06-04 03:05:00,
2013-06-03 23:06:00,60.1,54.3,30.07,NNE,14,1.5,1.5,81,0.00,,,0.00,VWS V14.01,2013-06-04 03:06:00,
2013-06-03 23:07:00,60.1,54.3,30.07,NNE,14,1.5,1.5,81,0.00,,,0.00,VWS V14.01,2013-06-04 03:07:00,
2013-06-03 23:08:00,60.1,54.3,30.06,NNE,14,1.5,1.5,81,0.00,,,0.00,VWS V14.01,2013-06-04 03:08:00,
2013-06-03 23:09:00,60.0,54.2,30.06,NNE,14,1.5,1.5,81,0.00,,,0.00,VWS V14.01,2013-06-04 03:09:00,
2013-06-03 23:10:00,59.9,54.1,30.06,NNE,14,1.5,1.5,81,0.00,,,0.00,VWS V14.01,2013-06-04 03:10:00,
2013-06-03 23:11:00,59.8,54.0,30.06,NNE,14,1.5,1.5,81,0.00,,,0.00,VWS V14.01,2013-06-04 03:11:00,
2013-06-03 23:12:00,59.8,54.0,30.06,NNE,14,1.5,1.5,81,0.00,,,0.00,VWS V14.01,2013-06-04 03:12:00,
2013-06-03 23:13:00,59.7,54.2,30.06,NNE,14,1.5,1.5,82,0.00,,,0.00,VWS V14.01,2013-06-04 03:13:00,
2013-06-03 23:14:00,59.6,54.1,30.06,NNE,14,1.5,1.5,82,0.00,,,0.00,VWS V14.01,2013-06-04 03:14:00,
2013-06-03 23:15:00,59.5,54.0,30.06,NNE,14,1.5,1.5,82,0.00,,,0.00,VWS V14.01,2013-06-04 03:15:00,
2013-06-03 23:16:00,59.5,54.3,30.07,NNE,14,1.5,1.5,83,0.00,,,0.00,VWS V14.01,2013-06-04 03:16:00,
2013-06-03 23:17:00,59.5,54.3,30.07,NNE,14,1.5,1.5,83,0.00,,,0.00,VWS V14.01,2013-06-04 03:17:00,
2013-06-03 23:18:00,59.5,54.3,30.07,NNE,14,1.5,1.5,83,0.00,,,0.00,VWS V14.01,2013-06-04 03:18:00,
2013-06-03 23:19:00,59.5,54.3,30.06,NNE,14,1.5,1.5,83,0.00,,,0.00,VWS V14.01,2013-06-04 03:19:00,
2013-06-03 23:20:00,59.5,54.3,30.06,NNE,14,1.5,1.5,83,0.00,,,0.00,VWS V14.01,2013-06-04 03:20:00,
2013-06-03 23:21:00,59.5,54.3,30.07,NNE,14,1.5,1.5,83,0.00,,,0.00,VWS V14.01,2013-06-04 03:21:00,
2013-06-03 23:22:00,59.5,54.7,30.06,NNE,14,1.5,1.5,84,0.00,,,0.00,VWS V14.01,2013-06-04 03:22:00,
2013-06-03 23:23:00,59.5,54.7,30.07,NNE,14,1.5,1.5,84,0.00,,,0.00,VWS V14.01,2013-06-04 03:23:00,
2013-06-03 23:24:00,59.4,54.6,30.07,NNE,14,1.5,1.5,84,0.00,,,0.00,VWS V14.01,2013-06-04 03:24:00,
2013-06-03 23:25:00,59.4,54.6,30.07,NNE,14,1.5,1.5,84,0.00,,,0.00,VWS V14.01,2013-06-04 03:25:00,
2013-06-03 23:26:00,59.3,54.8,30.07,NNE,14,1.5,1.5,85,0.00,,,0.00,VWS V14.01,2013-06-04 03:26:00,
2013-06-03 23:27:00,59.2,54.7,30.07,NNE,14,1.5,1.5,85,0.00,,,0.00,VWS V14.01,2013-06-04 03:27:00,
2013-06-03 23:28:00,59.2,54.7,30.07,NNE,14,1.5,1.5,85,0.00,,,0.00,VWS V14.01,2013-06-04 03:28:00,
2013-06-03 23:29:00,59.1,54.9,30.07,NNE,14,1.5,1.5,86,0.00,,,0.00,VWS V14.01,2013-06-04 03:29:00,
2013-06-03 23:30:00,59.0,54.5,30.07,NNE,14,1.5,1.5,85,0.00,,,0.00,VWS V14.01,2013-06-04 03:30:00,
2013-06-03 23:31:00,59.0,54.8,30.07,NNE,27,3.0,3.0,86,0.00,,,0.00,VWS V14.01,2013-06-04 03:31:00,
2013-06-03 23:32:00,59.0,54.8,30.07,NNE,30,3.0,3.0,86,0.00,,,0.00,VWS V14.01,2013-06-04 03:32:00,
2013-06-03 23:33:00,59.0,54.8,30.07,NE,35,3.0,3.0,86,0.00,,,0.00,VWS V14.01,2013-06-04 03:33:00,
2013-06-03 23:34:00,59.0,54.8,30.07,NE,35,1.5,3.0,86,0.00,,,0.00,VWS V14.01,2013-06-04 03:34:00,
2013-06-03 23:35:00,59.0,54.8,30.07,NE,35,1.5,3.0,86,0.00,,,0.00,VWS V14.01,2013-06-04 03:35:00,
2013-06-03 23:36:00,59.0,54.8,30.07,NE,35,1.5,3.0,86,0.00,,,0.00,VWS V14.01,2013-06-04 03:36:00,
2013-06-03 23:37:00,59.0,54.8,30.07,NE,35,1.5,3.0,86,0.00,,,0.00,VWS V14.01,2013-06-04 03:37:00,
2013-06-03 23:38:00,58.9,54.7,30.07,NE,35,1.5,3.0,86,0.00,,,0.00,VWS V14.01,2013-06-04 03:38:00,
2013-06-03 23:39:00,58.9,54.7,30.07,NE,35,1.5,1.5,86,0.00,,,0.00,VWS V14.01,2013-06-04 03:39:00,
2013-06-03 23:40:00,58.9,54.7,30.07,NE,35,1.5,1.5,86,0.00,,,0.00,VWS V14.01,2013-06-04 03:40:00,
2013-06-03 23:41:00,58.8,54.6,30.07,NE,35,1.5,1.5,86,0.00,,,0.00,VWS V14.01,2013-06-04 03:41:00,
2013-06-03 23:42:00,58.8,54.6,30.07,NE,35,1.5,1.5,86,0.00,,,0.00,VWS V14.01,2013-06-04 03:42:00,
2013-06-03 23:43:00,58.7,54.5,30.07,NE,35,1.5,1.5,86,0.00,,,0.00,VWS V14.01,2013-06-04 03:43:00,
2013-06-03 23:44:00,58.7,54.5,30.07,NE,35,1.5,1.5,86,0.00,,,0.00,VWS V14.01,2013-06-04 03:44:00,
2013-06-03 23:45:00,58.6,54.4,30.07,NE,35,1.5,1.5,86,0.00,,,0.00,VWS V14.01,2013-06-04 03:45:00,
2013-06-03 23:46:00,58.4,54.2,30.07,NE,35,1.5,1.5,86,0.00,,,0.00,VWS V14.01,2013-06-04 03:46:00,
2013-06-03 23:47:00,58.4,54.2,30.07,NE,35,1.5,1.5,86,0.00,,,0.00,VWS V14.01,2013-06-04 03:47:00,
2013-06-03 23:48:00,58.3,54.1,30.07,NE,35,1.5,1.5,86,0.00,,,0.00,VWS V14.01,2013-06-04 03:48:00,
2013-06-03 23:49:00,58.2,54.0,30.07,NE,35,1.5,1.5,86,0.00,,,0.00,VWS V14.01,2013-06-04 03:49:00,
2013-06-03 23:50:00,58.1,53.9,30.07,NE,35,1.5,1.5,86,0.00,,,0.00,VWS V14.01,2013-06-04 03:50:00,
2013-06-03 23:51:00,58.0,54.2,30.07,NE,35,1.5,1.5,87,0.00,,,0.00,VWS V14.01,2013-06-04 03:51:00,
2013-06-03 23:52:00,57.9,54.1,30.07,NE,35,1.5,1.5,87,0.00,,,0.00,VWS V14.01,2013-06-04 03:52:00,
2013-06-03 23:53:00,57.8,54.0,30.07,NE,35,1.5,1.5,87,0.00,,,0.00,VWS V14.01,2013-06-04 03:53:00,
2013-06-03 23:54:00,57.7,54.2,30.07,NE,35,1.5,1.5,88,0.00,,,0.00,VWS V14.01,2013-06-04 03:54:00,
2013-06-03 23:55:00,57.6,54.1,30.07,NE,35,1.5,1.5,88,0.00,,,0.00,VWS V14.01,2013-06-04 03:55:00,
2013-06-03 23:56:00,57.5,54.0,30.07,NE,35,1.5,1.5,88,0.00,,,0.00,VWS V14.01,2013-06-04 03:56:00,
2013-06-03 23:57:00,57.5,54.0,30.07,NE,35,1.5,1.5,88,0.00,,,0.00,VWS V14.01,2013-06-04 03:57:00,
2013-06-03 23:58:00,57.4,53.9,30.07,NE,35,1.5,1.5,88,0.00,,,0.00,VWS V14.01,2013-06-04 03:58:00,
2013-06-03 23:59:00,57.3,53.8,30.07,NE,35,1.5,1.5,88,0.00,,,0.00,VWS V14.01,2013-06-04 03:59:00,